[[{"header":{"parameterUnit":"m.s-1","parameterCategory":1,"la1":30.6,"la2":29.2853,"lo1":-89.7004,"lo2":-87.6739,"dy":0.0162,"dx":0.0183,"nx":112,"ny":82,"refTime":"2024-08-14T06:00:00:Z","depth":0,"parameterNumber":2,"parameterNumberName":"U-component_of_WINDS"},"data":[0.0,0.0,0.0,0.0,0.0,0.0,0.0,0.0,0.0,0.0,0.0,0.0,0.0,0.0,0.0,0.0,0.0,0.0,0.0,0.0,0.0,0.0,0.0,0.0,0.0,0.0,0.0,0.0,0.0,0.0,0.0,0.0,0.0,0.0,0.0,0.0,0.0,0.0,0.0,0.0,0.0,0.0,0.0,0.0,0.0,0.0,0.0,0.0,0.0,0.0,0.0,0.0,0.0,0.0,0.0,0.0,0.0,0.0,0.0,0.0,0.0,0.0,0.0,0.0,0.0,0.0,0.0,0.0,0.0,0.0,0.0,0.0,0.0,0.0,0.0,0.0,0.0,0.0,0.0,0.0,0.0,0.0,0.0,0.0,0.0,0.0,0.0,0.0,0.0,0.0,-3.0536,-3.0859,-3.0117,-2.9816,-3.0364,-2.9724,-2.883,-2.7776,0.0,0.0,0.0,0.0,0.0,0.0,0.0,0.0,0.0,0.0,0.0,0.0,0.0,0.0,0.0,0.0,0.0,0.0,0.0,0.0,0.0,0.0,0.0,0.0,0.0,0.0,0.0,0.0,0.0,0.0,0.0,0.0,0.0,0.0,0.0,0.0,0.0,0.0,0.0,0.0,0.0,0.0,0.0,0.0,0.0,0.0,0.0,0.0,0.0,0.0,0.0,0.0,0.0,0.0,0.0,0.0,0.0,0.0,0.0,0.0,0.0,0.0,0.0,0.0,0.0,0.0,0.0,0.0,0.0,0.0,0.0,0.0,0.0,0.0,0.0,0.0,0.0,0.0,0.0,0.0,0.0,0.0,0.0,0.0,0.0,0.0,0.0,0.0,0.0,0.0,0.0,0.0,0.0,0.0,0.0,0.0,0.0,0.0,0.0,0.0,0.0,0.0,0.0,0.0,-2.9187,-3.0723,-3.0117,-2.9601,-2.9571,-2.9413,-2.8585,-2.691,0.0,0.0,0.0,0.0,0.0,0.0,0.0,0.0,0.0,0.0,0.0,0.0,0.0,0.0,0.0,0.0,0.0,0.0,0.0,0.0,0.0,0.0,0.0,0.0,0.0,0.0,0.0,0.0,0.0,0.0,0.0,0.0,0.0,0.0,0.0,0.0,0.0,0.0,0.0,0.0,0.0,0.0,0.0,0.0,0.0,0.0,0.0,0.0,0.0,0.0,0.0,0.0,0.0,0.0,0.0,0.0,0.0,0.0,0.0,0.0,0.0,0.0,0.0,0.0,0.0,0.0,0.0,0.0,0.0,0.0,0.0,0.0,0.0,0.0,0.0,0.0,0.0,0.0,0.0,0.0,0.0,0.0,0.0,0.0,0.0,0.0,0.0,0.0,0.0,0.0,0.0,0.0,0.0,0.0,0.0,0.0,0.0,0.0,0.0,0.0,0.0,0.0,0.0,-3.0187,-2.9978,-3.0801,-2.9665,-2.8981,-2.9377,-2.8463,-2.7516,-2.665,-2.6605,0.0,0.0,0.0,0.0,0.0,0.0,0.0,0.0,0.0,0.0,0.0,0.0,0.0,0.0,0.0,0.0,0.0,0.0,0.0,0.0,0.0,0.0,0.0,0.0,0.0,0.0,0.0,0.0,0.0,0.0,0.0,0.0,0.0,0.0,0.0,0.0,0.0,0.0,0.0,0.0,0.0,0.0,0.0,0.0,0.0,0.0,0.0,0.0,0.0,0.0,0.0,0.0,0.0,0.0,0.0,0.0,0.0,0.0,0.0,0.0,0.0,0.0,0.0,0.0,0.0,0.0,0.0,0.0,0.0,0.0,0.0,0.0,0.0,0.0,0.0,0.0,0.0,0.0,0.0,0.0,0.0,0.0,0.0,0.0,0.0,0.0,0.0,0.0,0.0,0.0,0.0,0.0,0.0,0.0,0.0,0.0,0.0,0.0,0.0,0.0,0.0,0.0,-3.1523,-3.1348,-3.0937,-2.9292,-2.8469,-2.9046,-2.7634,-2.6594,-2.6304,-2.6097,0.0,0.0,0.0,0.0,0.0,0.0,0.0,0.0,0.0,0.0,0.0,0.0,0.0,0.0,0.0,0.0,0.0,0.0,0.0,0.0,0.0,0.0,0.0,0.0,0.0,0.0,0.0,0.0,0.0,0.0,0.0,0.0,0.0,0.0,0.0,0.0,0.0,0.0,0.0,0.0,0.0,0.0,0.0,0.0,0.0,0.0,0.0,0.0,0.0,0.0,0.0,0.0,0.0,0.0,0.0,0.0,0.0,0.0,0.0,0.0,0.0,0.0,0.0,0.0,0.0,0.0,0.0,0.0,0.0,0.0,0.0,0.0,0.0,0.0,0.0,0.0,0.0,0.0,0.0,0.0,0.0,0.0,0.0,0.0,0.0,0.0,0.0,0.0,0.0,0.0,0.0,0.0,0.0,0.0,0.0,0.0,0.0,0.0,0.0,0.0,0.0,0.0,-3.1797,-3.2637,-3.1074,-2.9336,-2.8273,-2.8203,-2.7332,-2.6398,-2.5457,-2.5773,0.0,0.0,0.0,0.0,0.0,0.0,0.0,0.0,0.0,0.0,0.0,0.0,0.0,0.0,0.0,0.0,0.0,0.0,0.0,0.0,0.0,0.0,0.0,0.0,0.0,0.0,0.0,0.0,0.0,0.0,0.0,0.0,0.0,0.0,0.0,0.0,0.0,0.0,0.0,0.0,0.0,0.0,0.0,0.0,0.0,0.0,0.0,0.0,0.0,0.0,0.0,0.0,0.0,0.0,0.0,0.0,0.0,0.0,0.0,0.0,0.0,0.0,0.0,0.0,0.0,0.0,0.0,0.0,0.0,0.0,0.0,0.0,0.0,0.0,0.0,0.0,0.0,0.0,0.0,0.0,0.0,0.0,0.0,0.0,0.0,0.0,0.0,0.0,0.0,0.0,0.0,0.0,0.0,0.0,0.0,0.0,0.0,0.0,0.0,0.0,0.0,0.0,-3.1719,-3.2207,-3.1035,-2.9266,-2.8158,-2.8101,-2.6727,-2.5693,-2.5313,0.0,0.0,0.0,0.0,0.0,0.0,0.0,0.0,0.0,0.0,0.0,0.0,0.0,0.0,0.0,0.0,0.0,0.0,0.0,0.0,0.0,0.0,0.0,0.0,0.0,0.0,0.0,0.0,0.0,0.0,0.0,0.0,0.0,0.0,0.0,0.0,0.0,0.0,0.0,0.0,0.0,0.0,0.0,0.0,0.0,0.0,0.0,0.0,0.0,0.0,0.0,0.0,0.0,0.0,0.0,0.0,0.0,0.0,0.0,0.0,0.0,0.0,0.0,0.0,0.0,0.0,0.0,0.0,0.0,0.0,0.0,0.0,0.0,0.0,0.0,0.0,0.0,0.0,0.0,0.0,0.0,0.0,0.0,0.0,0.0,0.0,0.0,0.0,0.0,0.0,0.0,0.0,0.0,0.0,0.0,0.0,0.0,0.0,0.0,0.0,0.0,0.0,-3.0781,-3.166,-3.1758,-3.0584,-2.9054,-2.7994,-2.7676,-2.6223,-2.5331,-2.5313,0.0,0.0,0.0,0.0,0.0,0.0,0.0,0.0,0.0,0.0,0.0,0.0,0.0,0.0,0.0,0.0,0.0,0.0,0.0,0.0,0.0,0.0,0.0,0.0,0.0,0.0,0.0,0.0,0.0,0.0,0.0,0.0,0.0,0.0,0.0,0.0,0.0,0.0,0.0,0.0,0.0,0.0,0.0,0.0,0.0,0.0,0.0,0.0,0.0,0.0,0.0,0.0,0.0,0.0,0.0,0.0,0.0,0.0,0.0,0.0,0.0,0.0,0.0,0.0,0.0,0.0,0.0,0.0,0.0,0.0,0.0,0.0,0.0,0.0,0.0,0.0,0.0,0.0,0.0,0.0,0.0,0.0,0.0,0.0,0.0,0.0,0.0,0.0,0.0,0.0,0.0,0.0,0.0,0.0,0.0,0.0,0.0,0.0,0.0,0.0,0.0,0.0,-3.0762,-3.1641,-3.1503,-2.9689,-2.8728,-2.7796,-2.6791,-2.5909,-2.5371,0.0,0.0,0.0,0.0,0.0,0.0,0.0,0.0,0.0,0.0,0.0,0.0,0.0,0.0,0.0,0.0,0.0,0.0,0.0,0.0,0.0,0.0,0.0,0.0,0.0,0.0,0.0,0.0,0.0,0.0,0.0,0.0,0.0,0.0,0.0,0.0,0.0,0.0,0.0,0.0,0.0,0.0,0.0,0.0,0.0,0.0,0.0,0.0,0.0,0.0,0.0,0.0,0.0,0.0,0.0,0.0,0.0,0.0,0.0,0.0,0.0,0.0,0.0,0.0,0.0,0.0,0.0,0.0,0.0,0.0,0.0,0.0,0.0,0.0,0.0,0.0,0.0,0.0,0.0,0.0,0.0,0.0,0.0,0.0,0.0,0.0,0.0,0.0,0.0,0.0,0.0,0.0,0.0,0.0,0.0,0.0,0.0,0.0,0.0,0.0,0.0,0.0,0.0,-2.9941,-3.1289,-3.1503,-2.9689,-2.8688,-2.7736,-2.6791,-2.5865,-2.5322,-2.5313,0.0,0.0,0.0,0.0,0.0,0.0,0.0,0.0,0.0,0.0,0.0,0.0,0.0,0.0,0.0,0.0,0.0,0.0,0.0,0.0,0.0,0.0,0.0,0.0,0.0,0.0,0.0,0.0,0.0,0.0,0.0,0.0,0.0,0.0,0.0,0.0,0.0,0.0,0.0,0.0,0.0,0.0,0.0,0.0,0.0,0.0,0.0,0.0,0.0,0.0,0.0,0.0,0.0,0.0,0.0,0.0,0.0,0.0,0.0,0.0,0.0,0.0,0.0,0.0,0.0,0.0,0.0,0.0,0.0,0.0,0.0,0.0,0.0,0.0,0.0,0.0,0.0,0.0,0.0,0.0,0.0,0.0,0.0,0.0,0.0,0.0,0.0,0.0,0.0,0.0,0.0,0.0,0.0,0.0,0.0,0.0,0.0,0.0,0.0,0.0,0.0,0.0,-2.9476,-3.0461,-3.0554,-2.9054,-2.8101,-2.7162,-2.6218,-2.563,-2.5303,-2.5303,0.0,0.0,0.0,0.0,0.0,0.0,0.0,0.0,0.0,0.0,0.0,0.0,0.0,0.0,0.0,0.0,0.0,0.0,0.0,0.0,0.0,0.0,0.0,0.0,0.0,0.0,0.0,0.0,0.0,0.0,0.0,0.0,0.0,0.0,0.0,0.0,0.0,0.0,0.0,0.0,0.0,0.0,0.0,0.0,0.0,0.0,0.0,0.0,0.0,0.0,0.0,0.0,0.0,0.0,0.0,0.0,0.0,0.0,0.0,0.0,0.0,0.0,0.0,0.0,0.0,0.0,0.0,0.0,0.0,0.0,0.0,0.0,0.0,0.0,0.0,0.0,0.0,0.0,0.0,0.0,0.0,0.0,0.0,0.0,0.0,0.0,0.0,0.0,0.0,0.0,0.0,0.0,0.0,0.0,0.0,0.0,0.0,0.0,0.0,0.0,0.0,0.0,-2.9299,-2.9445,-2.911,-2.8109,-2.7229,-2.6312,-2.538,-2.5303,-2.5303,-2.5303,0.0,0.0,0.0,0.0,0.0,0.0,0.0,0.0,0.0,0.0,0.0,0.0,0.0,0.0,0.0,0.0,0.0,0.0,0.0,0.0,0.0,0.0,0.0,0.0,0.0,0.0,0.0,0.0,0.0,0.0,0.0,0.0,0.0,0.0,0.0,0.0,0.0,0.0,0.0,0.0,0.0,0.0,0.0,0.0,0.0,0.0,0.0,0.0,0.0,0.0,0.0,0.0,0.0,0.0,0.0,0.0,0.0,0.0,0.0,0.0,-2.9794,-2.9762,0.0,0.0,0.0,0.0,0.0,0.0,0.0,0.0,0.0,0.0,0.0,0.0,0.0,0.0,0.0,0.0,0.0,0.0,0.0,0.0,0.0,0.0,0.0,0.0,0.0,0.0,0.0,0.0,0.0,0.0,0.0,0.0,0.0,0.0,0.0,0.0,0.0,0.0,0.0,0.0,-2.923,-2.9421,-2.911,-2.8109,-2.7229,-2.6312,-2.538,-2.5303,-2.5303,-2.5303,-2.5077,0.0,0.0,0.0,0.0,0.0,0.0,0.0,0.0,0.0,0.0,0.0,0.0,0.0,0.0,0.0,0.0,0.0,0.0,0.0,0.0,0.0,0.0,0.0,0.0,0.0,0.0,0.0,0.0,0.0,0.0,0.0,0.0,0.0,0.0,0.0,0.0,0.0,0.0,0.0,0.0,0.0,0.0,0.0,0.0,0.0,0.0,0.0,0.0,0.0,0.0,0.0,0.0,0.0,0.0,0.0,0.0,0.0,0.0,0.0,-3.1618,-3.1827,0.0,0.0,0.0,0.0,0.0,0.0,0.0,0.0,0.0,0.0,0.0,0.0,0.0,0.0,0.0,0.0,0.0,0.0,0.0,0.0,0.0,0.0,0.0,0.0,0.0,0.0,0.0,0.0,0.0,0.0,0.0,0.0,0.0,0.0,0.0,0.0,0.0,0.0,0.0,0.0,-2.8636,-2.8722,-2.8398,-2.7428,-2.656,-2.5839,-2.5332,-2.5303,-2.5303,-2.5303,-2.5111,0.0,0.0,0.0,0.0,0.0,0.0,0.0,0.0,0.0,0.0,0.0,0.0,0.0,0.0,0.0,0.0,0.0,0.0,0.0,0.0,0.0,0.0,0.0,0.0,0.0,0.0,0.0,0.0,0.0,0.0,0.0,0.0,0.0,0.0,0.0,0.0,0.0,0.0,0.0,0.0,0.0,0.0,0.0,0.0,0.0,0.0,0.0,0.0,0.0,0.0,0.0,0.0,0.0,-3.5859,-3.5996,-3.5996,-3.5996,-3.5996,-3.584,-3.3008,-3.3279,-3.5476,-3.2611,0.0,0.0,0.0,0.0,0.0,0.0,0.0,0.0,0.0,0.0,0.0,0.0,0.0,0.0,0.0,0.0,0.0,0.0,0.0,0.0,0.0,0.0,-3.2157,-3.124,-3.2124,-3.2871,-3.1729,0.0,0.0,0.0,0.0,0.0,0.0,0.0,0.0,0.0,0.0,0.0,-2.82,-2.8057,-2.7638,-2.6688,-2.5832,-2.5303,-2.5303,-2.5303,-2.5303,-2.5303,-2.5152,-2.5034,0.0,0.0,0.0,0.0,0.0,0.0,0.0,0.0,0.0,0.0,0.0,0.0,0.0,0.0,0.0,0.0,0.0,0.0,0.0,0.0,0.0,0.0,0.0,0.0,0.0,0.0,0.0,0.0,0.0,0.0,0.0,0.0,-2.5561,-2.652,0.0,0.0,0.0,0.0,0.0,0.0,0.0,0.0,0.0,0.0,0.0,0.0,0.0,-3.2363,-3.3066,-3.3066,-3.3301,-3.3769,-3.5273,-3.5996,-3.5996,-3.5996,-3.5996,-3.5976,-3.5527,0.0,-3.4471,-3.3847,0.0,0.0,0.0,0.0,0.0,0.0,0.0,0.0,0.0,0.0,0.0,0.0,0.0,0.0,0.0,0.0,0.0,0.0,0.0,0.0,0.0,0.0,-3.2305,-3.1936,-3.2103,-3.2695,-3.3925,-3.3593,-3.2791,-3.1938,-3.1758,-3.1207,0.0,0.0,0.0,0.0,0.0,0.0,-2.8951,-2.8385,-2.7638,-2.6688,-2.5832,-2.5303,-2.5303,-2.5303,-2.5303,-2.5303,-2.5274,-2.5173,-2.501,-2.4986,0.0,0.0,0.0,0.0,0.0,0.0,0.0,0.0,0.0,0.0,0.0,0.0,0.0,0.0,0.0,0.0,0.0,0.0,0.0,0.0,0.0,0.0,0.0,0.0,0.0,0.0,0.0,0.0,0.0,-2.5661,-2.7375,-2.6812,-2.8065,-2.8626,0.0,0.0,0.0,0.0,0.0,0.0,0.0,0.0,0.0,-3.332,-3.3535,-3.4004,-3.4844,-3.4863,-3.4863,-3.4863,-3.5644,-3.5996,-3.5996,-3.5996,-3.4941,-3.3184,-3.4121,-3.4531,-3.4492,-3.4183,-3.4013,-3.3829,0.0,0.0,0.0,0.0,-3.2237,-3.1948,-3.2929,-3.2949,-3.2449,-3.1968,0.0,0.0,0.0,0.0,0.0,0.0,0.0,-3.0764,0.0,0.0,-3.223,-3.2682,-3.2831,-3.3086,-3.3809,-3.4043,-3.4003,-3.3598,-3.3473,-3.2859,-3.1022,-3.0718,0.0,0.0,0.0,-2.9544,-2.8608,-2.8174,-2.7403,-2.6024,-2.5534,-2.5303,-2.5303,-2.5303,-2.5303,-2.5303,-2.5303,-2.5264,-2.5163,-2.5163,-2.5096,0.0,0.0,0.0,0.0,0.0,0.0,0.0,0.0,0.0,0.0,0.0,0.0,0.0,0.0,0.0,0.0,0.0,0.0,0.0,0.0,0.0,0.0,0.0,0.0,0.0,0.0,0.0,0.0,-2.7157,-2.8713,-2.7467,-2.9427,-3.0341,0.0,0.0,0.0,0.0,0.0,0.0,-3.2754,-3.2832,-3.3418,-3.4687,-3.4922,-3.5332,-3.5996,-3.5996,-3.5996,-3.5996,-3.5996,-3.5547,-3.4707,-3.4707,-3.3476,-3.1406,-3.2656,-3.3633,-3.4355,-3.4248,-3.4433,-3.4724,-3.3945,-3.3624,-3.3641,-3.4295,-3.4122,-3.3757,-3.5064,-3.5084,-3.443,-3.3776,-3.341,-3.3006,-3.1756,0.0,0.0,0.0,0.0,-3.1314,-3.2532,-3.2363,-3.2024,-3.2588,-3.2713,-3.2772,-3.3047,-3.3573,-3.4137,-3.4558,-3.4757,-3.4288,-3.2499,-3.2167,0.0,-3.0653,-3.0441,-2.9809,-2.8182,-2.7923,-2.7236,-2.5495,-2.5303,-2.5303,-2.5303,-2.5303,-2.5303,-2.5303,-2.5303,-2.5303,-2.5303,-2.5303,-2.5224,-2.5088,0.0,0.0,0.0,0.0,0.0,0.0,0.0,0.0,0.0,0.0,0.0,0.0,0.0,0.0,0.0,0.0,0.0,0.0,0.0,0.0,0.0,0.0,0.0,0.0,0.0,0.0,0.0,0.0,0.0,-2.8978,-3.0607,0.0,0.0,0.0,0.0,-3.1877,-3.271,-3.3613,-3.4531,-3.457,-3.498,-3.5898,-3.5937,-3.5957,-3.5996,-3.5996,-3.5996,-3.5996,-3.5996,-3.4297,-3.1152,-3.1152,-3.1641,-3.2519,-3.2598,-3.2949,-3.3515,-3.4209,-3.4945,-3.5631,-3.5434,-3.5372,-3.5372,-3.543,-3.5411,-3.5391,-3.5468,-3.5468,-3.543,-3.5391,-3.4814,-3.4122,-3.4026,-3.343,0.0,0.0,-3.2814,-3.262,-3.2019,-3.1844,-3.1651,-3.0989,-3.0836,-3.1097,-3.205,-3.2198,-3.2634,-3.4355,-3.532,-3.5275,-3.3523,0.0,-3.2453,-3.075,-3.0441,-2.9794,-2.8112,-2.7901,-2.7236,-2.5495,-2.5303,-2.5303,-2.5303,-2.5303,-2.5303,-2.5303,-2.5303,-2.5303,-2.5303,-2.5303,-2.5303,-2.5293,-2.5099,0.0,0.0,0.0,0.0,0.0,0.0,0.0,0.0,0.0,0.0,0.0,0.0,0.0,0.0,0.0,0.0,0.0,0.0,0.0,0.0,0.0,0.0,0.0,0.0,0.0,0.0,0.0,0.0,-3.0775,-3.2293,0.0,-3.2193,-3.2518,-3.301,-3.3633,-3.4018,-3.4629,-3.5488,-3.5547,-3.5684,-3.5996,-3.5996,-3.5996,-3.5996,-3.5273,-3.4902,-3.4902,-3.4512,-3.3125,-3.0898,-3.0898,-3.1113,-3.1504,-3.1504,-3.1934,-3.2636,-3.2814,-3.3365,-3.4068,-3.3898,-3.3833,-3.3833,-3.3833,-3.3833,-3.3833,-3.3833,-3.3833,-3.3833,-3.3833,-3.3622,-3.3353,-3.3353,-3.3141,-3.2891,-3.2891,-3.2526,-3.2081,-3.1855,-3.1389,-3.0773,-3.0044,-3.0287,-3.066,-3.0497,-3.1342,-3.2321,-3.2969,-3.3719,-3.3851,-3.2667,-3.2428,-3.1987,-3.0813,-3.0102,-2.9303,-2.8226,-2.7528,-2.6676,-2.5487,-2.534,-2.5303,-2.5303,-2.5303,-2.5303,-2.5303,-2.5303,-2.5303,-2.5303,-2.5303,-2.5303,-2.5303,-2.5224,-2.5184,0.0,0.0,0.0,0.0,0.0,0.0,0.0,0.0,0.0,0.0,0.0,0.0,0.0,0.0,0.0,0.0,0.0,0.0,0.0,0.0,0.0,0.0,0.0,0.0,0.0,-3.0448,-3.1698,-3.1698,-3.291,-3.3448,-3.2634,-3.3178,-3.3848,-3.4525,-3.463,-3.5056,-3.5957,-3.5723,-3.5566,-3.5566,-3.5566,-3.543,-3.5137,-3.457,-3.4199,-3.3984,-3.3594,-3.2715,-3.1465,-3.1074,-3.0898,-3.0898,-3.0898,-3.123,-3.1758,-3.1621,-3.1882,-3.24,-3.2783,-3.2926,-3.2945,-3.2904,-3.2891,-3.2891,-3.2891,-3.2891,-3.2891,-3.2891,-3.2891,-3.2891,-3.2891,-3.2891,-3.2833,-3.2564,-3.2102,-3.1646,-3.1399,-3.0685,-2.991,-2.944,-2.9561,-2.9643,-2.914,-3.0194,-3.1259,-3.1259,-3.2358,-3.3035,-3.2214,-3.2001,-3.1668,-3.081,-3.0125,-2.9324,-2.8232,-2.7508,-2.6666,-2.5487,-2.5321,-2.5303,-2.5303,-2.5303,-2.5303,-2.5303,-2.5303,-2.5303,-2.5303,-2.5303,-2.5303,-2.5303,-2.5303,-2.5437,-2.5726,0.0,0.0,0.0,0.0,0.0,0.0,0.0,0.0,0.0,0.0,0.0,0.0,0.0,0.0,0.0,0.0,0.0,0.0,0.0,0.0,0.0,0.0,0.0,-3.0475,-3.1218,-3.1756,-3.1775,-3.2449,-3.2583,-3.1814,-3.3274,-3.4311,-3.4458,-3.4525,-3.4942,-3.5879,-3.5117,-3.4668,-3.4668,-3.4668,-3.4258,-3.3418,-3.3945,-3.3945,-3.3359,-3.332,-3.3047,-3.2519,-3.1406,-3.0898,-3.0898,-3.0879,-3.0859,-3.0859,-3.0689,-3.0638,-3.0785,-3.2318,-3.2919,-3.2909,-3.2856,-3.2814,-3.2814,-3.2814,-3.2814,-3.2814,-3.2814,-3.2814,-3.2814,-3.2814,-3.2814,-3.266,-3.1891,-3.166,-3.1468,-3.0602,-2.9737,-2.9107,-2.9117,-2.8551,-2.8,-2.8057,-2.8729,-2.9366,-2.9366,-3.1441,-3.2963,-3.2264,-3.1987,-3.1572,-3.0742,-3.0494,0.0,-2.8114,-2.7862,-2.7189,-2.5486,-2.5313,-2.5303,-2.5303,-2.5303,-2.5303,-2.5303,-2.5303,-2.5303,-2.5303,-2.5322,-2.5341,-2.5341,-2.536,-2.5793,-2.6601,0.0,0.0,0.0,0.0,0.0,0.0,0.0,0.0,0.0,0.0,0.0,0.0,0.0,0.0,0.0,0.0,0.0,0.0,0.0,0.0,0.0,-3.1686,-3.1782,-3.216,-3.2429,-3.2795,-3.343,-3.3141,-3.2814,-3.2583,-3.3081,-3.3451,-3.3486,-3.3544,-3.3711,-3.4029,-3.3814,-3.3704,-3.3769,-3.3769,-3.3633,-3.3398,-3.2988,-3.2695,-3.2519,-3.1894,-3.1504,-3.1367,-3.1035,-3.0898,-3.0859,-3.0234,-2.9961,-2.9902,-2.9237,-2.8962,-2.9115,-3.0661,-3.1224,-3.1187,-3.1178,-3.1135,-3.1102,-3.1102,-3.1102,-3.1102,-3.1102,-3.1102,-3.1102,-3.1102,-3.1102,-3.1044,-3.0833,-3.0756,-3.0564,-2.9679,-2.9275,-2.8805,-2.7595,-2.7679,-2.783,-2.7219,-2.7801,-2.8462,-2.8462,-2.9543,-3.0585,-3.0973,-3.0984,-3.0872,-3.0645,-2.9551,0.0,-2.8106,-2.6897,-2.5901,-2.5426,-2.533,-2.5303,-2.5303,-2.5303,-2.5303,-2.5303,-2.5303,-2.5303,-2.5303,-2.5909,-2.6236,-2.6236,-2.6851,-2.6986,0.0,0.0,0.0,0.0,0.0,0.0,0.0,0.0,0.0,0.0,0.0,0.0,0.0,0.0,0.0,0.0,0.0,0.0,0.0,0.0,0.0,0.0,-3.2482,-3.2532,-3.2852,-3.2891,-3.2968,-3.3122,-3.2372,-3.1852,-3.1852,-3.2254,-3.2532,-3.255,-3.259,-3.2798,-3.3243,-3.2916,-3.2732,-3.2773,-3.2805,-3.2632,-3.2261,-3.1855,-3.1465,-3.1094,-3.0488,-3.0195,-3.0195,-3.0195,-2.9902,-2.9414,-2.918,-2.9199,-2.9355,-2.834,-2.793,0.0,0.0,0.0,0.0,0.0,-2.941,-2.9352,-2.9352,-2.9352,-2.9352,-2.9352,-2.9583,-2.9852,-2.9852,-3.0121,-3.0321,-2.9967,-2.9852,-2.966,-2.8813,-2.8332,-2.7813,-2.6832,-2.6738,-2.6724,-2.6221,-2.6839,-2.7464,-2.7464,-2.8175,0.0,-2.9389,-3.0095,-3.0489,-3.0113,-2.9195,-2.8327,-2.7637,-2.6618,-2.582,-2.548,-2.542,-2.5383,-2.5383,-2.5383,0.0,0.0,0.0,-2.5557,-2.5913,-2.6417,0.0,0.0,0.0,0.0,0.0,0.0,0.0,0.0,-2.9027,-2.8904,0.0,0.0,0.0,0.0,0.0,0.0,0.0,0.0,0.0,0.0,0.0,0.0,0.0,0.0,0.0,0.0,-3.2499,-3.2795,-3.2776,-3.2679,-3.2391,-3.1775,-3.0929,-3.0398,-3.0398,-3.1102,-3.1584,-3.1632,-3.1651,-3.2006,-3.2843,-3.2162,0.0,0.0,0.0,-3.1432,-3.0579,-3.0679,-3.0312,-2.9453,-2.9219,-2.9101,-2.9101,-2.9101,-2.8516,-2.7539,-2.8008,-2.8496,-2.8867,-2.7695,-2.7207,-2.7265,-2.7932,-2.8193,-2.8184,-2.8055,-2.798,-2.7911,-2.7911,0.0,0.0,-2.789,-2.8371,-2.8948,-2.8948,-2.9506,-2.9967,-2.9179,-2.8948,-2.8775,-2.7948,-2.7178,-2.6582,-2.6486,-2.587,-2.5293,-2.5303,-2.5929,-2.6477,-2.6468,-2.7181,-2.7778,-2.7778,-2.9179,-3.0037,-2.9279,-2.9024,-2.84,-2.6985,-2.6663,-2.6301,-2.5581,0.0,0.0,-2.5493,-2.5493,-2.5493,-2.5493,-2.5493,-2.5883,-2.6763,-2.6802,-2.7152,-2.7936,-2.7289,-2.7712,-2.9249,-2.9249,-2.9716,-3.0578,-2.9013,-2.8754,0.0,0.0,0.0,0.0,0.0,0.0,0.0,0.0,0.0,0.0,0.0,0.0,0.0,0.0,0.0,-3.1915,-3.2192,-3.2186,-3.1968,-3.1333,-3.1102,-3.1641,-3.0929,-3.0398,-3.0398,-3.0552,-3.0671,-3.0667,-3.0667,-3.077,-3.1017,-3.087,-3.0804,-3.0859,-3.0856,-3.0496,-2.9737,-2.9765,-2.9366,-2.8555,0.0,0.0,-2.8476,-2.8476,-2.8359,-2.8105,-2.7734,-2.7519,-2.7344,-2.6406,-2.6035,-2.6172,-2.7639,-2.8193,-2.8187,-2.811,-2.8039,-2.7978,-2.7978,-2.7952,-2.789,-2.789,-2.8005,-2.8121,-2.8121,-2.8255,0.0,-2.8179,-2.8121,-2.7928,-2.7063,-2.6736,-2.6428,-2.5717,-2.5418,-2.5313,-2.5371,-2.5511,-2.5657,-2.5706,-2.6411,-2.7006,-2.7006,-2.781,-2.8376,-2.828,-2.7633,-2.7094,-2.6829,-2.6173,-2.5668,-2.5527,-2.5493,-2.5493,-2.5493,-2.5493,-2.5493,-2.5493,-2.5493,-2.5897,-2.6762,-2.6801,-2.6879,-2.7059,-2.7579,-2.8007,-2.8349,-2.8357,-2.9148,-3.0661,-3.0322,-3.0287,0.0,0.0,0.0,0.0,0.0,0.0,0.0,0.0,0.0,0.0,0.0,-2.8746,-3.0229,0.0,-3.0591,-3.116,-3.1256,-3.1052,-3.0487,-2.9679,-2.9467,-3.0294,-2.966,-2.9159,-2.9159,-2.9159,-2.9159,-2.9159,-2.9159,-2.9154,-2.9187,-2.9197,-2.9206,-2.9248,-2.9276,-2.9111,-2.8743,-2.8777,-2.8405,-2.7592,-2.7592,-2.738,-2.6992,-2.6992,-2.6992,-2.6973,-2.668,-2.6465,-2.6328,-2.5879,-2.5703,-2.5781,-2.6617,-2.6939,-2.6886,-2.686,-2.6812,-2.6748,-2.6748,-2.6711,-2.6648,-2.668,-2.6973,-2.7306,-2.7306,-2.7595,-2.7865,-2.7422,-2.7306,-2.7112,-2.6281,-2.6045,-2.5948,-2.5503,-2.5406,-2.542,-2.5441,-2.5453,-2.5471,-2.5484,-2.5858,-2.6145,-2.6145,-2.645,-2.6868,-2.7373,-2.7058,-2.6629,-2.6292,-2.5837,-2.5561,-2.5601,-2.5601,-2.5601,-2.5601,-2.5601,-2.5601,-2.5601,-2.6013,-2.6459,-2.6886,-2.6905,-2.712,-2.753,-2.7546,-2.7761,-2.8196,-2.8193,-2.865,-2.9505,-2.9954,-3.0383,0.0,0.0,0.0,0.0,0.0,0.0,0.0,-2.8368,-3.0905,-3.0897,-3.0898,-3.0831,-3.0647,-3.0484,-3.0393,-3.0406,-3.0256,-2.991,-2.9198,-2.8255,-2.789,-2.8544,-2.8179,-2.789,-2.789,-2.789,-2.789,-2.789,-2.789,-2.789,-2.789,-2.789,-2.789,-2.789,-2.7942,-2.7907,-2.7757,-2.7802,-2.742,-2.6627,-2.6627,-2.6293,-2.5683,-2.5683,-2.5683,-2.5703,-2.5703,-2.5703,-2.5703,-2.5703,-2.5703,-2.5703,-2.5703,-2.5662,-2.5629,-2.5629,-2.559,-2.5526,-2.5526,-2.5488,-2.5428,-2.5473,-2.5931,-2.6474,-2.6474,-2.6951,-2.7377,-2.6667,-2.6474,-2.6313,-2.5668,-2.5493,-2.5493,-2.5493,-2.5493,-2.5493,-2.5526,-2.5526,-2.5511,-2.5543,-2.5543,-2.5543,-2.5543,-2.5543,-2.5788,-2.6549,-2.6599,-2.6353,-2.5761,-2.5659,-2.5636,-2.5683,-2.5703,-2.5703,-2.5703,-2.5703,-2.5703,-2.5703,-2.6367,-2.6758,-2.6758,-2.6758,-2.707,-2.7773,-2.7109,-2.7187,-2.8047,-2.7871,-2.7969,-2.832,-2.9023,-2.9805,-2.2241,-2.371,-2.5179,-2.5179,-2.5236,-2.5316,0.0,-2.8232,-3.0898,-3.0898,-3.0892,-3.0843,-3.0642,-3.0482,-3.0394,-3.0394,-2.9756,-2.9198,-2.9102,-2.7736,-2.6774,-2.6871,-2.7486,-2.789,-2.789,-2.789,-2.789,-2.789,-2.789,-2.789,-2.789,-2.789,-2.789,-2.789,-2.7911,-2.7566,-2.685,-2.6846,-2.6456,-2.5658,-2.5658,-2.5648,-2.5607,-2.5607,-2.5637,-2.5703,-2.5703,-2.5703,-2.5703,-2.5703,-2.5703,-2.5703,-2.5703,-2.5703,-2.5683,-2.5683,-2.5657,-2.5595,-2.5595,-2.5547,-2.5484,-2.5508,-2.5561,-2.5634,-2.5634,-2.5692,-2.577,-2.5654,-2.5634,-2.5615,-2.5527,-2.5493,-2.5493,-2.5493,-2.5493,-2.5526,-2.559,-2.5595,-2.5605,-2.5661,-2.5683,-2.5683,-2.5683,-2.5683,-2.5699,-2.5742,-2.5735,-2.5724,-2.5703,-2.5683,-2.5683,-2.5703,-2.5703,-2.5703,-2.5703,-2.5703,-2.5703,-2.5703,-2.5781,-2.5859,-2.5859,-2.5859,-2.5898,-2.5996,-2.5898,-2.6269,-2.7148,-2.6367,-2.6797,-2.8301,-2.8398,-2.8906,-2.3182,-2.4025,-2.475,-2.5198,-2.6796,-2.832,-2.8505,-2.9762,-3.0897,-3.0897,-3.0891,-3.0813,-3.0542,-2.9444,-2.884,-2.9536,-2.8326,-2.7338,-2.7445,-2.6371,-2.5565,-2.5565,-2.5869,-2.6173,-2.6369,-2.639,-2.639,-2.639,-2.639,-2.639,-2.639,-2.639,-2.639,-2.639,-2.639,-2.6237,-2.5888,-2.5888,-2.5735,-2.5447,-2.5447,-2.5488,-2.5547,-2.5547,-2.557,-2.5637,-2.5683,-2.5703,-2.5703,-2.5703,-2.5703,-2.5703,-2.5703,-2.5703,-2.5703,-2.5703,-2.5683,-2.566,-2.566,-2.5607,-2.5561,-2.5603,-2.5595,-2.5558,-2.5558,-2.5558,-2.5558,-2.5558,-2.5558,-2.5564,-2.5605,-2.5629,-2.5629,-2.5629,-2.5629,-2.5611,-2.5659,-2.566,-2.5661,-2.5683,-2.5703,-2.5703,-2.5703,-2.5703,-2.5683,-2.5661,-2.566,-2.5662,-2.5703,-2.5703,-2.5703,-2.5703,-2.5703,-2.5703,-2.5703,-2.5703,-2.5703,-2.5703,-2.5703,-2.5703,-2.5703,-2.5703,-2.5703,-2.5703,-2.5703,-2.5879,-2.623,-2.5836,-2.6028,-2.6731,-2.7206,-2.7627,-2.3837,-2.4357,-2.4648,-2.5255,-2.7264,-2.9171,-2.9414,-2.941,-2.9611,-3.0579,-3.0016,-2.9252,-2.8913,-2.7999,-2.7596,-2.8459,-2.7143,-2.6038,-2.6198,-2.5399,-2.4804,-2.4804,-2.4804,-2.4902,-2.5138,-2.5192,-2.5214,-2.5214,-2.5264,-2.5303,-2.5303,-2.5303,-2.5303,-2.5303,-2.5303,-2.5303,-2.5303,-2.5303,-2.5321,-2.5368,-2.5368,-2.542,-2.5463,-2.5484,-2.5535,-2.559,-2.5637,-2.5662,-2.5662,-2.5683,-2.5703,-2.5703,-2.5703,-2.5703,-2.5703,-2.5703,-2.5703,-2.5703,-2.5703,-2.5662,-2.5634,-2.5683,-2.5662,-2.5633,-2.5633,-2.5633,-2.5633,-2.5633,-2.5633,-2.5636,-2.5683,-2.5703,-2.5703,-2.5703,-2.5703,-2.5703,-2.5703,-2.5703,-2.5703,-2.5703,-2.5703,-2.5683,-2.5682,-2.5662,-2.5661,-2.5658,-2.5637,-2.566,-2.5703,-2.5683,-2.5662,-2.5662,-2.5659,-2.5637,-2.5637,-2.5637,-2.5637,-2.5637,-2.5637,-2.5637,-2.5637,-2.5637,-2.5637,-2.5637,-2.5637,-2.5637,-2.5637,-2.5601,-2.5567,-2.5587,-2.6411,-2.6792,-2.3844,-2.4726,-2.5335,-2.5615,-2.5771,-2.5859,-2.5868,-2.5658,-2.6418,-2.9723,-2.7791,-2.536,-2.5032,-2.625,-2.732,-2.7358,-2.659,-2.5993,-2.6008,-2.5314,-2.4804,-2.4804,-2.4804,-2.4804,-2.4818,-2.4943,-2.501,-2.501,-2.5203,-2.5303,-2.5303,-2.5303,-2.5303,-2.5303,-2.5303,-2.5303,-2.5303,-2.5303,-2.5313,-2.5293,-2.5293,-2.5339,-2.5406,-2.5477,-2.5493,-2.5517,-2.5567,-2.5603,-2.5605,-2.5662,-2.5703,-2.5703,-2.5703,-2.5703,-2.5703,-2.5703,-2.5703,-2.5703,-2.5703,-2.5703,-2.5703,-2.5703,-2.5703,-2.5703,-2.5703,-2.5703,-2.5703,-2.5703,-2.5703,-2.5703,-2.5703,-2.5703,-2.5703,-2.5703,-2.5703,-2.5703,-2.5703,-2.5703,-2.5703,-2.5703,-2.5703,-2.5683,-2.5607,-2.5603,-2.5573,-2.5526,-2.5517,-2.5554,-2.5683,-2.5637,-2.5603,-2.5603,-2.5547,-2.5517,-2.5517,-2.5517,-2.5517,-2.5517,-2.5517,-2.5517,-2.5517,-2.5517,-2.5517,-2.5517,-2.5517,-2.5517,-2.5517,-2.5493,-2.5493,-2.5513,-2.6393,-2.6779,-2.3858,-2.4878,-2.5584,-2.568,-2.5564,-2.5434,-2.5421,-2.5356,-2.5628,-2.6771,-2.5711,-2.4404,-2.3832,-2.4548,-2.5431,-2.601,-2.5369,-2.4834,-2.4987,-2.4662,-2.441,-2.441,-2.4874,-2.5208,-2.5208,-2.5001,-2.4869,-2.4869,-2.4923,-2.5012,-2.5099,-2.5099,-2.5163,-2.5303,-2.5303,-2.5303,-2.5303,-2.5303,-2.5303,-2.5303,-2.5303,-2.5313,-2.533,-2.5394,-2.5434,-2.5434,-2.5493,-2.552,-2.5543,-2.5605,-2.5634,-2.5636,-2.5683,-2.5703,-2.5703,-2.5703,-2.5703,-2.5703,-2.5703,-2.5703,-2.5703,-2.5703,-2.5703,-2.5703,-2.5703,-2.5703,-2.5703,-2.5703,-2.5703,-2.5703,-2.5703,-2.5703,-2.5703,-2.5703,-2.5703,-2.5703,-2.5703,-2.5661,-2.5634,-2.5634,-2.5601,-2.5558,-2.5543,-2.552,-2.5535,-2.5493,-2.5493,-2.5526,-2.5561,-2.5551,-2.552,-2.552,-2.5503,-2.5493,-2.5493,-2.5493,-2.5493,-2.5493,-2.5493,-2.5493,-2.5493,-2.5493,-2.5493,-2.5493,-2.5493,-2.5493,-2.5493,-2.5465,-2.5434,-2.5447,-2.5681,-2.5779,-2.0166,-2.4326,-2.5236,-2.5501,-2.5439,-2.5229,-2.4975,-2.4904,-2.4988,-2.5249,-2.4348,-2.3473,-2.3235,-2.3491,-2.3949,-2.4575,-2.4217,-2.3881,-2.4023,-2.3903,-2.3837,-2.3837,-2.4544,-2.4994,-2.4994,-2.5034,-2.5189,-2.5536,-2.5348,-2.5267,-2.5354,-2.5082,-2.4981,-2.5115,-2.5126,-2.5126,-2.5126,-2.5126,-2.5149,-2.5184,-2.5264,-2.5303,-2.5313,-2.5337,-2.5371,-2.5371,-2.5434,-2.5451,-2.5482,-2.5543,-2.5561,-2.5564,-2.5607,-2.5633,-2.5633,-2.5633,-2.5633,-2.5634,-2.5659,-2.5661,-2.566,-2.5634,-2.5637,-2.5661,-2.5661,-2.5683,-2.5703,-2.5703,-2.5683,-2.5662,-2.5683,-2.5683,-2.5662,-2.5683,-2.5683,-2.5661,-2.5661,-2.5607,-2.5561,-2.5561,-2.5535,-2.5484,-2.5477,-2.5447,-2.5428,-2.5428,-2.5428,-2.5447,-2.5484,-2.5488,-2.5451,-2.5451,-2.5447,-2.5428,-2.5428,-2.5428,-2.5428,-2.5428,-2.5428,-2.5428,-2.5428,-2.5428,-2.5428,-2.5428,-2.5428,-2.5428,-2.5428,-2.5383,-2.5371,-2.5363,-2.5322,-2.5303,-1.2719,-2.2356,-2.3855,-2.4777,-2.5077,-2.4965,-2.4261,-2.4095,-2.428,-2.489,-2.3529,-2.2404,-2.297,-2.3003,-2.2994,-2.3135,-2.3194,-2.3218,-2.3194,-2.3159,-2.3147,-2.3165,-2.383,-2.4282,-2.4307,-2.5023,-2.587,-2.6764,-2.6276,-2.5938,-2.5988,-2.5227,-2.479,-2.4804,-2.4804,-2.4804,-2.4804,-2.4804,-2.485,-2.4998,-2.5192,-2.5274,-2.5274,-2.5274,-2.5274,-2.5284,-2.5335,-2.5364,-2.5386,-2.5451,-2.5484,-2.5508,-2.5508,-2.5493,-2.5493,-2.5493,-2.5493,-2.5517,-2.5564,-2.5598,-2.5573,-2.5531,-2.5547,-2.5598,-2.5598,-2.5636,-2.5683,-2.5683,-2.5637,-2.5605,-2.5662,-2.5637,-2.5605,-2.5662,-2.5636,-2.5598,-2.5576,-2.5524,-2.5484,-2.5484,-2.5479,-2.5477,-2.5406,-2.532,-2.5274,-2.5274,-2.5274,-2.532,-2.5463,-2.5428,-2.5391,-2.5379,-2.5311,-2.5274,-2.5264,-2.5264,-2.5264,-2.5264,-2.5264,-2.5264,-2.5264,-2.5264,-2.5264,-2.5264,-2.5264,-2.5264,-2.5264,-2.5264,-2.5264,-2.5264,-2.5264,-2.5264,-0.1207,-1.0622,-1.6653,-2.0235,-2.2079,-2.3009,-2.2836,-2.279,-2.2462,-2.1353,-2.1256,-2.1317,-2.1282,-2.2493,-2.3308,-2.2702,-2.3134,-2.3423,-2.3038,-2.2532,-2.2366,-2.2718,-2.3441,-2.4033,-2.4332,-2.509,-2.5661,-2.5913,-2.5415,-2.5293,-2.5741,-2.5007,-2.4639,-2.479,-2.4804,-2.4804,-2.4804,-2.4804,-2.4818,-2.4855,-2.5005,-2.5088,-2.5088,-2.5088,-2.5088,-2.5077,-2.4993,-2.501,-2.5116,-2.5167,-2.5287,-2.5434,-2.5473,-2.5493,-2.5493,-2.5493,-2.5493,-2.5503,-2.5465,-2.5473,-2.5511,-2.5517,-2.5503,-2.5535,-2.5535,-2.5543,-2.5554,-2.5554,-2.5543,-2.5535,-2.5551,-2.5543,-2.5535,-2.5551,-2.5543,-2.5483,-2.5335,-2.5251,-2.52,-2.52,-2.5269,-2.5357,-2.5321,-2.5194,-2.5088,-2.5088,-2.4981,-2.5037,-2.5311,-2.5339,-2.5265,-2.5116,-2.5091,-2.503,-2.4942,-2.4942,-2.4942,-2.4942,-2.4942,-2.4942,-2.4942,-2.4942,-2.4942,-2.4942,-2.4942,-2.4942,-2.4942,-2.4942,-2.4942,-2.4942,-2.4942,-2.4942,0.8915,0.2056,-0.4612,-0.9781,-1.376,-1.6692,-1.7899,-1.9741,-2.0879,-1.9892,-2.0078,-2.0455,-2.0568,-2.1875,-2.2784,-2.2297,-2.2879,-2.3298,-2.298,-2.2355,-2.2046,-2.2316,-2.2757,-2.3144,-2.3363,-2.4103,-2.4677,-2.5035,-2.4807,-2.4779,-2.5129,-2.4365,-2.4043,-2.4317,-2.4317,-2.4388,-2.4545,-2.4623,-2.467,-2.467,-2.4823,-2.4917,-2.4917,-2.4917,-2.4917,-2.4917,-2.4828,-2.4842,-2.493,-2.496,-2.5023,-2.5157,-2.5241,-2.5282,-2.529,-2.5386,-2.5401,-2.5413,-2.5371,-2.5376,-2.5401,-2.5401,-2.5428,-2.5459,-2.5465,-2.5488,-2.5493,-2.5493,-2.5488,-2.5451,-2.5484,-2.5488,-2.544,-2.5387,-2.5357,-2.5263,-2.508,-2.4982,-2.4977,-2.4977,-2.5034,-2.508,-2.508,-2.5,-2.4917,-2.4917,-2.4855,-2.4874,-2.5068,-2.508,-2.5037,-2.493,-2.4917,-2.4877,-2.4804,-2.4804,-2.4804,-2.4804,-2.4804,-2.4804,-2.4804,-2.4804,-2.4804,-2.4804,-2.4804,-2.4804,-2.4804,-2.4804,-2.4804,-2.4804,-2.4804,-2.4804,1.6082,1.2147,0.6886,0.1837,-0.3552,-0.8372,-1.1145,-1.5421,-1.8869,-1.917,-1.9371,-1.961,-2.0055,-2.1085,-2.1834,-2.185,-2.2465,-2.2938,-2.2954,-2.2359,-2.1954,-2.1911,-2.1963,-2.1983,-2.1969,-2.2549,-2.321,-2.391,-2.3994,-2.4151,-2.4382,-2.3655,-2.3346,-2.361,-2.3631,-2.3774,-2.4074,-2.4248,-2.4337,-2.4337,-2.4519,-2.4644,-2.4678,-2.4678,-2.4712,-2.476,-2.4731,-2.4731,-2.476,-2.476,-2.4775,-2.4818,-2.4943,-2.4974,-2.4986,-2.5171,-2.5243,-2.5264,-2.5264,-2.5274,-2.5303,-2.5303,-2.5339,-2.5403,-2.5391,-2.5428,-2.5463,-2.5463,-2.5434,-2.5386,-2.5434,-2.5388,-2.5321,-2.5178,-2.51,-2.5009,-2.4803,-2.4761,-2.476,-2.476,-2.479,-2.4804,-2.4804,-2.4775,-2.476,-2.476,-2.4746,-2.4716,-2.4716,-2.4775,-2.479,-2.476,-2.476,-2.4746,-2.4731,-2.4716,-2.4716,-2.4716,-2.4716,-2.4716,-2.4716,-2.4716,-2.4716,-2.4716,-2.4716,-2.4716,-2.4716,-2.4716,-2.4716,-2.4716,-2.4716,-2.4716,1.406,0.9089,0.4379,0.3847,0.1072,-0.2324,-0.5277,-1.0183,-1.4597,-1.6494,-1.7679,-1.8254,-1.7863,-1.9498,-2.0976,-2.1053,-2.1949,-2.2627,-2.2717,-2.2158,-2.166,-2.1435,-2.1428,-2.1384,-2.1198,-2.1327,-2.144,-2.1584,-2.1903,-2.2767,-2.4339,-2.3655,-2.323,-2.3282,-2.33,-2.3305,-2.3369,-2.3419,-2.3441,-2.3424,-2.3635,-2.3875,-2.4155,-2.4155,-2.4299,-2.4526,-2.4375,0.0,-2.4543,-2.4543,-2.4654,-2.4804,-2.4832,-2.4828,-2.4842,-2.4869,-2.4962,-2.5046,-2.5046,-2.5163,-2.5303,-2.5303,-2.5303,-2.5322,-2.5322,-2.534,-2.533,-2.533,-2.534,-2.5284,-2.5126,-2.5083,-2.5038,-2.4905,-2.4858,-2.4809,-2.4601,-2.454,-2.4543,-2.4543,-2.4685,-2.4804,-2.4804,-2.4654,-2.4543,-2.4543,-2.441,-2.4303,-2.4303,-2.4591,-2.4731,-2.4559,-2.4543,-2.4478,-2.4321,-2.4303,-2.4303,-2.4303,-2.4303,-2.4303,-2.4303,-2.4303,-2.4303,-2.4303,-2.4303,-2.4303,-2.4303,-2.4303,-2.4303,-2.4303,-2.4303,-2.4303,1.2459,0.8543,0.5211,0.4668,0.3409,0.1567,-0.1461,-0.664,-1.1472,-1.403,-1.497,-1.5659,-1.6565,-1.819,-1.9404,-1.9331,-2.0651,-2.1656,-2.1629,-2.1657,-2.1532,-2.1111,-2.1021,-2.0795,-2.0379,-2.0323,-2.0398,-2.0616,-2.0797,-2.1511,-2.2873,-2.2937,-2.2947,-2.2947,-2.3117,-2.3189,-2.3189,-2.3189,-2.3189,-2.3189,-2.3298,-2.3414,-2.3602,-2.3767,-2.3846,-2.3826,-2.3919,-2.3901,-2.3808,-2.3808,-2.3888,-2.3988,-2.4081,-2.4225,-2.44,-2.4495,-2.47,-2.4891,-2.4891,-2.4962,-2.5043,-2.5043,-2.5084,-2.513,-2.5049,-2.5043,-2.5043,-2.5043,-2.5043,-2.5012,-2.4917,-2.4891,-2.485,-2.4666,-2.4559,-2.4461,-2.4357,-2.4339,-2.4303,-2.4117,-2.4155,-2.4174,-2.3988,-2.3908,-2.3808,-2.3808,-2.3901,-2.3937,-2.3937,-2.4099,-2.4247,-2.4339,-2.4339,-2.4303,-2.4209,-2.4036,-2.3937,-2.3937,-2.3774,-2.3671,-2.3671,-2.3671,-2.3671,-2.3671,-2.3671,-2.3774,-2.3937,-2.3937,-2.4016,-2.4208,-2.4016,-2.3937,1.1276,0.9051,0.7334,0.5795,0.4944,0.3687,0.0703,-0.4066,-0.8682,-1.1474,-1.2163,-1.2947,-1.5116,-1.6573,-1.7492,-1.7675,-1.9152,-2.0368,-2.0766,-2.1184,-2.1324,-2.0988,-2.0711,-2.0269,-1.9589,-1.942,-1.9536,-1.9954,-2.0177,-2.0634,-2.143,-2.2029,-2.2334,-2.2334,-2.266,-2.2813,-2.272,-2.2813,-2.2813,-2.272,-2.2813,-2.2905,-2.2979,-2.3346,-2.3392,-2.3212,-2.3477,-2.3437,-2.3189,-2.3189,-2.3189,-2.3212,-2.3374,-2.3611,-2.3871,-2.4081,-2.4381,-2.4632,-2.4632,-2.4663,-2.4674,-2.4564,-2.4728,-2.4943,-2.4828,-2.4804,-2.4804,-2.4804,-2.4756,-2.4674,-2.4648,-2.4582,-2.4484,-2.4264,-2.4097,-2.3996,-2.3996,-2.3996,-2.3917,-2.3631,-2.3588,-2.3522,-2.3253,-2.3189,-2.3189,-2.3189,-2.3414,-2.3588,-2.3588,-2.3588,-2.3692,-2.3976,-2.3996,-2.3996,-2.3996,-2.3735,-2.3588,-2.3588,-2.3346,-2.3189,-2.3189,-2.3189,-2.3189,-2.3189,-2.3189,-2.3346,-2.3588,-2.3588,-2.3714,-2.3976,-2.3714,-2.3588,1.0853,1.0166,0.9758,0.8658,0.6415,0.369,0.0705,-0.2537,-0.5695,-0.86,-0.9728,-1.0778,-1.2743,-1.4079,-1.5352,-1.6919,-1.7738,-1.8958,-2.1118,-2.1014,-2.0925,-2.1465,-2.0623,-1.9697,-1.9059,-1.8531,-1.8444,-1.8991,-1.9814,-2.0516,-2.1023,-2.1118,-2.1165,-2.1165,-2.1535,-2.1565,-2.1228,-2.1565,-2.1565,-2.1228,-2.1565,-2.1903,-2.2218,-2.2626,-2.2947,-2.3189,-2.3236,-2.3212,0.0,-2.3189,-2.3189,-2.3189,-2.3236,-2.3259,-2.331,-2.3635,-2.3906,-2.4063,-2.4063,-2.419,-2.4273,-2.378,-2.4171,-2.4818,-2.4804,-2.4804,-2.4804,-2.4804,-2.4576,-2.4309,-2.4137,-2.3836,-2.3575,-2.3361,-2.3305,-2.33,-2.33,-2.33,-2.3282,-2.3236,-2.3253,-2.3253,-2.3212,-2.3189,-2.3189,-2.3189,-2.323,-2.3253,-2.3253,-2.3253,-2.3259,-2.33,-2.33,-2.33,-2.33,-2.3259,-2.3253,-2.3253,-2.323,-2.3189,-2.3189,-2.3189,-2.3189,-2.3189,-2.3189,-2.323,-2.3253,-2.3253,-2.3259,-2.33,-2.3259,-2.3253,1.2423,1.1846,1.1348,0.9298,0.7959,0.6338,0.3392,-0.1035,-0.519,-0.752,-0.8639,-0.9754,-1.1575,-1.2759,-1.3758,-1.4573,-1.5939,-1.7266,-1.8356,-1.9203,-1.9803,-1.9863,-2.0038,-1.9834,-1.9057,-1.8711,-1.8533,-1.8447,-1.8774,-1.9207,-1.9707,-2.0534,-2.0991,-2.0991,-2.115,-2.115,-2.0991,-2.115,-2.115,-2.0991,-2.115,-2.1321,-2.1442,-2.1824,-2.195,-2.1881,-2.2101,-2.2201,0.0,-2.1967,-2.2169,-2.2634,-2.2351,-2.2521,-2.2923,-2.3045,-2.3287,-2.3516,-2.3516,-2.3566,-2.3611,-2.3392,-2.3545,-2.3832,-2.3832,-2.3832,-2.3832,-2.3832,-2.3753,-2.3611,-2.3541,-2.341,-2.3298,-2.3236,-2.3189,-2.3189,-2.3189,-2.301,-2.2853,-2.288,-2.2686,-2.2574,-2.2643,-2.266,-2.266,-2.266,-2.2807,-2.2898,-2.2898,-2.2898,-2.2898,-2.2898,-2.3069,-2.3189,-2.3189,-2.3021,-2.2898,-2.2898,-2.2747,-2.266,-2.266,-2.266,-2.266,-2.266,-2.266,-2.2747,-2.2898,-2.2898,-2.2996,-2.3189,-2.2996,-2.2898,1.3367,1.2924,1.2444,1.0491,0.9393,0.7586,0.2905,-0.1097,-0.457,-0.7119,-0.7864,-0.8665,-1.0654,-1.166,-1.2323,-1.2565,-1.431,-1.5786,-1.6343,-1.7696,-1.8679,-1.8948,-1.9371,-1.937,-1.8659,-1.8491,-1.8276,-1.7894,-1.8027,-1.8263,-1.865,-1.9591,-2.02,-2.0366,-2.0649,-2.0649,-2.0366,-2.0649,-2.0649,-2.04,-2.0649,-2.0715,-2.0601,-2.1117,-2.1227,-2.1023,-2.1258,-2.1381,0.0,-2.1118,-2.1354,-2.1886,-2.1538,-2.1728,-2.2207,-2.2317,-2.2487,-2.2694,-2.2694,-2.277,-2.2838,-2.2617,-2.2617,-2.2712,-2.2591,-2.2863,-2.3189,-2.3189,-2.3028,-2.2838,-2.2737,-2.2635,-2.2565,-2.2565,-2.2565,-2.2565,-2.2565,-2.2319,-2.2139,-2.2207,-2.1955,-2.1816,-2.1899,-2.1915,-2.1915,-2.1915,-2.2079,-2.218,-2.218,-2.2307,-2.2361,-2.2361,-2.2712,-2.2933,-2.2933,-2.273,-2.2573,-2.2573,-2.2398,-2.231,-2.231,-2.231,-2.2237,-2.2106,-2.2106,-2.2169,-2.2361,-2.2361,-2.2565,-2.2933,-2.2678,-2.2573,1.289,1.2876,1.2889,1.2859,1.0798,0.6485,-0.2411,-0.3262,-0.3294,-0.7084,-0.7223,-0.735,-0.9861,-1.0601,-1.0988,-1.1414,-1.2984,-1.4606,-1.6118,-1.6835,-1.7807,-1.951,-1.8766,-1.8025,-1.7739,-1.7471,-1.7312,-1.7312,-1.7787,-1.8106,-1.8106,-1.8131,-1.8366,-1.8893,-1.9814,-1.9849,-1.893,-1.9849,-1.9849,-1.893,-1.9849,-2.0058,-1.9641,-2.0567,-2.0991,-2.0991,-2.0991,-2.1007,0.0,-2.0991,-2.1007,-2.0991,-2.1007,-2.0991,-2.1055,-2.1409,-2.1497,-2.1526,-2.1526,-2.1778,-2.1984,-2.1243,-2.1275,-2.1552,-2.115,-2.2035,-2.3189,-2.3189,-2.2686,-2.204,-2.1685,-2.1337,-2.1023,-2.1023,-2.1023,-2.1023,-2.1023,-2.1023,-2.1023,-2.1023,-2.0991,-2.0991,-2.0991,-2.0991,-2.0991,-2.0991,-2.1023,-2.1023,-2.1023,-2.1368,-2.1612,-2.1612,-2.2032,-2.231,-2.231,-2.231,-2.231,-2.231,-2.231,-2.231,-2.231,-2.231,-2.2077,-2.1628,-2.1628,-2.1628,-2.1612,-2.1612,-2.1853,-2.231,-2.231,-2.231,1.059,1.0093,1.0095,1.0098,0.7978,0.4041,-0.2909,-0.411,-0.4556,-0.7332,-0.7408,-0.7505,-0.9205,-1.0063,-1.0647,-1.1267,-1.2768,-1.4315,-1.5445,-1.6602,-1.7521,-1.7945,-1.729,-1.6748,-1.6701,-1.5975,-1.5531,-1.5531,-1.5684,-1.5922,-1.6316,-1.6316,-1.6959,-1.8288,-1.8622,-1.866,-1.838,-1.866,-1.866,-1.838,-1.866,-1.8736,-1.8584,-1.8858,-1.9008,-1.9008,-1.9008,-1.9214,-1.9489,-1.9534,-1.9924,-2.0454,-2.0501,-2.0715,-2.1023,-2.1134,-2.1149,-2.1149,-2.1149,-2.1243,-2.1305,-2.1086,-2.0846,-2.0636,-2.0505,-2.1053,-2.1694,-2.1694,-2.1532,-2.1305,-2.1213,-2.1103,-2.0991,-2.0991,-2.0991,-2.0991,-2.0991,-2.0764,-2.0616,-2.0926,-2.0748,-2.0616,-2.0926,-2.0991,-2.0991,-2.0991,-2.0991,-2.0991,-2.0991,-2.1118,-2.1181,-2.1181,-2.1323,-2.1661,-2.2254,-2.2003,-2.1823,-2.1823,-2.1568,-2.1415,-2.1415,-2.1415,-2.1354,-2.1181,-2.1181,-2.1181,-2.1181,-2.1181,-2.126,-2.1415,-2.1415,-2.1415,0.9264,0.8799,0.8541,0.7429,0.5851,0.3224,-0.1704,-0.3671,-0.4927,-0.6543,-0.6989,-0.7483,-0.8819,-0.9791,-1.0516,-1.069,-1.2246,-1.3742,-1.4591,-1.5983,-1.6944,-1.7235,-1.6549,-1.5992,-1.5992,-1.52,-1.4698,-1.4698,-1.4698,-1.4869,-1.5184,-1.5184,-1.5704,-1.6777,-1.745,-1.7666,-1.7464,-1.7666,-1.776,-1.7787,-1.776,-1.776,-1.7827,-1.8027,-1.7973,-1.7746,-1.7746,-1.7785,0.0,-1.7917,-1.8264,-1.8708,-1.8751,-1.8973,-1.9212,-1.9212,-1.9212,-1.9212,-1.9212,-1.934,-1.9481,-1.9521,-1.9358,-1.9038,-1.8796,-1.9527,-2.0438,-2.0635,-2.0585,-2.0434,-2.0218,-2.02,-2.0147,-1.9943,-2.0062,-2.023,-2.023,-2.0143,-2.0158,-2.0431,-2.0108,-1.9919,-2.0431,-2.0348,-2.0265,-2.0465,-2.0514,-2.0514,-2.0514,-2.0632,-2.0731,-2.0731,-2.0894,-2.1229,-2.1751,-2.1538,-2.1368,-2.1368,-2.115,-2.0991,-2.0991,-2.0991,-2.0926,-2.0731,-2.0731,-2.0731,-2.0731,-2.0926,-2.0991,-2.0991,-2.0991,-2.0991,0.0,0.8665,0.7872,0.5186,0.4365,0.3427,0.0664,-0.2284,0.0,-0.4988,-0.6186,-0.7491,-0.8586,-0.9787,-1.0451,-0.9883,-1.1481,-1.3059,-1.3752,-1.5085,-1.6269,-1.7089,-1.6236,-1.5543,-1.5533,-1.4913,-1.456,-1.456,-1.456,-1.456,-1.456,-1.456,-1.456,-1.456,-1.6114,-1.6722,-1.6293,-1.6777,-1.704,-1.7092,-1.704,-1.704,-1.7133,-1.7653,-1.7531,-1.7014,-1.7014,-1.6683,-1.6168,-1.6253,-1.6253,-1.6253,-1.6283,-1.6283,-1.6283,-1.6283,-1.6283,-1.6283,-1.6283,-1.6542,-1.6888,-1.7031,-1.7083,-1.6988,-1.6435,-1.7661,-1.9349,-1.9852,-1.9738,-1.939,-1.8867,-1.8797,-1.8727,-1.8224,-1.8496,-1.8855,-1.8855,-1.9244,-1.9603,-1.9603,-1.9169,-1.9006,-1.9479,-1.9169,-1.9006,-1.953,-1.9603,-1.9603,-1.9603,-1.9914,-2.0162,-2.0212,-2.0583,-2.0862,-2.0894,-2.0926,-2.0959,-2.0959,-2.0926,-2.091,-2.091,-2.091,-2.0698,-2.028,-2.0246,-2.0246,-2.0246,-2.0682,-2.091,-2.091,-2.091,-2.091,0.8823,0.0,0.5325,0.4692,0.2768,0.089,0.0,-0.1874,-0.3785,-0.4639,-0.6241,-0.7801,-0.865,-0.9611,-1.0336,-1.0672,-1.1688,-1.2938,-1.4272,-1.5676,-1.6284,-1.5585,-1.4888,-1.4214,-1.3606,-1.3408,-1.3334,-1.3334,-1.3334,-1.3334,-1.3334,-1.3334,-1.3334,-1.3334,-1.4168,-1.4744,-1.5096,-1.5207,-1.5297,-1.5309,-1.5297,-1.5297,-1.5309,-1.5431,-1.5419,-1.5297,-1.5297,-1.5207,-1.5106,-1.5536,-1.57,-1.5743,-1.6126,-1.6283,-1.6283,-1.6283,-1.6283,-1.6283,-1.6283,-1.6355,-1.6384,-1.6034,-1.5886,-1.5886,-1.5743,-1.6658,-1.7731,-1.7889,-1.8179,-1.843,-1.8313,-1.8288,-1.8263,-1.8145,-1.8224,-1.8302,-1.8302,-1.838,-1.8496,-1.8496,-1.838,-1.8341,-1.8458,-1.838,-1.8341,-1.8458,-1.8496,-1.8496,-1.8496,-1.8559,-1.8774,-1.9214,-1.931,-1.9579,-1.998,-2.0296,-2.0449,-2.0449,-2.0174,-2.0015,-2.0015,-2.0015,-1.9945,-1.9839,-1.9839,-1.9839,-1.9839,-1.9945,-2.0015,-2.0015,-2.0015,-2.0015,0.6827,0.5678,0.4166,0.2772,0.1194,-0.0171,-0.0855,-0.2198,-0.3592,-0.4686,-0.6397,-0.7959,-0.8896,-0.985,-1.0621,-1.0942,-1.2011,-1.3253,-1.4492,-1.5178,-1.526,-1.4662,-1.3987,-1.3348,-1.2779,-1.2849,-1.2618,-1.1999,-1.2197,-1.2246,-1.194,-1.195,-1.195,-1.195,-1.2258,-1.287,-1.3831,-1.3831,-1.3971,-1.425,-1.3971,-1.3971,-1.425,-1.425,-1.3903,-1.3318,-1.3318,-1.3185,-1.2946,-1.3229,-1.3351,-1.3387,-1.3672,-1.379,-1.379,-1.379,-1.379,-1.379,-1.379,-1.3974,-1.4122,-1.3518,-1.3528,-1.3772,-1.3793,-1.4461,-1.5357,-1.6175,-1.6847,-1.7218,-1.6663,-1.6915,-1.7177,-1.6663,-1.6957,-1.73,-1.73,-1.7504,-1.7706,-1.7706,-1.7274,-1.7055,-1.7612,-1.7464,-1.7518,-1.8013,-1.8106,-1.8106,-1.8106,-1.8106,-1.8224,-1.8496,-1.8535,-1.865,-1.893,-1.9148,-1.9405,-1.9636,-1.9449,-1.9207,-1.8968,-1.9207,-1.9442,-1.969,-1.969,-1.969,-1.969,-1.969,-1.969,-1.969,-1.969,-1.969,0.379,0.3835,0.3215,0.0639,-0.0175,-0.0704,-0.1993,-0.2828,-0.3693,-0.4884,-0.6392,-0.7928,-0.9151,-1.0033,-1.0672,-1.0983,-1.2283,-1.3523,-1.4263,-1.4164,-1.3992,-1.3786,-1.3182,-1.2599,-1.2219,-1.2397,-1.2098,-1.0864,-1.1316,-1.1416,-1.0813,-1.0813,-1.0813,-1.0813,-1.0813,-1.1299,-1.2327,-1.2425,-1.2754,-1.326,-1.2764,-1.2754,-1.327,-1.327,-1.2638,-1.1563,0.0,0.0,-1.0813,-1.0813,-1.0712,-1.0653,-1.0653,-1.0594,-1.0493,-1.0602,-1.0551,-1.0493,-1.0602,-1.1032,-1.1472,-1.0956,-1.114,-1.1571,-1.1657,-1.2043,-1.2792,-1.4347,-1.546,-1.5915,-1.496,-1.5443,-1.5915,-1.4915,-1.5443,-1.612,-1.612,-1.6481,-1.6806,-1.6806,-1.6028,-1.568,-1.6667,-1.6439,-1.6464,-1.7423,-1.7585,-1.7585,-1.7585,-1.7585,-1.7639,-1.78,-1.7854,-1.7894,-1.8106,-1.8106,-1.8263,-1.8612,-1.8727,-1.8574,-1.8145,-1.8535,-1.9006,-1.9442,-1.9442,-1.9442,-1.9442,-1.9442,-1.9442,-1.9442,-1.9442,-1.9442,0.069,0.0714,0.0602,0.0114,-0.092,-0.1999,-0.253,-0.3179,-0.3994,-0.504,-0.6085,-0.7451,-0.9274,-0.9086,-0.9243,-1.1044,-1.2248,-1.2991,-1.2983,-1.3403,-1.3222,-1.19,-1.1922,-1.1707,-1.0717,-1.0933,-1.1023,-1.0813,-1.0914,-1.0914,-1.0813,-1.0813,-1.0813,-1.0813,-1.0813,-1.061,-1.0261,-1.0805,-1.1157,-1.1249,-1.1157,-1.1157,-1.1249,-1.1249,-1.1149,-1.0956,0.0,-1.0906,-1.0813,-1.0813,-1.0434,-0.9893,-0.9893,-0.9519,-0.9092,-0.968,-0.9519,-0.9092,-0.968,-1.0316,-1.0906,-1.0813,-1.0864,-1.0956,-1.0965,-1.1015,-1.1149,-1.1431,-1.3165,-1.4915,-1.4744,-1.4835,-1.4915,-1.4744,-1.4835,-1.496,-1.496,-1.505,-1.5084,-1.5084,-1.4949,-1.4869,-1.5039,-1.5005,-1.5005,-1.5219,-1.5207,-1.5207,-1.5207,-1.5207,-1.5596,-1.6549,-1.6676,-1.7053,-1.8013,-1.8106,-1.7947,-1.7585,-1.7987,-1.8185,-1.8106,-1.8185,-1.8263,-1.8341,-1.8341,-1.8341,-1.8341,-1.8341,-1.8341,-1.8341,-1.8341,-1.8341,0.0,0.0,0.0,0.0,-0.0536,-0.1544,-0.3459,-0.3802,-0.4096,-0.5601,-0.633,-0.7302,-0.9331,-0.9423,-0.9978,-1.2305,-1.2459,-1.2434,-1.2736,-1.2333,-1.1757,-1.1033,-1.1,-1.0771,-1.0075,-1.051,-1.0517,-0.9762,-1.0064,-1.0115,-0.9762,-0.971,-0.971,-0.971,-0.971,-0.9399,-0.8666,-0.8967,-0.9481,-1.0261,-0.9835,-0.9666,-0.9666,-0.9238,-0.8874,-0.8521,0.0,-0.8521,-0.8521,-0.8521,-0.8311,-0.8035,-0.8035,-0.7823,-0.7611,-0.7935,-0.7823,-0.7611,-0.7929,-0.8252,-0.858,-0.9006,-0.9117,-0.9273,-1.0005,-1.0261,-1.0364,-1.0712,-1.1877,-1.2974,-1.2657,-1.284,-1.308,-1.311,-1.3396,-1.3784,-1.4143,-1.419,-1.419,-1.419,-1.3978,-1.3836,-1.4154,-1.419,-1.4329,-1.4652,-1.4698,-1.4698,-1.4698,-1.4698,-1.4915,-1.5443,-1.5487,-1.5828,-1.6676,-1.676,-1.6899,-1.7271,-1.7271,-1.7394,-1.7666,-1.7666,-1.7787,-1.8106,-1.8106,-1.8106,-1.8106,-1.8106,-1.8106,-1.8106,-1.8106,-1.8106,0.0,0.0,0.0,0.0,-0.0612,-0.1899,-0.4461,-0.4513,-0.444,-0.5959,-0.6354,-0.7082,-0.9014,-0.9793,-1.0645,-1.2271,-1.2104,-1.1915,-1.2343,-1.129,-1.0479,-1.0372,-1.0188,-0.9919,-0.9598,-1.0012,-0.9806,-0.8639,-0.904,-0.8981,-0.8315,-0.8262,-0.8262,-0.8262,-0.8262,-0.799,-0.7456,-0.745,-0.7978,-0.902,-0.8482,-0.8212,-0.8212,-0.7617,-0.7101,-0.6588,-0.6588,-0.6588,-0.6588,-0.6588,-0.648,-0.6367,-0.6367,-0.6367,-0.6312,-0.615,-0.6317,-0.6588,-0.6421,-0.648,-0.6696,-0.7235,-0.745,-0.7664,-0.8705,-0.9183,-0.9392,-0.9946,-1.0535,-1.0981,-1.0855,-1.114,-1.1522,-1.1557,-1.1944,-1.2483,-1.2976,-1.3226,-1.3331,-1.3331,-1.2977,-1.2861,-1.3457,-1.3437,-1.3569,-1.4201,-1.4294,-1.4294,-1.4294,-1.4294,-1.434,-1.4468,-1.4468,-1.4744,-1.532,-1.5543,-1.5928,-1.6659,-1.6582,-1.668,-1.7118,-1.7118,-1.7312,-1.7706,-1.7747,-1.7747,-1.7747,-1.7855,-1.7923,-1.7923,-1.7923,-1.7923,0.0,0.0,0.0,0.0,-0.2527,-0.5051,-0.5336,-0.5308,-0.5373,-0.5693,-0.5806,-0.6361,-0.7991,-0.9308,-0.9829,-0.9087,-1.0345,-1.1263,-1.083,-1.0409,-0.9927,-0.9395,-0.9307,-0.918,-0.8884,-0.891,-0.8639,-0.783,-0.783,-0.7557,-0.6804,-0.675,-0.675,-0.675,-0.675,-0.675,-0.6696,-0.6696,-0.675,-0.6853,-0.6799,-0.6745,-0.6745,-0.6691,-0.6642,-0.6588,-0.6588,-0.6588,-0.6588,-0.6588,-0.6199,-0.5597,-0.5597,-0.5597,-0.5487,-0.4897,-0.55,-0.648,-0.5814,-0.6036,-0.6588,-0.6642,-0.6696,-0.6696,-0.6799,-0.7283,-0.7877,-0.7931,-0.8468,-0.9309,-1.0517,-1.0813,-1.0864,-1.0864,-1.0914,-1.0965,-1.1015,-1.1507,-1.1963,-1.1963,-1.1882,-1.2107,-1.2822,-1.2393,-1.2178,-1.291,-1.3017,-1.3017,-1.3017,-1.3017,-1.3238,-1.3815,-1.3862,-1.4097,-1.4698,-1.5276,-1.541,-1.4926,-1.5876,-1.6522,-1.6552,-1.6552,-1.6595,-1.6595,-1.6637,-1.6637,-1.6595,-1.7182,-1.7447,-1.7447,-1.7447,-1.7447,0.0,0.0,-0.0473,-0.2318,-0.3848,-0.4857,-0.4839,-0.5391,-0.5951,-0.5905,-0.5853,-0.5941,-0.6398,-0.8912,-1.0591,-0.9678,-1.0443,-1.1015,-1.0678,-1.0147,-0.9518,-0.8664,-0.841,-0.8213,-0.8115,-0.7723,-0.7503,-0.767,-0.7289,-0.6912,-0.6588,-0.6588,-0.6588,-0.6588,-0.6588,-0.6367,-0.5923,-0.5923,-0.571,-0.5281,-0.571,-0.5923,-0.5928,-0.5496,-0.5281,-0.5281,-0.5281,-0.5281,-0.5281,-0.5281,-0.5117,-0.4897,-0.4897,-0.4897,-0.4842,-0.457,-0.4846,-0.5281,-0.4952,-0.5058,-0.5391,-0.5764,-0.5923,-0.5982,-0.648,-0.6804,-0.7128,-0.7563,-0.7889,-0.8362,-0.9302,-0.9562,-0.9666,-1.0064,-1.0167,-1.0312,-1.072,-1.1015,-1.1166,-1.1166,-1.1174,-1.131,-1.1808,-1.1679,-1.1567,-1.1843,-1.2271,-1.2443,-1.2224,-1.2608,-1.2968,-1.3238,-1.36,-1.3909,-1.4097,-1.4687,-1.4926,-1.4698,-1.5466,-1.5776,-1.5389,-1.5389,-1.5555,-1.5908,-1.5818,-1.583,-1.5964,-1.6315,-1.6371,-1.6103,-1.6103,-1.6315,0.0,0.0,-0.0769,-0.3978,-0.4755,-0.4781,-0.4775,-0.5401,-0.604,-0.6069,-0.6546,-0.6764,-0.6418,-0.8093,-0.9428,-0.9157,-1.028,-1.0782,-0.97,-0.9656,-0.9264,-0.8102,-0.7618,-0.7343,-0.7343,-0.7322,-0.7333,-0.7365,-0.6756,-0.6263,-0.5932,-0.571,-0.5542,-0.5542,-0.5316,-0.4988,-0.4436,-0.4714,-0.4446,-0.379,-0.4501,-0.4941,-0.5164,-0.4736,-0.4519,-0.4519,-0.4519,-0.4519,-0.4519,-0.4519,-0.4519,-0.4519,-0.4519,-0.4519,-0.4519,-0.4519,-0.4519,-0.4519,-0.4519,-0.4519,-0.457,-0.5058,-0.5164,-0.5273,-0.5769,-0.6095,-0.6362,-0.6853,-0.7176,-0.7509,-0.8268,-0.8646,-0.891,-0.9361,-0.9465,-0.9614,-1.0064,-1.0312,-1.0466,-1.0466,-1.0553,-1.0725,-1.1063,-1.1116,-1.1174,-1.1276,-1.1693,-1.1913,-1.1685,-1.2172,-1.2657,-1.2881,-1.3074,-1.3236,-1.3505,-1.3852,-1.4086,-1.4107,-1.4687,-1.4915,-1.4698,-1.4797,-1.5061,-1.5509,-1.5499,-1.5578,-1.5707,-1.6086,-1.6069,-1.5786,-1.5786,-1.5966,0.0,0.0,-0.0886,-0.447,-0.538,-0.5417,-0.5427,-0.5387,-0.5585,-0.6179,-0.7892,-0.9066,-0.8475,-0.6792,-0.5801,-0.6894,-0.9485,-1.0421,-0.767,-0.8677,-0.9101,-0.7558,-0.6933,-0.6588,-0.6588,-0.7883,-0.8142,-0.6698,-0.6119,-0.5449,-0.4519,-0.3732,-0.3287,-0.3287,-0.2565,-0.2174,-0.2174,-0.2899,-0.2899,-0.223,-0.301,-0.379,-0.446,-0.446,-0.446,-0.446,-0.446,-0.446,-0.446,-0.446,-0.446,-0.446,-0.446,-0.446,-0.4463,-0.4463,-0.4463,-0.4519,-0.4519,-0.4519,-0.4519,-0.4519,-0.4519,-0.4519,-0.4519,-0.4948,-0.5487,-0.5487,-0.6036,-0.675,-0.7503,-0.8215,-0.8804,-0.8804,-0.8804,-0.8804,-0.8804,-0.9316,-0.9769,-0.9769,-1.0037,-1.0425,-1.0742,-1.074,-1.0849,-1.1218,-1.126,-1.1313,-1.1305,-1.1601,-1.208,-1.2774,-1.2236,-1.208,-1.2822,-1.2812,-1.2803,-1.2881,-1.3467,-1.405,-1.4663,-1.5063,-1.527,-1.527,-1.5748,-1.5952,-1.6014,-1.6502,-1.6788,-1.6788,-1.6788,-1.6595,0.0,-0.1852,-0.3446,-0.195,-0.3494,-0.5385,-0.5397,-0.541,-0.5424,-0.5647,-0.629,-0.6744,-0.637,-0.7805,-0.8377,-0.6248,-0.768,-0.862,-0.7596,-0.7869,-0.7807,-0.6942,-0.6683,-0.6218,-0.5245,-0.55,-0.5854,-0.6119,-0.4721,-0.3727,-0.3453,-0.2841,-0.2508,-0.2508,-0.2286,-0.2174,-0.2174,-0.2397,-0.2397,-0.223,-0.2454,-0.2676,-0.2899,-0.2899,-0.2899,-0.2899,-0.2899,-0.2899,-0.2899,-0.2899,-0.2899,-0.2899,-0.2899,-0.2899,-0.2954,-0.3456,-0.368,-0.379,-0.4294,-0.4519,-0.4519,-0.4519,-0.4519,-0.4519,-0.4519,-0.4625,-0.4893,-0.5378,-0.5651,-0.5982,-0.6745,-0.7074,-0.7509,-0.854,-0.8427,-0.8049,-0.8049,-0.8352,-0.8648,-0.8648,-0.9332,-0.998,-1.0264,-1.0265,-1.0303,-1.0441,-1.0686,-1.0911,-1.0941,-1.1032,-1.1166,-1.1384,-1.1216,-1.1166,-1.1384,-1.1416,-1.1607,-1.208,-1.2307,-1.2716,-1.343,-1.3552,-1.3807,-1.4253,-1.4242,-1.448,-1.49,-1.5192,-1.5365,-1.5365,-1.5365,-1.5401,0.0,-0.1566,-0.274,-0.0556,-0.27,-0.5375,-0.538,-0.5393,-0.5426,-0.5423,-0.5561,-0.5617,-0.5401,-0.7143,-0.7762,-0.5432,-0.5916,-0.6555,-0.6496,-0.6351,-0.6197,-0.5813,-0.5749,-0.5407,-0.4604,-0.4515,-0.475,-0.5301,-0.4242,-0.3067,-0.189,-0.1895,-0.1898,-0.1786,-0.1452,-0.134,-0.134,-0.1619,-0.1619,-0.134,-0.1619,-0.1619,-0.1341,-0.1952,-0.2174,-0.2174,-0.2174,-0.2174,-0.2174,-0.2174,-0.2174,-0.2174,-0.2174,-0.2174,-0.2232,-0.2674,-0.2899,-0.301,-0.3456,-0.3566,-0.3566,-0.3566,-0.3566,-0.3566,-0.3566,-0.3566,-0.3732,-0.4443,-0.4608,-0.4882,-0.5873,-0.6145,-0.647,-0.767,-0.7563,-0.7235,-0.7235,-0.7478,-0.7706,-0.7706,-0.8567,-0.9379,-0.9436,-0.9884,-1.0254,-1.0134,-1.0207,-1.0338,-1.0407,-1.0415,-1.0573,-1.0968,-1.0648,-1.0573,-1.0968,-1.0725,-1.0816,-1.1375,-1.1775,-1.2154,-1.2461,-1.2879,-1.3392,-1.393,-1.3987,-1.4294,-1.4806,-1.482,-1.4873,-1.5029,-1.4863,-1.4859,0.0,0.0,0.0,0.0,-0.2504,-0.4999,-0.5304,-0.5366,-0.5349,-0.5403,-0.5371,-0.5318,-0.5325,-0.5317,-0.5132,-0.4594,-0.45,-0.4609,-0.485,-0.4668,-0.4522,-0.4522,-0.4473,-0.4366,-0.4138,-0.4089,-0.4209,-0.4497,-0.4268,-0.2905,-0.0167,-0.0893,-0.123,-0.1006,-0.0336,0.0,0.0,-0.0671,-0.0671,0.0,-0.0671,-0.0671,-0.0056,-0.1396,-0.2009,-0.2009,-0.2009,-0.2009,-0.2009,-0.2009,-0.2009,-0.2009,-0.2009,-0.2009,-0.2009,-0.2063,-0.212,-0.212,-0.2174,-0.2174,-0.2174,-0.2174,-0.2174,-0.2174,-0.2174,-0.2174,-0.2343,-0.301,-0.3176,-0.3506,-0.4937,-0.532,-0.5483,-0.6204,-0.648,-0.6485,-0.6505,-0.6672,-0.6825,-0.685,-0.7838,-0.8632,-0.8408,-0.9568,-1.0385,-1.0127,-0.9853,-0.9692,-0.9694,-0.974,-1.0076,-1.1014,-1.0325,-1.0181,-1.107,-1.0624,-1.0379,-1.0783,-1.1661,-1.2069,-1.189,-1.29,-1.3633,-1.3961,-1.4414,-1.4814,-1.5234,-1.4853,-1.4902,-1.5342,-1.4961,-1.4785,0.0,0.0,0.0,0.0,-0.0606,-0.1907,-0.4735,-0.502,-0.4833,-0.5294,-0.503,-0.47,-0.4725,-0.469,-0.4676,-0.4546,-0.4495,-0.4524,-0.4584,-0.456,-0.449,-0.449,-0.449,-0.358,-0.1224,-0.0946,-0.195,-0.4324,-0.2291,-0.067,-0.0056,-0.0224,-0.028,-0.0224,-0.0056,0.0,0.0,-0.0168,-0.0168,0.0,-0.0168,-0.0168,0.0,-0.0336,-0.0448,-0.0448,-0.0448,-0.0448,-0.0448,-0.0448,-0.0448,-0.0448,-0.0448,-0.0448,-0.056,-0.1118,-0.134,-0.1396,-0.2009,-0.2174,-0.2174,-0.2174,-0.2174,-0.2174,-0.2174,-0.2174,-0.2232,-0.2397,-0.2454,-0.2674,-0.3616,-0.3837,-0.395,-0.4787,-0.5332,-0.5804,-0.5962,-0.6147,-0.6382,-0.6481,-0.739,-0.8127,-0.808,-0.8931,-0.9624,-0.9735,-0.9726,-0.9522,-0.909,-0.9213,-0.9432,-0.9604,-0.9715,-0.9797,-1.003,-0.9923,-1.0059,-1.0695,-1.0923,-1.1542,-1.2609,-1.2897,-1.3057,-1.3154,-1.3242,-1.3496,-1.3916,-1.3828,-1.418,-1.4922,-1.4824,-1.4785,0.0,0.0,0.0,0.0,0.0,-0.0489,-0.2355,-0.2587,-0.2451,-0.2763,-0.3685,-0.4499,-0.449,-0.4474,-0.4482,-0.4482,-0.4478,-0.3974,-0.2563,-0.2341,-0.2343,-0.2343,-0.2347,-0.173,-0.0167,0.0,-0.067,-0.224,-0.0895,0.0,0.0,0.0,0.0,0.0,0.0,0.0,0.0,0.0336,0.0336,0.0,0.0336,0.0504,0.0504,0.0168,0.0,0.0,0.0,0.0,0.0,0.0,0.0,0.0,0.0,0.0,-0.0056,-0.0448,-0.056,-0.0615,-0.1006,-0.1174,-0.1174,-0.1174,-0.1174,-0.1174,-0.1174,-0.1174,-0.1229,-0.1563,-0.1675,-0.1842,-0.2621,-0.2788,-0.2954,-0.3732,-0.4563,-0.5148,-0.5243,-0.5512,-0.569,-0.5705,-0.6599,-0.7339,-0.7246,-0.8249,-0.9104,-0.9257,-0.9525,-0.9519,-0.9072,-0.9272,-0.9452,-0.9452,-0.9593,-0.974,-0.988,-0.9886,-1.0003,-1.0193,-1.0654,-1.1188,-1.1807,-1.2147,-1.2678,-1.3477,-1.3477,-1.3474,-1.3565,-1.3315,-1.3633,-1.4495,-1.4298,-1.4544,0.0,0.0,0.0,0.0,0.0,0.0,0.0,0.0,0.0,0.0,-0.1996,-0.3705,-0.3716,-0.3697,-0.3697,-0.3697,-0.3699,-0.2852,-0.0334,0.0,0.0,0.0,0.0,0.0,0.0,0.0,0.0,0.0,0.0,0.0,0.0,0.0224,0.0336,0.0168,0.0336,0.0392,0.0392,0.1006,0.1006,0.0392,0.1006,0.1284,0.1284,0.0671,0.0336,0.0168,0.0056,0.0,0.0,0.0,0.0,0.0,0.0,0.0,0.0,0.0,0.0,0.0,0.0,0.0,0.0,0.0,0.0,0.0,0.0,0.0,-0.0112,-0.0727,-0.0895,-0.1062,-0.184,-0.2009,-0.2174,-0.2954,-0.3718,-0.4403,-0.4666,-0.4921,-0.5074,-0.5006,-0.5822,-0.6477,-0.6459,-0.7524,-0.8421,-0.8544,-0.9135,-0.9413,-0.9114,-0.9336,-0.9571,-0.9571,-0.9623,-0.9748,-0.9923,-1.0126,-1.0087,-0.9853,-1.058,-1.1011,-1.0914,-1.1409,-1.2363,-1.3683,-1.3683,-1.3542,-1.3194,-1.2882,-1.3076,-1.382,-1.3513,-1.3959,0.0,0.0,0.0,0.0,0.0,0.0,0.0,0.0,0.0,0.0,-0.0336,-0.0615,-0.0613,-0.0612,-0.0612,-0.0612,-0.0613,-0.0447,-0.0056,0.0,0.0,0.0,0.0,0.0,0.0,0.0,0.0,0.0,0.0,0.0,0.0,0.1229,0.1619,0.095,0.1563,0.1898,0.1898,0.2009,0.2009,0.1898,0.2009,0.2063,0.2063,0.1952,0.1563,0.0895,0.028,0.0,0.0,0.0,0.0,0.0,0.0,0.0,0.0,0.0,0.0,0.0,0.0,0.0,0.0,0.0,0.0,0.0,0.0,0.0,0.0,-0.0112,-0.0168,-0.0336,-0.1062,-0.1229,-0.1452,-0.2174,-0.2575,-0.3189,-0.4556,-0.4918,-0.502,-0.5257,-0.5463,-0.5811,-0.6559,-0.6676,-0.6943,-0.7561,-0.8286,-0.8709,-0.855,-0.8771,-0.8932,-0.8932,-0.9152,-0.9376,-0.9412,-1.0116,-1.0544,-1.051,-1.06,-1.0968,-1.1645,-1.176,-1.1897,-1.218,-1.2061,-1.1881,-1.1622,-1.1771,-1.2,-1.222,-1.2455,-1.2848,0.0,0.0,0.0,0.0,0.0,0.0,0.0,0.0,0.0,0.0,0.0,0.0,0.0,0.0,0.0,0.0,0.0,0.0,0.0,0.0,0.0,0.0,0.0,0.0,0.0,0.0,0.0,0.0,0.0,0.0725,0.2408,0.2291,0.2063,0.173,0.2009,0.2174,0.2174,0.2619,0.2843,0.2843,0.2397,0.2397,0.2788,0.2397,0.2009,0.1675,0.1397,0.1229,0.1229,0.1229,0.1006,0.0615,0.0615,0.0336,0.0,0.0,0.0,0.0,0.0,0.0,0.0,0.0,0.0,0.0,0.0,0.0,0.0,0.0,0.0,-0.0056,-0.0392,-0.0504,-0.0671,-0.1396,-0.1661,-0.2071,-0.3294,-0.3933,-0.4482,-0.5125,-0.5233,-0.5387,-0.5862,-0.6121,-0.6476,-0.6967,-0.7561,-0.7973,-0.7907,-0.8172,-0.8264,-0.8067,-0.8403,-0.8549,-0.8549,-0.9396,-0.9849,-0.9849,-1.0301,-1.0744,-1.1108,-1.1108,-1.1074,-1.0902,-1.17,-1.1704,-1.0957,-1.1241,-1.1554,-1.1866,-1.197,-1.2369,0.0924,0.0588,0.0,0.0,0.0676,0.1357,0.1373,0.1244,0.1115,0.1136,0.1128,0.1125,0.1117,0.1172,0.1172,0.1169,0.1169,0.1169,0.1169,0.1169,0.1169,0.1169,0.1169,0.1169,0.1169,0.1169,0.1169,0.1169,0.1168,0.2117,0.4383,0.3411,0.2676,0.2508,0.2676,0.2788,0.2788,0.3345,0.3622,0.368,0.3065,0.3065,0.3566,0.301,0.2788,0.2788,0.2343,0.2174,0.2174,0.2174,0.1898,0.1396,0.1396,0.0951,0.028,0.028,0.0168,0.0,0.0,0.0,0.0,0.0,0.0,0.0,0.0,0.0,0.0,0.0,0.0,0.0,0.0,0.0,-0.0112,-0.0679,-0.0808,-0.1187,-0.2526,-0.3375,-0.411,-0.4974,-0.5189,-0.5226,-0.5342,-0.5678,-0.6002,-0.6306,-0.688,-0.7212,-0.7264,-0.7535,-0.7574,-0.7351,-0.754,-0.7697,-0.7697,-0.8484,-0.9075,-0.9274,-0.9913,-1.0364,-1.0561,-1.0624,-1.0421,-1.0127,-1.1323,-1.1455,-1.0465,-1.0718,-1.1052,-1.1345,-1.1432,-1.1841,0.3492,0.217,0.0,0.0,0.2579,0.5118,0.5102,0.469,0.4278,0.4262,0.4293,0.425,0.4278,0.4262,0.4268,0.4268,0.4268,0.4268,0.4268,0.4268,0.4268,0.4268,0.4268,0.4268,0.4268,0.4268,0.4268,0.4268,0.4258,0.4314,0.4497,0.4418,0.4015,0.3287,0.3956,0.4405,0.4405,0.4405,0.4463,0.4463,0.4405,0.4405,0.4463,0.4405,0.4405,0.4294,0.2843,0.2174,0.2174,0.2174,0.2174,0.212,0.212,0.1675,0.1062,0.1062,0.0616,0.0,0.0,0.0,0.0,0.0,0.0,0.0,0.0,0.0,0.0,0.0,0.0,0.0,0.0,0.0,0.0,-0.0058,-0.0059,-0.0717,-0.322,-0.3856,-0.4268,-0.5213,-0.5415,-0.5418,-0.5425,-0.5298,-0.5246,-0.5404,-0.6061,-0.651,-0.6746,-0.6776,-0.678,-0.6772,-0.6776,-0.6785,-0.6785,-0.7567,-0.842,-0.9268,-0.9338,-0.9722,-1.0561,-1.0624,-1.0421,-1.0127,-1.0512,-1.0377,-0.9744,-1.0033,-1.0181,-1.0208,-1.049,-1.0681,0.3691,0.3709,0.2985,0.3378,0.4436,0.5378,0.5409,0.5257,0.5064,0.506,0.4762,0.4528,0.4522,0.4519,0.4484,0.4477,0.4473,0.4473,0.4473,0.4473,0.4522,0.4498,0.4515,0.4522,0.4498,0.4519,0.4473,0.4473,0.4525,0.4525,0.4473,0.4522,0.4349,0.407,0.4349,0.4519,0.4519,0.4519,0.4519,0.4519,0.4519,0.4519,0.4519,0.4519,0.4519,0.446,0.3901,0.368,0.368,0.368,0.3345,0.2899,0.2954,0.251,0.1786,0.1786,0.1619,0.1341,0.0895,0.0727,0.0615,0.0168,0.0,0.0,0.0,0.0,0.0,0.0,0.0,0.0,0.0,0.0,0.0,0.0,0.0,-0.0379,-0.1897,-0.2723,-0.3394,-0.4246,-0.4429,-0.4686,-0.5292,-0.5315,-0.5298,-0.5418,-0.5574,-0.5817,-0.5873,-0.5881,-0.5881,-0.5881,-0.5881,-0.5881,-0.5881,-0.6658,-0.7307,-0.7632,-0.8678,-0.9466,-0.9722,-1.0301,-1.0421,-1.0127,-1.0221,-1.0174,-0.996,-1.0261,-1.0401,-1.0408,-1.0514,-1.0624,0.3691,0.4503,0.4621,0.5019,0.5068,0.5137,0.5328,0.5427,0.5398,0.5378,0.4921,0.4529,0.4518,0.527,0.5652,0.4663,0.4488,0.4488,0.4488,0.4488,0.4481,0.4511,0.5382,0.5559,0.4569,0.4474,0.4488,0.4488,0.4494,0.4501,0.4501,0.4512,0.4519,0.4519,0.4519,0.4519,0.4519,0.4519,0.4519,0.4519,0.4519,0.4519,0.4519,0.4519,0.4519,0.4519,0.4519,0.4519,0.4519,0.4519,0.4181,0.3735,0.3735,0.3289,0.2621,0.2621,0.2454,0.212,0.1619,0.1452,0.1341,0.0615,0.0392,0.0336,0.0056,0.0,0.0,0.0,0.0,0.0,0.0,0.0,0.0,0.0,0.0,-0.0132,-0.0736,-0.1609,-0.2463,-0.3264,-0.3502,-0.3882,-0.4755,-0.4954,-0.5024,-0.5359,-0.5428,-0.5428,-0.5428,-0.5428,-0.5428,-0.5428,-0.5428,-0.5428,-0.5428,-0.5947,-0.6396,-0.6654,-0.7767,-0.8549,-0.8877,-0.9716,-1.0084,-0.9829,-1.0137,-1.0267,-1.0267,-1.0367,-1.0461,-1.0624,-1.0624,-1.0624,0.0,0.0,0.0,0.4499,0.4533,0.4671,0.5274,0.5363,0.5385,0.5385,0.4951,0.455,0.4493,0.686,0.7876,0.5105,0.4649,0.4653,0.4653,0.4653,0.4653,0.4649,0.7112,0.7703,0.4877,0.4653,0.4653,0.4653,0.462,0.4576,0.4518,0.4498,0.4515,0.4515,0.4519,0.4519,0.4519,0.4519,0.4519,0.4519,0.4519,0.4519,0.4519,0.4519,0.4519,0.4519,0.4519,0.4519,0.4519,0.4519,0.4519,0.4519,0.4519,0.407,0.3456,0.3456,0.2954,0.2286,0.2232,0.2232,0.212,0.1397,0.1118,0.1006,0.028,0.0056,0.0,0.0,0.0,0.0,0.0,0.0,0.0,0.0,0.0,0.0,0.0,-0.0672,-0.1541,-0.2477,-0.2678,-0.2945,-0.3813,-0.4015,-0.435,-0.5226,-0.5428,-0.5428,-0.5428,-0.5428,-0.5428,-0.5428,-0.5428,-0.5428,-0.5428,-0.5428,-0.5752,-0.6588,-0.6719,-0.7111,-0.7897,-0.8812,-0.9274,-0.9274,-1.011,-1.0561,-1.0561,-1.0267,-1.0281,-1.0624,-1.0624,-1.0624,0.1003,0.0,0.0,0.0,0.0,0.0,0.4823,0.51,0.5417,0.5387,0.5243,0.504,0.4579,0.6874,0.8509,0.7729,0.7586,0.7583,0.7583,0.7583,0.7626,0.7634,0.8327,0.846,0.7699,0.7614,0.7583,0.0,0.7595,0.6717,0.4609,0.4522,0.4707,0.5214,0.4732,0.4519,0.4519,0.4519,0.4519,0.4519,0.4519,0.4519,0.4519,0.4519,0.4519,0.4519,0.4519,0.4519,0.4519,0.4519,0.4519,0.4519,0.4519,0.4349,0.4184,0.4184,0.407,0.379,0.3176,0.301,0.2954,0.2176,0.1898,0.1786,0.1006,0.0783,0.0673,0.017,0.0,0.0,0.0,0.0,0.0,0.0,0.0,0.0,0.0,-0.0202,-0.0605,-0.1541,-0.1675,-0.221,-0.3747,-0.4015,-0.435,-0.5226,-0.5428,-0.5428,-0.5428,-0.5428,-0.5428,-0.5428,-0.5428,-0.5428,-0.5428,-0.5428,-0.5491,-0.5749,-0.6334,-0.6785,-0.7046,-0.7892,-0.8355,-0.8355,-0.9204,-0.9658,-0.9658,-1.0223,-1.0481,-1.0624,-1.0624,-1.0624,0.0,0.2174,0.4497,0.4492,0.0,0.0,0.4552,0.5711,0.6482,0.5272,0.5243,0.5299,0.4967,0.7014,0.882,0.8795,0.8784,0.8811,0.8811,0.8811,0.8798,0.8818,0.8791,0.8798,0.8818,0.8791,0.8811,0.8811,0.8784,0.8087,0.6357,0.5914,0.581,0.5928,0.5273,0.4893,0.4893,0.4625,0.4519,0.4519,0.4519,0.4519,0.4519,0.4519,0.4519,0.4519,0.4519,0.4519,0.4519,0.4519,0.4519,0.4519,0.4519,0.4519,0.4519,0.4519,0.4519,0.4408,0.3956,0.3846,0.3735,0.2954,0.2676,0.2454,0.1396,0.1118,0.0953,0.0228,0.0,0.0,0.0,0.0,0.0,0.0,0.0,0.0,0.0,0.0,-0.0135,-0.0672,-0.0739,-0.1208,-0.2611,-0.3211,-0.3747,-0.4686,-0.516,-0.5428,-0.5428,-0.5428,-0.5428,-0.5428,-0.5428,-0.5428,-0.5428,-0.5428,-0.5428,-0.5428,-0.5881,-0.6141,-0.6141,-0.6985,-0.7437,-0.7437,-0.8291,-0.8941,-0.9274,-1.0174,-1.0624,-1.0624,-1.0624,-1.0624,0.0,0.1961,0.4085,0.4416,0.4482,0.0,0.4502,0.6493,0.7608,0.5016,0.4999,0.5536,0.5904,0.7629,0.8944,0.8835,0.8816,0.8785,0.8811,0.8804,0.8804,0.8804,0.8804,0.8804,0.8804,0.8804,0.8804,0.8804,0.8811,0.8811,0.881,0.7871,0.7112,0.675,0.5923,0.5542,0.5597,0.4948,0.4625,0.4625,0.4519,0.4519,0.4519,0.4519,0.4519,0.4519,0.4519,0.4519,0.4519,0.4519,0.4519,0.4519,0.4519,0.4519,0.4519,0.4519,0.4519,0.4519,0.4519,0.4519,0.4405,0.3735,0.3456,0.3176,0.1786,0.1341,0.1183,0.0351,0.0062,0.0,0.0,0.0,0.0,0.0,0.0,0.0,0.0,0.0,0.0,0.0,0.0,-0.0269,-0.114,-0.2009,-0.2878,-0.3882,-0.4688,-0.5292,-0.5362,-0.5428,-0.5428,-0.5428,-0.5428,-0.5428,-0.5428,-0.5428,-0.5428,-0.5428,-0.5428,-0.5428,-0.5428,-0.6137,-0.6523,-0.6523,-0.7437,-0.8285,-0.9139,-1.004,-1.0428,-1.0428,-1.0428,-1.0428,0.0,0.0455,0.1442,0.3913,0.45,0.0,0.4498,0.4933,0.5193,0.4626,0.4962,0.6248,0.9042,0.996,0.9945,0.8945,0.8802,0.8773,0.8785,0.8804,0.8804,0.8804,0.8804,0.8804,0.8804,0.8804,0.8804,0.8804,0.8818,0.8778,0.8791,0.7526,0.6977,0.745,0.6195,0.576,0.6367,0.5651,0.5328,0.5269,0.4732,0.4519,0.4519,0.4519,0.4519,0.4519,0.4519,0.4519,0.4519,0.4519,0.4519,0.4519,0.4519,0.4519,0.4519,0.4519,0.4519,0.4519,0.4519,0.4519,0.446,0.4349,0.4294,0.4125,0.3231,0.2954,0.2653,0.126,0.0439,0.0,0.0,0.0,0.0,0.0,0.0,0.0,0.0,0.0,0.0,0.0,0.0,-0.0269,-0.114,-0.1474,-0.2143,-0.3747,-0.4151,-0.4553,-0.5292,-0.5428,-0.5428,-0.5428,-0.5428,-0.5428,-0.5428,-0.5428,-0.5428,-0.5428,-0.5428,-0.5428,-0.5428,-0.5557,-0.5686,-0.5686,-0.6527,-0.7372,-0.8285,-0.9139,-0.953,-0.953,-0.953,-0.9198,0.0,0.0,0.08,0.4137,0.4711,0.0,0.0,0.471,0.4911,0.6325,0.6855,0.7654,0.935,0.9726,0.948,0.8916,0.8793,0.8991,0.9604,0.92,0.8805,0.8805,0.8806,0.8782,0.8782,0.8778,0.8804,0.8804,0.8804,0.8804,0.8804,0.8103,0.7723,0.7723,0.6632,0.6036,0.6036,0.5706,0.5487,0.5487,0.5164,0.5003,0.5003,0.468,0.4519,0.4519,0.4519,0.4519,0.4519,0.4519,0.4519,0.4519,0.4519,0.4519,0.4519,0.4519,0.4519,0.4519,0.4519,0.4519,0.4519,0.4519,0.4519,0.4349,0.3624,0.3215,0.2715,0.1457,0.0882,0.0519,0.0134,0.0,0.0,0.0,0.0,0.0,0.0,0.0,0.0,0.0,0.0,-0.0135,-0.0605,-0.1006,-0.1608,-0.2544,-0.3078,-0.368,-0.4553,-0.4688,-0.4888,-0.5359,-0.5428,-0.5428,-0.5428,-0.5428,-0.5428,-0.5428,-0.5428,-0.5428,-0.5428,-0.5428,-0.5428,-0.5428,-0.5815,-0.6461,-0.7372,-0.7767,-0.8221,-0.8678,-0.8678,-0.842,-0.0167,0.0,0.0679,0.3658,0.4508,0.4755,0.0,0.0,0.0,0.8189,0.896,0.9097,0.883,0.8808,0.8977,0.9487,0.9153,0.9213,1.0413,1.0034,0.9502,0.9199,0.9128,0.9043,0.8841,0.8775,0.8798,0.879,0.8811,0.8778,0.8825,0.8791,0.8546,0.7943,0.7074,0.6367,0.5923,0.5651,0.5597,0.5706,0.5433,0.5378,0.5487,0.4787,0.4519,0.4519,0.4519,0.4519,0.4519,0.4519,0.4519,0.4519,0.4519,0.4519,0.4519,0.4519,0.4519,0.4519,0.4519,0.4519,0.4519,0.4519,0.4519,0.4405,0.379,0.314,0.2479,0.1586,0.1258,0.1038,0.0201,0.0,0.0,0.0,0.0,0.0,0.0,0.0,0.0,0.0,0.0,0.0,0.0,-0.0605,-0.114,-0.1273,-0.1941,-0.2811,-0.3882,-0.4015,-0.435,-0.5292,-0.5428,-0.5428,-0.5428,-0.5428,-0.5428,-0.5428,-0.5428,-0.5428,-0.5428,-0.5428,-0.5428,-0.5428,-0.5428,-0.5752,-0.6461,-0.6461,-0.692,-0.7767,-0.7767,-0.7637,-0.0724,0.0,0.0116,0.0508,0.2986,0.5188,0.4734,0.0,0.5345,0.8195,0.0,1.0095,0.8997,0.0,0.0,1.2061,1.0386,0.92,1.0417,1.165,1.1944,1.0574,1.0409,1.0002,0.8928,0.8783,0.88,0.8788,0.8793,0.8798,0.8809,0.8823,0.8758,0.8699,0.7343,0.6858,0.745,0.614,0.5814,0.648,0.5226,0.4948,0.5487,0.4787,0.4519,0.4519,0.4519,0.4519,0.4519,0.4519,0.4519,0.4519,0.4519,0.4519,0.4519,0.4519,0.4519,0.4519,0.4519,0.4519,0.4519,0.4519,0.4519,0.4463,0.4405,0.3823,0.3067,0.2314,0.1634,0.0973,0.0201,0.0,0.0,0.0,0.0,0.0,0.0,0.0,0.0,0.0,0.0,0.0,0.0,-0.0067,-0.0404,-0.1207,-0.1407,-0.2075,-0.3749,-0.4015,-0.435,-0.5292,-0.5428,-0.5428,-0.5428,-0.5428,-0.5428,-0.5428,-0.5428,-0.5428,-0.5428,-0.5428,-0.5428,-0.5428,-0.5428,-0.5428,-0.5557,-0.5557,-0.6009,-0.685,-0.685,-0.6461,-0.2936,-0.1347,0.0,0.0,0.1155,0.2671,0.4152,0.4502,0.4863,0.6048,0.0,0.0,0.0,0.0,0.0,0.0,1.0902,1.135,1.1859,1.2502,1.2355,1.0786,1.1404,1.1359,1.0006,0.9859,0.9554,0.8875,0.9424,0.9563,0.884,0.8811,0.8806,0.8812,0.7372,0.6529,0.6411,0.5814,0.5651,0.5982,0.5382,0.5218,0.5487,0.5218,0.4897,0.4515,0.4897,0.4842,0.4519,0.4519,0.4519,0.4519,0.4519,0.4519,0.4519,0.4519,0.4519,0.4519,0.4519,0.4519,0.4519,0.4519,0.4519,0.4519,0.4519,0.4339,0.3834,0.2556,0.2074,0.1619,0.0334,0.0,0.0,0.0,0.0,0.0,0.0,0.0,0.0,0.0,0.0,0.0,0.0,0.0,-0.0135,-0.0471,-0.0538,-0.1007,-0.2277,-0.241,-0.3011,-0.4417,-0.4619,-0.4821,-0.5359,-0.5428,-0.5428,-0.5428,-0.5428,-0.5428,-0.5428,-0.5428,-0.5428,-0.5428,-0.5428,-0.5428,-0.5428,-0.5428,-0.5557,-0.5943,-0.5943,-0.5752,-0.4718,-0.289,-0.1009,-0.0229,0.0,0.0561,0.2758,0.3907,0.4473,0.4502,0.4477,0.0,0.0,0.0,0.881,0.882,0.0,1.2898,1.2916,1.2883,1.2457,1.1382,1.2201,1.228,1.0755,1.0629,1.0115,0.8872,0.989,1.0243,0.9317,0.9271,0.9157,0.882,0.766,0.6752,0.6086,0.5701,0.5597,0.5814,0.5437,0.5324,0.5487,0.5328,0.4948,0.4515,0.5003,0.4948,0.4519,0.4519,0.4519,0.4519,0.4519,0.4519,0.4519,0.4519,0.4519,0.4519,0.4519,0.4519,0.4519,0.4519,0.4519,0.4519,0.4519,0.4594,0.4375,0.2976,0.2684,0.2434,0.08,0.0337,0.0269,0.0067,0.0,0.0,0.0,0.0,0.0,0.0,0.0,0.0,0.0,0.0,0.0,0.0,0.0,-0.0337,-0.1207,-0.1273,-0.1876,-0.348,-0.3882,-0.4284,-0.4957,-0.5226,-0.5428,-0.5428,-0.5428,-0.5428,-0.5428,-0.5428,-0.5428,-0.5428,-0.5428,-0.5428,-0.5428,-0.5428,-0.5428,-0.5428,-0.5428,-0.5428,-0.5258,0.0,-0.363,-0.0724,0.0,0.0,0.0111,0.24,0.4494,0.4484,0.4508,0.4529,0.4609,0.6891,0.8791,0.8781,1.1115,0.0,0.0,1.288,1.2871,1.2812,1.2884,1.2307,1.0751,1.0621,1.0079,0.8889,0.9895,1.06,1.0551,1.0564,0.9994,0.8818,0.8373,0.7976,0.7616,0.6195,0.5869,0.6534,0.5171,0.4897,0.5487,0.4842,0.4515,0.4519,0.4515,0.4515,0.4519,0.4519,0.4519,0.4519,0.4519,0.4519,0.4519,0.4519,0.4519,0.4519,0.4519,0.4519,0.4519,0.4519,0.4519,0.4519,0.4519,0.4522,0.436,0.3743,0.3564,0.3179,0.1651,0.1274,0.1074,0.0202,0.0,0.0,0.0,0.0,0.0,0.0,0.0,0.0,0.0,0.0,0.0,0.0,0.0,-0.0337,-0.1207,-0.1273,-0.1675,-0.2611,-0.348,-0.4015,-0.4015,-0.4888,-0.5428,-0.5428,-0.5428,-0.5428,-0.5428,-0.5428,-0.5428,-0.5428,-0.5428,-0.5428,-0.5428,-0.5428,-0.5428,-0.5428,-0.5428,-0.5428,0.0,0.0,-0.4252,-0.3234,0.0,0.0,-0.0445,0.0779,0.1503,0.1502,0.3116,0.4508,0.4529,0.683,0.8804,0.879,0.957,1.082,0.0,1.291,1.2881,1.2881,1.2916,1.2704,1.2156,1.2135,1.1185,0.8961,0.9932,0.0,1.0601,1.0595,1.0241,0.9418,0.8595,0.8043,0.7723,0.6249,0.5651,0.5873,0.4952,0.4625,0.4842,0.5058,0.4893,0.4515,0.4948,0.4893,0.4519,0.4519,0.4519,0.4519,0.4519,0.4519,0.4519,0.4519,0.4519,0.4519,0.4519,0.4519,0.4519,0.4519,0.4519,0.4519,0.4519,0.4519,0.4356,0.3743,0.3623,0.3363,0.2441,0.1742,0.1207,0.094,0.0404,0.0,0.0,0.0,0.0,0.0,0.0,0.0,0.0,0.0,0.0,0.0,0.0,-0.0135,-0.0404,-0.0471,-0.0806,-0.1675,-0.2009,-0.2678,-0.3882,-0.4888,-0.5428,-0.5428,-0.5428,-0.5428,-0.5428,-0.5428,-0.5428,-0.5428,-0.5428,-0.5428,-0.5428,-0.5428,-0.5428,-0.5428,-0.5428,-0.5428,-0.4772,-0.4477,0.0,-0.4525,-0.4484,0.0,-0.206,0.0,0.0,0.0,0.1558,0.3231,0.432,0.6,0.7626,0.8646,0.8783,0.9754,0.0,1.289,1.2881,1.2881,1.2915,1.2917,1.2878,1.2917,1.1771,0.9017,0.9905,1.076,0.0,1.084,1.0418,1.0013,0.9195,0.8577,0.8244,0.6939,0.614,0.5869,0.5167,0.4732,0.4519,0.4948,0.4893,0.4515,0.4948,0.4893,0.4519,0.4519,0.4519,0.4519,0.4519,0.4519,0.4519,0.4519,0.4519,0.4519,0.4519,0.4519,0.4519,0.4519,0.4519,0.4519,0.4519,0.4519,0.4402,0.4109,0.4022,0.3912,0.3255,0.2457,0.1742,0.1407,0.0605,0.0,0.0,0.0,0.0,0.0,0.0,0.0,0.0,0.0,0.0,0.0,0.0,0.0,0.0,0.0,-0.0202,-0.0806,-0.114,-0.1876,-0.3411,-0.435,-0.4891,-0.4891,-0.5226,-0.5428,-0.5428,-0.5428,-0.5428,-0.5428,-0.5428,-0.5428,-0.5428,-0.5428,-0.5428,-0.5428,-0.5428,-0.5428]},{"header":{"parameterUnit":"m.s-1","parameterCategory":1,"la1":30.6,"la2":29.2853,"lo1":-89.7004,"lo2":-87.6739,"dy":0.0162,"dx":0.0183,"nx":112,"ny":82,"refTime":"2024-08-14T06:00:00:Z","depth":0,"parameterNumber":3,"parameterNumberName":"V-component_of_WINDS"},"data":[0.0,0.0,0.0,0.0,0.0,0.0,0.0,0.0,0.0,0.0,0.0,0.0,0.0,0.0,0.0,0.0,0.0,0.0,0.0,0.0,0.0,0.0,0.0,0.0,0.0,0.0,0.0,0.0,0.0,0.0,0.0,0.0,0.0,0.0,0.0,0.0,0.0,0.0,0.0,0.0,0.0,0.0,0.0,0.0,0.0,0.0,0.0,0.0,0.0,0.0,0.0,0.0,0.0,0.0,0.0,0.0,0.0,0.0,0.0,0.0,0.0,0.0,0.0,0.0,0.0,0.0,0.0,0.0,0.0,0.0,0.0,0.0,0.0,0.0,0.0,0.0,0.0,0.0,0.0,0.0,0.0,0.0,0.0,0.0,0.0,0.0,0.0,0.0,0.0,0.0,-0.08,-0.0067,0.0,-0.0716,-0.2523,-0.2666,-0.3348,-0.4773,0.0,0.0,0.0,0.0,0.0,0.0,0.0,0.0,0.0,0.0,0.0,0.0,0.0,0.0,0.0,0.0,0.0,0.0,0.0,0.0,0.0,0.0,0.0,0.0,0.0,0.0,0.0,0.0,0.0,0.0,0.0,0.0,0.0,0.0,0.0,0.0,0.0,0.0,0.0,0.0,0.0,0.0,0.0,0.0,0.0,0.0,0.0,0.0,0.0,0.0,0.0,0.0,0.0,0.0,0.0,0.0,0.0,0.0,0.0,0.0,0.0,0.0,0.0,0.0,0.0,0.0,0.0,0.0,0.0,0.0,0.0,0.0,0.0,0.0,0.0,0.0,0.0,0.0,0.0,0.0,0.0,0.0,0.0,0.0,0.0,0.0,0.0,0.0,0.0,0.0,0.0,0.0,0.0,0.0,0.0,0.0,0.0,0.0,0.0,0.0,0.0,0.0,0.0,0.0,-0.0828,-0.0067,0.0,-0.0711,-0.2392,-0.2638,-0.3257,-0.4624,0.0,0.0,0.0,0.0,0.0,0.0,0.0,0.0,0.0,0.0,0.0,0.0,0.0,0.0,0.0,0.0,0.0,0.0,0.0,0.0,0.0,0.0,0.0,0.0,0.0,0.0,0.0,0.0,0.0,0.0,0.0,0.0,0.0,0.0,0.0,0.0,0.0,0.0,0.0,0.0,0.0,0.0,0.0,0.0,0.0,0.0,0.0,0.0,0.0,0.0,0.0,0.0,0.0,0.0,0.0,0.0,0.0,0.0,0.0,0.0,0.0,0.0,0.0,0.0,0.0,0.0,0.0,0.0,0.0,0.0,0.0,0.0,0.0,0.0,0.0,0.0,0.0,0.0,0.0,0.0,0.0,0.0,0.0,0.0,0.0,0.0,0.0,0.0,0.0,0.0,0.0,0.0,0.0,0.0,0.0,0.0,0.0,0.0,0.0,0.0,0.0,0.0,0.0,-0.0725,-0.0392,-0.0067,-0.0388,-0.1139,-0.2376,-0.2929,-0.3623,-0.4639,-0.6142,0.0,0.0,0.0,0.0,0.0,0.0,0.0,0.0,0.0,0.0,0.0,0.0,0.0,0.0,0.0,0.0,0.0,0.0,0.0,0.0,0.0,0.0,0.0,0.0,0.0,0.0,0.0,0.0,0.0,0.0,0.0,0.0,0.0,0.0,0.0,0.0,0.0,0.0,0.0,0.0,0.0,0.0,0.0,0.0,0.0,0.0,0.0,0.0,0.0,0.0,0.0,0.0,0.0,0.0,0.0,0.0,0.0,0.0,0.0,0.0,0.0,0.0,0.0,0.0,0.0,0.0,0.0,0.0,0.0,0.0,0.0,0.0,0.0,0.0,0.0,0.0,0.0,0.0,0.0,0.0,0.0,0.0,0.0,0.0,0.0,0.0,0.0,0.0,0.0,0.0,0.0,0.0,0.0,0.0,0.0,0.0,0.0,0.0,0.0,0.0,0.0,0.0,0.0,0.0,0.0,-0.0511,-0.1243,-0.235,-0.2965,-0.3738,-0.4579,-0.6085,0.0,0.0,0.0,0.0,0.0,0.0,0.0,0.0,0.0,0.0,0.0,0.0,0.0,0.0,0.0,0.0,0.0,0.0,0.0,0.0,0.0,0.0,0.0,0.0,0.0,0.0,0.0,0.0,0.0,0.0,0.0,0.0,0.0,0.0,0.0,0.0,0.0,0.0,0.0,0.0,0.0,0.0,0.0,0.0,0.0,0.0,0.0,0.0,0.0,0.0,0.0,0.0,0.0,0.0,0.0,0.0,0.0,0.0,0.0,0.0,0.0,0.0,0.0,0.0,0.0,0.0,0.0,0.0,0.0,0.0,0.0,0.0,0.0,0.0,0.0,0.0,0.0,0.0,0.0,0.0,0.0,0.0,0.0,0.0,0.0,0.0,0.0,0.0,0.0,0.0,0.0,0.0,0.0,0.0,0.0,0.0,0.0,0.0,0.0,0.0,0.0,0.0,0.0,0.0,0.0,-0.0064,-0.0679,-0.2096,-0.2451,-0.3124,-0.4432,-0.601,0.0,0.0,0.0,0.0,0.0,0.0,0.0,0.0,0.0,0.0,0.0,0.0,0.0,0.0,0.0,0.0,0.0,0.0,0.0,0.0,0.0,0.0,0.0,0.0,0.0,0.0,0.0,0.0,0.0,0.0,0.0,0.0,0.0,0.0,0.0,0.0,0.0,0.0,0.0,0.0,0.0,0.0,0.0,0.0,0.0,0.0,0.0,0.0,0.0,0.0,0.0,0.0,0.0,0.0,0.0,0.0,0.0,0.0,0.0,0.0,0.0,0.0,0.0,0.0,0.0,0.0,0.0,0.0,0.0,0.0,0.0,0.0,0.0,0.0,0.0,0.0,0.0,0.0,0.0,0.0,0.0,0.0,0.0,0.0,0.0,0.0,0.0,0.0,0.0,0.0,0.0,0.0,0.0,0.0,0.0,0.0,0.0,0.0,0.0,0.0,0.0,0.0,0.0,0.0,0.0,-0.083,-0.1599,-0.215,-0.3163,-0.3955,-0.4463,0.0,0.0,0.0,0.0,0.0,0.0,0.0,0.0,0.0,0.0,0.0,0.0,0.0,0.0,0.0,0.0,0.0,0.0,0.0,0.0,0.0,0.0,0.0,0.0,0.0,0.0,0.0,0.0,0.0,0.0,0.0,0.0,0.0,0.0,0.0,0.0,0.0,0.0,0.0,0.0,0.0,0.0,0.0,0.0,0.0,0.0,0.0,0.0,0.0,0.0,0.0,0.0,0.0,0.0,0.0,0.0,0.0,0.0,0.0,0.0,0.0,0.0,0.0,0.0,0.0,0.0,0.0,0.0,0.0,0.0,0.0,0.0,0.0,0.0,0.0,0.0,0.0,0.0,0.0,0.0,0.0,0.0,0.0,0.0,0.0,0.0,0.0,0.0,0.0,0.0,0.0,0.0,0.0,0.0,0.0,0.0,0.0,0.0,0.0,0.0,0.0,0.0,-0.0067,0.0,-0.0069,-0.0334,-0.1269,-0.2019,-0.2543,-0.3569,-0.4239,-0.4463,0.0,0.0,0.0,0.0,0.0,0.0,0.0,0.0,0.0,0.0,0.0,0.0,0.0,0.0,0.0,0.0,0.0,0.0,0.0,0.0,0.0,0.0,0.0,0.0,0.0,0.0,0.0,0.0,0.0,0.0,0.0,0.0,0.0,0.0,0.0,0.0,0.0,0.0,0.0,0.0,0.0,0.0,0.0,0.0,0.0,0.0,0.0,0.0,0.0,0.0,0.0,0.0,0.0,0.0,0.0,0.0,0.0,0.0,0.0,0.0,0.0,0.0,0.0,0.0,0.0,0.0,0.0,0.0,0.0,0.0,0.0,0.0,0.0,0.0,0.0,0.0,0.0,0.0,0.0,0.0,0.0,0.0,0.0,0.0,0.0,0.0,0.0,0.0,0.0,0.0,0.0,0.0,0.0,0.0,0.0,0.0,0.0,0.0,0.0,0.0,0.0,0.0,0.0,0.0,-0.0275,-0.1037,-0.1129,-0.1761,-0.329,-0.3411,-0.3735,0.0,0.0,0.0,0.0,0.0,0.0,0.0,0.0,0.0,0.0,0.0,0.0,0.0,0.0,0.0,0.0,0.0,0.0,0.0,0.0,0.0,0.0,0.0,0.0,0.0,0.0,0.0,0.0,0.0,0.0,0.0,0.0,0.0,0.0,0.0,0.0,0.0,0.0,0.0,0.0,0.0,0.0,0.0,0.0,0.0,0.0,0.0,0.0,0.0,0.0,0.0,0.0,0.0,0.0,0.0,0.0,0.0,0.0,0.0,0.0,0.0,0.0,0.0,0.0,0.0,0.0,0.0,0.0,0.0,0.0,0.0,0.0,0.0,0.0,0.0,0.0,0.0,0.0,0.0,0.0,0.0,0.0,0.0,0.0,0.0,0.0,0.0,0.0,0.0,0.0,0.0,0.0,0.0,0.0,0.0,0.0,0.0,0.0,0.0,0.0,0.0,0.0,0.0,0.0,0.0,-0.0275,-0.1037,-0.1566,-0.2305,-0.329,-0.3866,-0.4294,-0.4463,0.0,0.0,0.0,0.0,0.0,0.0,0.0,0.0,0.0,0.0,0.0,0.0,0.0,0.0,0.0,0.0,0.0,0.0,0.0,0.0,0.0,0.0,0.0,0.0,0.0,0.0,0.0,0.0,0.0,0.0,0.0,0.0,0.0,0.0,0.0,0.0,0.0,0.0,0.0,0.0,0.0,0.0,0.0,0.0,0.0,0.0,0.0,0.0,0.0,0.0,0.0,0.0,0.0,0.0,0.0,0.0,0.0,0.0,0.0,0.0,0.0,0.0,0.0,0.0,0.0,0.0,0.0,0.0,0.0,0.0,0.0,0.0,0.0,0.0,0.0,0.0,0.0,0.0,0.0,0.0,0.0,0.0,0.0,0.0,0.0,0.0,0.0,0.0,0.0,0.0,0.0,0.0,0.0,0.0,0.0,0.0,0.0,0.0,0.0,0.0,0.0,0.0,-0.0965,-0.0665,-0.0867,-0.1968,-0.2397,-0.2975,-0.3743,-0.4231,-0.4519,-0.4519,0.0,0.0,0.0,0.0,0.0,0.0,0.0,0.0,0.0,0.0,0.0,0.0,0.0,0.0,0.0,0.0,0.0,0.0,0.0,0.0,0.0,0.0,0.0,0.0,0.0,0.0,0.0,0.0,0.0,0.0,0.0,0.0,0.0,0.0,0.0,0.0,0.0,0.0,0.0,0.0,0.0,0.0,0.0,0.0,0.0,0.0,0.0,0.0,0.0,0.0,0.0,0.0,0.0,0.0,0.0,0.0,0.0,0.0,0.0,0.0,0.0,0.0,0.0,0.0,0.0,0.0,0.0,0.0,0.0,0.0,0.0,0.0,0.0,0.0,0.0,0.0,0.0,0.0,0.0,0.0,0.0,0.0,0.0,0.0,0.0,0.0,0.0,0.0,0.0,0.0,0.0,0.0,0.0,0.0,0.0,0.0,0.0,0.0,0.0,0.0,0.0,0.0,-0.237,-0.1672,-0.1717,-0.3451,-0.3404,-0.3639,-0.4418,-0.4519,-0.4519,-0.4519,0.0,0.0,0.0,0.0,0.0,0.0,0.0,0.0,0.0,0.0,0.0,0.0,0.0,0.0,0.0,0.0,0.0,0.0,0.0,0.0,0.0,0.0,0.0,0.0,0.0,0.0,0.0,0.0,0.0,0.0,0.0,0.0,0.0,0.0,0.0,0.0,0.0,0.0,0.0,0.0,0.0,0.0,0.0,0.0,0.0,0.0,0.0,0.0,0.0,0.0,0.0,0.0,0.0,0.0,0.0,0.0,0.0,0.0,0.0,0.0,-0.078,-0.1169,0.0,0.0,0.0,0.0,0.0,0.0,0.0,0.0,0.0,0.0,0.0,0.0,0.0,0.0,0.0,0.0,0.0,0.0,0.0,0.0,0.0,0.0,0.0,0.0,0.0,0.0,0.0,0.0,0.0,0.0,0.0,0.0,0.0,0.0,0.0,0.0,0.0,0.0,0.0,0.0,-0.2493,-0.1735,-0.1717,-0.3451,-0.3404,-0.3639,-0.4418,-0.4519,-0.4519,-0.4519,-0.5273,0.0,0.0,0.0,0.0,0.0,0.0,0.0,0.0,0.0,0.0,0.0,0.0,0.0,0.0,0.0,0.0,0.0,0.0,0.0,0.0,0.0,0.0,0.0,0.0,0.0,0.0,0.0,0.0,0.0,0.0,0.0,0.0,0.0,0.0,0.0,0.0,0.0,0.0,0.0,0.0,0.0,0.0,0.0,0.0,0.0,0.0,0.0,0.0,0.0,0.0,0.0,0.0,0.0,0.0,0.0,0.0,0.0,0.0,0.0,-0.0414,-0.0764,0.0,0.0,0.0,0.0,0.0,0.0,0.0,0.0,0.0,0.0,0.0,0.0,0.0,0.0,0.0,0.0,0.0,0.0,0.0,0.0,0.0,0.0,0.0,0.0,0.0,0.0,0.0,0.0,0.0,0.0,0.0,0.0,0.0,0.0,0.0,0.0,0.0,0.0,0.0,0.0,-0.3643,-0.2892,-0.2797,-0.3977,-0.3969,-0.4035,-0.4467,-0.4519,-0.4519,-0.4519,-0.5109,0.0,0.0,0.0,0.0,0.0,0.0,0.0,0.0,0.0,0.0,0.0,0.0,0.0,0.0,0.0,0.0,0.0,0.0,0.0,0.0,0.0,0.0,0.0,0.0,0.0,0.0,0.0,0.0,0.0,0.0,0.0,0.0,0.0,0.0,0.0,0.0,0.0,0.0,0.0,0.0,0.0,0.0,0.0,0.0,0.0,0.0,0.0,0.0,0.0,0.0,0.0,0.0,0.0,0.0,0.0,0.0,0.0,0.0,0.0,0.0,-0.0363,-0.0929,-0.1281,0.0,0.0,0.0,0.0,0.0,0.0,0.0,0.0,0.0,0.0,0.0,0.0,0.0,0.0,0.0,0.0,0.0,0.0,0.0,0.0,0.0,0.0,-0.239,-0.1364,-0.0561,-0.0143,-0.0762,0.0,0.0,0.0,0.0,0.0,0.0,0.0,0.0,0.0,0.0,0.0,-0.4846,-0.4131,-0.3884,-0.4646,-0.4555,-0.4519,-0.4519,-0.4519,-0.4519,-0.4519,-0.5003,-0.5378,0.0,0.0,0.0,0.0,0.0,0.0,0.0,0.0,0.0,0.0,0.0,0.0,0.0,0.0,0.0,0.0,0.0,0.0,0.0,0.0,0.0,0.0,0.0,0.0,0.0,0.0,0.0,0.0,0.0,0.0,0.0,0.0,0.2293,0.232,0.0,0.0,0.0,0.0,0.0,0.0,0.0,0.0,0.0,0.0,0.0,0.0,0.0,0.0,0.0,0.0,0.0,0.0,0.0,0.0,0.0,0.0,0.0,0.0,0.0,0.0,-0.0301,-0.1996,0.0,0.0,0.0,0.0,0.0,0.0,0.0,0.0,0.0,0.0,0.0,0.0,0.0,0.0,0.0,0.0,0.0,0.0,0.0,0.0,0.0,0.0,-0.2755,-0.1534,-0.063,0.0,-0.0148,-0.0147,-0.0358,-0.0976,-0.1109,-0.1635,0.0,0.0,0.0,0.0,0.0,0.0,-0.4975,-0.4179,-0.3884,-0.4646,-0.4555,-0.4519,-0.4519,-0.4519,-0.4519,-0.4519,-0.457,-0.4893,-0.5487,-0.5597,0.0,0.0,0.0,0.0,0.0,0.0,0.0,0.0,0.0,0.0,0.0,0.0,0.0,0.0,0.0,0.0,0.0,0.0,0.0,0.0,0.0,0.0,0.0,0.0,0.0,0.0,0.0,0.0,0.0,0.3037,0.3179,0.3114,0.2579,0.1939,0.0,0.0,0.0,0.0,0.0,0.0,0.0,0.0,0.0,0.0,0.0,0.0,0.0,0.0,0.0,0.0,0.0,0.0,0.0,0.0,0.0,0.0,0.0,0.0,-0.0075,-0.1567,-0.2453,-0.3034,0.0,0.0,0.0,0.0,-0.5684,-0.5633,-0.5806,-0.581,-0.5722,-0.5637,0.0,0.0,0.0,0.0,0.0,0.0,0.0,-0.5148,0.0,0.0,-0.2466,-0.0927,-0.0287,0.0,0.0,0.0,-0.0223,-0.1026,-0.1681,-0.2442,-0.3603,-0.384,0.0,0.0,0.0,-0.4613,-0.4275,-0.4273,-0.4401,-0.4589,-0.456,-0.4519,-0.4519,-0.4519,-0.4519,-0.4519,-0.4519,-0.4625,-0.4948,-0.4948,-0.5277,0.0,0.0,0.0,0.0,0.0,0.0,0.0,0.0,0.0,0.0,0.0,0.0,0.0,0.0,0.0,0.0,0.0,0.0,0.0,0.0,0.0,0.0,0.0,0.0,0.0,0.0,0.0,0.0,0.3938,0.4099,0.3982,0.3613,0.2988,0.0,0.0,0.0,0.0,0.0,0.0,0.0,0.0,0.0,0.0,0.0,0.0,0.0,0.0,0.0,0.0,0.0,0.0,0.0,0.0,0.0,0.0,0.0,0.0,-0.0075,-0.142,-0.2332,-0.3114,-0.4469,-0.5325,-0.5932,-0.6047,-0.6017,-0.5952,-0.6183,-0.6186,-0.6071,-0.5956,-0.5891,-0.582,-0.5599,0.0,0.0,0.0,0.0,-0.517,-0.3635,-0.3187,-0.2591,-0.0782,-0.0357,-0.0286,-0.0072,-0.022,-0.0521,-0.0905,-0.1822,-0.2699,-0.3201,-0.3736,0.0,-0.4036,-0.4821,-0.5055,-0.4086,-0.4485,-0.4802,-0.4553,-0.4519,-0.4519,-0.4519,-0.4519,-0.4519,-0.4519,-0.4519,-0.4519,-0.4519,-0.4519,-0.4732,-0.5218,0.0,0.0,0.0,0.0,0.0,0.0,0.0,0.0,0.0,0.0,0.0,0.0,0.0,0.0,0.0,0.0,0.0,0.0,0.0,0.0,0.0,0.0,0.0,0.0,0.0,0.0,0.0,0.0,0.0,0.5044,0.4643,0.0,0.0,0.0,0.0,0.1531,0.0571,0.0,0.0,0.0,0.0,0.0,0.0,0.0,0.0,0.0,0.0,0.0,0.0,0.0,0.0,0.0,0.0,0.0,0.0,0.0,-0.0146,-0.2167,-0.3057,-0.3274,-0.5375,-0.6237,-0.6237,-0.6247,-0.6244,-0.624,-0.6254,-0.6254,-0.6247,-0.624,-0.6139,-0.6017,-0.6,-0.5895,0.0,0.0,-0.5786,-0.5532,-0.4429,-0.4122,-0.3606,-0.1692,-0.1212,-0.1018,-0.021,-0.0773,-0.1211,-0.0225,-0.0925,-0.1617,-0.1464,0.0,-0.4129,-0.4048,-0.4821,-0.5254,-0.4894,-0.4857,-0.4802,-0.4553,-0.4519,-0.4519,-0.4519,-0.4519,-0.4519,-0.4519,-0.4519,-0.4519,-0.4519,-0.4519,-0.4519,-0.4574,-0.5164,0.0,0.0,0.0,0.0,0.0,0.0,0.0,0.0,0.0,0.0,0.0,0.0,0.0,0.0,0.0,0.0,0.0,0.0,0.0,0.0,0.0,0.0,0.0,0.0,0.0,0.0,0.0,0.0,0.5426,0.5476,0.0,0.4453,0.3203,0.2236,0.1616,0.0594,0.0,0.0,0.0,0.0,0.0,0.0,0.0,0.0,0.0,0.0,0.0,0.0,0.0,0.0,0.0,0.0,0.0,0.0,0.0,-0.0142,-0.1576,-0.2479,-0.3205,-0.5217,-0.5966,-0.5966,-0.5966,-0.5966,-0.5966,-0.5966,-0.5966,-0.5966,-0.5966,-0.5928,-0.5881,-0.5881,-0.5844,-0.58,-0.58,-0.5735,-0.544,-0.4477,-0.4132,-0.371,-0.2364,-0.1654,-0.1205,-0.0799,-0.0615,-0.0423,-0.0072,-0.0883,-0.1552,-0.1355,-0.1841,-0.2307,-0.229,-0.3031,-0.3339,-0.2532,-0.338,-0.3987,-0.3752,-0.4184,-0.4519,-0.4519,-0.4519,-0.4519,-0.4519,-0.4519,-0.4519,-0.4519,-0.4519,-0.4519,-0.4519,-0.4732,-0.4838,0.0,0.0,0.0,0.0,0.0,0.0,0.0,0.0,0.0,0.0,0.0,0.0,0.0,0.0,0.0,0.0,0.0,0.0,0.0,0.0,0.0,0.0,0.0,0.0,0.0,0.5369,0.5589,0.5589,0.5803,0.5672,0.495,0.4,0.3036,0.2112,0.1134,0.0382,0.0,0.0,0.0,0.0,0.0,0.0,0.0,0.0,0.0,0.0,0.0,0.0,0.0,0.0,0.0,0.0,0.0,0.0,-0.0069,-0.1104,-0.181,-0.255,-0.4607,-0.5362,-0.5365,-0.5728,-0.58,-0.58,-0.58,-0.58,-0.58,-0.58,-0.58,-0.58,-0.58,-0.58,-0.5789,-0.5742,-0.5661,-0.5438,-0.4763,-0.4517,-0.4137,-0.3159,-0.2521,-0.1943,-0.1527,-0.112,-0.0819,-0.0819,-0.1271,-0.1442,-0.0914,-0.1397,-0.1798,-0.1749,-0.2569,-0.2953,-0.247,-0.3378,-0.3926,-0.3752,-0.4181,-0.4519,-0.4519,-0.4519,-0.4519,-0.4519,-0.4519,-0.4519,-0.4519,-0.4519,-0.4519,-0.4519,-0.4519,-0.4543,-0.4594,0.0,0.0,0.0,0.0,0.0,0.0,0.0,0.0,0.0,0.0,0.0,0.0,0.0,0.0,0.0,0.0,0.0,0.0,0.0,0.0,0.0,0.0,0.0,0.5442,0.5504,0.5599,0.5603,0.5722,0.5745,0.561,0.4899,0.4061,0.3015,0.2112,0.1144,0.0078,0.0077,0.0,0.0,0.0,0.0,0.0,0.0,0.0,0.0,0.0,0.0,0.0,0.0,0.0,0.0,0.0,0.0,-0.0067,-0.0938,-0.1271,-0.1479,-0.3611,-0.448,-0.4552,-0.5425,-0.5786,-0.5786,-0.5786,-0.5786,-0.5786,-0.5786,-0.5786,-0.5786,-0.5786,-0.5786,-0.5759,-0.5623,-0.5583,-0.5549,-0.5396,-0.5243,-0.4871,-0.4027,-0.3695,-0.3376,-0.2455,-0.2387,-0.2505,-0.2505,-0.1992,-0.1295,-0.0282,-0.1676,-0.2832,-0.269,-0.3407,0.0,-0.4768,-0.485,-0.4733,-0.4494,-0.4463,-0.4519,-0.4519,-0.4519,-0.4519,-0.4519,-0.4519,-0.4519,-0.4519,-0.4522,-0.4525,-0.4525,-0.4529,-0.4548,-0.4691,0.0,0.0,0.0,0.0,0.0,0.0,0.0,0.0,0.0,0.0,0.0,0.0,0.0,0.0,0.0,0.0,0.0,0.0,0.0,0.0,0.0,0.4948,0.5676,0.5671,0.5718,0.5783,0.5895,0.5844,0.5786,0.5745,0.487,0.4181,0.3889,0.2935,0.1988,0.0965,0.0959,0.0662,0.0,0.0,0.0,0.0,0.0,0.0,0.0,0.0,0.0,0.0,0.0,0.0,0.0,0.0,0.0,0.0,-0.0255,-0.0379,-0.0572,-0.248,-0.3557,-0.4175,-0.4382,-0.4931,-0.5484,-0.5484,-0.5484,-0.5484,-0.5484,-0.5484,-0.5484,-0.5484,-0.5484,-0.5474,-0.5437,-0.5423,-0.5389,-0.5233,-0.5162,-0.5014,-0.4556,-0.4013,-0.3479,-0.3161,-0.2677,-0.2302,-0.2302,-0.226,-0.2206,-0.1962,-0.237,-0.2769,-0.2681,-0.2845,0.0,-0.314,-0.3541,-0.3755,-0.363,-0.4125,-0.4519,-0.4519,-0.4519,-0.4519,-0.4519,-0.4519,-0.4519,-0.4519,-0.4568,-0.4626,-0.4626,-0.4735,-0.4758,0.0,0.0,0.0,0.0,0.0,0.0,0.0,0.0,0.0,0.0,0.0,0.0,0.0,0.0,0.0,0.0,0.0,0.0,0.0,0.0,0.0,0.0,0.529,0.581,0.5793,0.58,0.5813,0.584,0.5708,0.5616,0.5616,0.5109,0.4572,0.4141,0.3641,0.2942,0.196,0.1869,0.1644,0.1144,0.0716,0.057,0.0563,0.0208,0.0,0.0,0.0,0.0,0.0,0.0,0.0,0.0,0.0,0.0,0.0,0.0,0.0,0.0,0.0,0.0,0.0,0.0,-0.4461,-0.5176,-0.5176,-0.5176,-0.5176,-0.5176,-0.5216,-0.5264,-0.5264,-0.5311,-0.5415,-0.5284,-0.5264,-0.523,-0.5081,-0.4996,-0.4904,-0.4731,-0.4354,-0.3934,-0.386,-0.3533,-0.3251,-0.3251,-0.3397,0.0,-0.3608,-0.3097,-0.2667,-0.2701,-0.2875,-0.2915,-0.254,-0.3092,-0.3342,-0.2903,-0.3234,-0.3511,-0.3511,-0.3511,0.0,0.0,0.0,-0.3535,-0.3527,-0.3595,0.0,0.0,0.0,0.0,0.0,0.0,0.0,0.0,-0.3821,-0.3549,0.0,0.0,0.0,0.0,0.0,0.0,0.0,0.0,0.0,0.0,0.0,0.0,0.0,0.0,0.0,0.0,0.5657,0.5783,0.5779,0.5762,0.5711,0.5603,0.5454,0.5428,0.5428,0.5484,0.5215,0.4235,0.4237,0.393,0.2873,0.2814,0.0,0.0,0.0,0.1441,0.1268,0.0536,0.0066,0.0,0.0,0.0,0.0,0.0,0.0,0.0,0.0,0.0,0.0,0.0,0.0,-0.0059,-0.0975,-0.1293,-0.1477,-0.3073,-0.4119,-0.4796,-0.4796,0.0,0.0,-0.4918,-0.5003,-0.5104,-0.5104,-0.5203,-0.5284,-0.5145,-0.5104,-0.5074,-0.4928,-0.4792,-0.4687,-0.467,-0.4562,-0.446,-0.4405,-0.4455,-0.449,-0.4429,-0.4548,-0.4648,-0.4648,-0.3712,-0.2892,-0.2819,-0.3371,-0.3487,-0.2598,-0.3038,-0.3113,-0.2294,0.0,0.0,-0.2174,-0.2174,-0.2174,-0.2174,-0.2174,-0.2208,-0.2224,-0.2227,-0.2256,-0.226,-0.2268,-0.2364,-0.2495,-0.2495,-0.2535,-0.2541,-0.3113,-0.2959,0.0,0.0,0.0,0.0,0.0,0.0,0.0,0.0,0.0,0.0,0.0,0.0,0.0,0.0,0.0,0.5126,0.5604,0.5748,0.5637,0.5525,0.5484,0.5579,0.5454,0.5428,0.5428,0.5456,0.5339,0.5132,0.5132,0.4736,0.3808,0.3722,0.3442,0.27,0.2496,0.2066,0.1298,0.1104,0.0705,0.0,0.0,0.0,0.0,0.0,0.0,0.0,0.0,0.0,0.0,0.0,0.0,-0.0114,-0.0965,-0.1293,-0.1416,-0.2521,-0.3381,-0.3994,-0.3994,-0.4427,-0.4918,-0.4918,-0.4938,-0.4958,-0.4958,-0.4982,0.0,-0.4969,-0.4958,-0.4925,-0.4772,-0.4714,-0.466,-0.4535,-0.4539,-0.4349,-0.3735,-0.3585,-0.3378,-0.2815,-0.2834,-0.2958,-0.2958,-0.3785,-0.4241,-0.366,-0.3638,-0.3387,-0.2583,-0.2463,-0.2415,-0.2233,-0.2174,-0.2174,-0.2174,-0.2174,-0.2174,-0.2174,-0.2174,-0.2266,-0.2459,-0.2463,-0.247,-0.2427,-0.2534,-0.2573,-0.248,-0.2606,-0.2294,-0.1607,-0.1722,-0.1654,0.0,0.0,0.0,0.0,0.0,0.0,0.0,0.0,0.0,0.0,0.0,0.0502,0.2246,0.0,0.3418,0.5145,0.5511,0.5545,0.5376,0.5233,0.5196,0.5342,0.523,0.5142,0.5142,0.5142,0.5142,0.5142,0.5142,0.4944,0.4492,0.4429,0.4235,0.3786,0.34,0.2931,0.2452,0.2012,0.1364,0.0542,0.0542,0.0358,0.0,0.0,0.0,0.0,0.0,0.0,0.0,0.0,0.0,-0.0056,-0.0465,-0.0882,-0.1233,-0.1702,-0.2346,-0.2988,-0.2988,-0.3457,-0.4042,-0.369,-0.3851,-0.4264,-0.4264,-0.4309,-0.4351,-0.4282,-0.4264,-0.4112,-0.3577,-0.3429,-0.3416,-0.3357,-0.3345,-0.3234,-0.2899,-0.2788,-0.2621,-0.2286,-0.2262,-0.2345,-0.2345,-0.3014,-0.3299,-0.2636,-0.2844,-0.2623,-0.1378,-0.1467,-0.1507,-0.1118,-0.1118,-0.1118,-0.1118,-0.1118,-0.1118,-0.1118,-0.1079,-0.1155,-0.1233,-0.1234,-0.1243,-0.1262,-0.1323,-0.1333,-0.1231,-0.1293,-0.1126,-0.0644,-0.0654,-0.0663,0.0,0.0,0.0,0.0,0.0,0.0,0.0,-0.1984,-0.1417,-0.027,0.0135,0.074,0.2412,0.2935,0.3597,0.5156,0.5335,0.5274,0.5148,0.4982,0.4918,0.5033,0.4969,0.4918,0.4918,0.4918,0.4918,0.4918,0.4918,0.4918,0.4918,0.4918,0.4918,0.4918,0.4238,0.3798,0.3593,0.2861,0.2098,0.1337,0.1337,0.0918,0.0224,0.0224,0.0112,0.0,0.0,0.0,0.0,0.0,0.0,0.0,0.0,-0.0336,-0.0895,-0.0895,-0.1341,-0.2009,-0.2009,-0.2454,-0.301,-0.2397,-0.2725,-0.3309,-0.3309,-0.3429,-0.3483,-0.3333,-0.3309,-0.3173,-0.2415,-0.2174,-0.2174,-0.2174,-0.2174,-0.2174,-0.2009,-0.2009,-0.1952,-0.1786,-0.1786,-0.1786,-0.1786,-0.1786,-0.1634,-0.1333,-0.1802,-0.167,-0.0169,-0.0504,-0.0671,-0.0056,0.0,0.0,0.0,0.0,0.0,0.0,0.0,0.0,0.0,0.0,0.0,0.0,0.0,0.0,0.0,0.0,0.0,0.0,0.0,0.0,-1.2329,-0.9821,-0.7758,-0.6924,-0.5077,-0.3277,0.0,-0.1294,-0.0202,-0.0067,0.0607,0.1482,0.2479,0.3338,0.4204,0.5223,0.5247,0.5148,0.5131,0.4891,0.4721,0.4738,0.4847,0.4918,0.4918,0.4918,0.4918,0.4918,0.4918,0.4918,0.4918,0.4918,0.4918,0.4918,0.4796,0.4366,0.3595,0.3475,0.2956,0.2076,0.2076,0.1681,0.095,0.095,0.0615,0.0,0.0,0.0,0.0,0.0,0.0,0.0,0.0,-0.0056,-0.0112,-0.0112,-0.0616,-0.1229,-0.1229,-0.173,-0.2286,-0.2232,-0.2293,-0.2355,-0.2355,-0.2361,-0.2368,-0.2357,-0.2355,-0.2354,-0.2233,-0.2174,-0.2174,-0.2174,-0.2174,-0.2009,-0.1341,-0.1229,-0.1006,-0.0392,-0.0224,-0.0224,-0.0224,-0.0224,-0.0449,-0.1011,-0.118,-0.0955,-0.0112,-0.0056,-0.0112,0.0,0.0,0.0,0.0,0.0,0.0,0.0,0.0,0.0,0.0,0.0,0.0,0.0,0.0,0.0,0.0,0.0,0.0,0.0,0.0,0.0,-1.1057,-0.8214,-0.6171,-0.5069,-0.3706,-0.2353,-0.1307,-0.0455,0.0337,0.1146,0.1687,0.229,0.3143,0.3942,0.4568,0.5142,0.5763,0.5998,0.5584,0.5665,0.5785,0.5785,0.5854,0.5563,0.4768,0.4653,0.4653,0.4653,0.4653,0.4653,0.4653,0.4653,0.4653,0.4653,0.4653,0.4508,0.41,0.41,0.3674,0.2843,0.2843,0.2454,0.173,0.173,0.134,0.0615,0.0168,0.0,0.0,0.0,0.0,0.0,0.0,0.0,0.0,0.0,-0.0168,-0.0448,-0.0448,-0.095,-0.1507,-0.1062,-0.1229,-0.1563,-0.1563,-0.1563,-0.1563,-0.1563,-0.1563,-0.1452,-0.1006,-0.0895,-0.0895,-0.0895,-0.0895,-0.0838,-0.0504,-0.0448,-0.0392,-0.0056,0.0,0.0,0.0,0.0,-0.0112,-0.0392,-0.0448,-0.0336,-0.0056,0.0,0.0,0.0,0.0,0.0,0.0,0.0,0.0,0.0,0.0,0.0,0.0,0.0,0.0,0.0,0.0,0.0,0.0,0.0451,0.0625,0.0642,0.1069,0.1267,-0.9874,-0.71,-0.5127,-0.3437,-0.2325,-0.1274,-0.0064,0.0513,0.1034,0.2004,0.2692,0.3268,0.3935,0.4748,0.5427,0.5596,0.6329,0.6734,0.6169,0.6392,0.6588,0.6588,0.6588,0.6209,0.5171,0.4897,0.4787,0.4787,0.4625,0.4519,0.4519,0.4519,0.4519,0.4519,0.4519,0.4519,0.4519,0.4519,0.4181,0.3622,0.3622,0.3234,0.2508,0.2286,0.1898,0.1341,0.0615,0.028,0.028,0.0056,0.0,0.0,0.0,0.0,0.0,0.0,0.0,0.0,0.0,-0.0336,-0.0727,-0.0168,-0.0336,-0.0783,-0.0783,-0.0783,-0.0783,-0.0783,-0.0783,-0.0671,-0.0112,0.0,0.0,0.0,0.0,0.0,0.0,0.0,0.0,0.0,0.0,0.0056,0.028,0.028,0.0392,0.056,0.0615,0.0448,0.0056,0.0168,0.028,0.028,0.0504,0.0615,0.0615,0.0615,0.0615,0.0615,0.0615,0.0615,0.0615,0.0615,0.0615,0.0615,0.0615,0.0615,0.0615,0.1118,0.1396,0.1397,0.1963,0.2344,-0.9332,-0.709,-0.4982,-0.2919,-0.1238,0.0113,0.0734,0.1513,0.2137,0.2209,0.3474,0.4643,0.4696,0.594,0.7002,0.7012,0.6939,0.6904,0.6847,0.6724,0.6588,0.6588,0.6588,0.6588,0.6534,0.5873,0.5487,0.5487,0.4842,0.4519,0.4519,0.4519,0.4519,0.4519,0.4519,0.4519,0.4519,0.4519,0.4463,0.446,0.446,0.407,0.3345,0.2565,0.2174,0.212,0.1396,0.1062,0.1006,0.028,0.0,0.0,0.0,0.0,0.0,0.0,0.0,0.0,0.0,0.0,-0.0056,0.0,0.0,-0.0056,-0.0056,-0.0056,-0.0056,-0.0056,-0.0056,-0.0056,0.0,0.0,0.0,0.0,0.0,0.0,0.0,0.0,0.0,0.0,0.0,0.0224,0.095,0.1062,0.1284,0.2009,0.212,0.1619,0.0168,0.0615,0.1062,0.1062,0.173,0.212,0.212,0.212,0.212,0.212,0.212,0.212,0.212,0.212,0.212,0.212,0.212,0.212,0.212,0.2174,0.2174,0.2176,0.2193,0.2696,-0.6115,-0.3165,-0.0279,0.0448,0.1452,0.2393,0.3065,0.3564,0.4116,0.4962,0.529,0.569,0.6665,0.7213,0.7533,0.7643,0.7938,0.8009,0.752,0.7776,0.8049,0.8049,0.8202,0.8312,0.8312,0.7051,0.6258,0.6258,0.6041,0.566,0.5164,0.5164,0.4948,0.4519,0.4519,0.4519,0.4519,0.4519,0.4519,0.4519,0.4519,0.4349,0.4125,0.3287,0.2954,0.2954,0.2174,0.184,0.1786,0.1006,0.0727,0.0671,0.0168,0.0,0.0,0.0,0.0,0.0,0.0,0.0,0.0,0.0,0.0,0.0,0.0,0.0,0.0,0.0,0.0,0.0,0.0,0.0,0.0,0.0,0.0,0.0,0.0,0.0392,0.0727,0.0727,0.1118,0.1563,0.1786,0.184,0.1898,0.2174,0.2174,0.2009,0.1507,0.1675,0.184,0.184,0.2063,0.2174,0.2174,0.2174,0.2174,0.2174,0.2174,0.2174,0.2174,0.2174,0.2174,0.2174,0.2174,0.2174,0.2174,0.2676,0.2954,0.3012,0.3495,0.391,-0.0616,0.2075,0.445,0.4842,0.506,0.5305,0.5823,0.6036,0.6346,0.718,0.727,0.7457,0.84,0.8666,0.8835,0.8945,0.9235,0.9347,0.8862,0.9235,0.951,0.951,0.9792,1.0035,1.0035,0.9112,0.8245,0.7383,0.697,0.6593,0.6087,0.5964,0.571,0.5281,0.5226,0.5226,0.5226,0.5226,0.5117,0.4838,0.4625,0.4519,0.4463,0.3956,0.3735,0.3735,0.2954,0.2619,0.251,0.1786,0.1507,0.1452,0.095,0.0783,0.0783,0.0783,0.0783,0.0727,0.0504,0.0392,0.0448,0.0727,0.0615,0.0392,0.0392,0.0224,0.0,0.0,0.0168,0.0336,0.0056,0.0168,0.0336,0.0056,0.0224,0.0392,0.0392,0.095,0.1507,0.1507,0.1898,0.2286,0.2565,0.2843,0.301,0.301,0.301,0.2843,0.2286,0.2454,0.2619,0.2619,0.2843,0.301,0.301,0.301,0.301,0.301,0.301,0.301,0.301,0.301,0.301,0.301,0.301,0.301,0.301,0.3511,0.3735,0.379,0.4294,0.4519,0.6906,0.8303,0.8978,0.9948,0.9501,0.8841,0.895,0.8949,0.8897,0.8936,0.9387,0.98,0.9869,1.0422,1.0906,1.0973,1.0939,1.0889,1.0939,1.0922,1.0855,1.0864,1.1239,1.1517,1.1464,1.1869,1.1182,0.8955,0.7846,0.7254,0.7146,0.6819,0.6642,0.6588,0.6588,0.6588,0.6588,0.6588,0.6253,0.5542,0.4897,0.457,0.457,0.457,0.457,0.4515,0.3843,0.3508,0.3342,0.2619,0.2286,0.2232,0.2232,0.2174,0.2174,0.2174,0.2174,0.212,0.1452,0.1174,0.1284,0.1953,0.173,0.1174,0.1174,0.0671,0.0112,0.0112,0.0615,0.1006,0.028,0.0615,0.1006,0.028,0.0671,0.1174,0.1228,0.1785,0.2286,0.2286,0.2341,0.2565,0.3345,0.4067,0.457,0.457,0.457,0.4067,0.2508,0.301,0.3456,0.3398,0.4122,0.457,0.4625,0.4625,0.4625,0.4625,0.4625,0.4625,0.4625,0.4625,0.4625,0.4625,0.4625,0.4625,0.4625,0.4625,0.4625,0.4625,0.4625,0.4625,1.3462,1.442,1.385,1.3972,1.3796,1.3351,1.2463,1.2054,1.188,1.1715,1.1361,1.1454,1.2474,1.2276,1.2328,1.3372,1.2692,1.2193,1.2704,1.249,1.2018,1.1513,1.1815,1.1852,1.1411,1.1633,1.1559,1.0933,1.014,0.9143,0.7993,0.7586,0.7182,0.6642,0.6588,0.6588,0.6588,0.6588,0.6534,0.6312,0.5601,0.5218,0.5218,0.5218,0.5218,0.5273,0.5655,0.5487,0.4882,0.4155,0.3498,0.2954,0.2397,0.2174,0.2174,0.2174,0.2174,0.2287,0.2676,0.2397,0.1952,0.212,0.2063,0.1898,0.1898,0.1786,0.1619,0.1619,0.1786,0.1898,0.1675,0.1786,0.1898,0.1675,0.1786,0.2062,0.2607,0.3324,0.3822,0.3822,0.3889,0.3959,0.4181,0.4783,0.5218,0.5218,0.571,0.555,0.4122,0.407,0.4398,0.4882,0.5105,0.5492,0.6046,0.6046,0.6046,0.6046,0.6046,0.6046,0.6046,0.6046,0.6046,0.6046,0.6046,0.6046,0.6046,0.6046,0.6046,0.6046,0.6046,0.6046,1.7881,1.8774,1.8496,1.7736,1.7455,1.706,1.5906,1.5148,1.4619,1.4255,1.3543,1.322,1.4004,1.3936,1.4031,1.4828,1.4505,1.4277,1.471,1.431,1.3776,1.3409,1.3472,1.3429,1.3084,1.3361,1.3329,1.2687,1.1502,1.0454,0.9583,0.9231,0.8751,0.8019,0.8019,0.7865,0.7563,0.7235,0.7074,0.7074,0.6362,0.5982,0.5982,0.5982,0.5982,0.5982,0.6421,0.6367,0.5928,0.5534,0.5148,0.4663,0.3941,0.3666,0.3611,0.3342,0.3231,0.3289,0.3735,0.3566,0.3231,0.3231,0.301,0.2732,0.2676,0.2454,0.2174,0.2174,0.2454,0.2619,0.2286,0.2454,0.273,0.2668,0.2945,0.3382,0.4084,0.4856,0.5366,0.5366,0.5378,0.5445,0.5445,0.5714,0.5982,0.5982,0.6312,0.6317,0.55,0.5445,0.555,0.5928,0.5982,0.6145,0.6588,0.6588,0.6588,0.6588,0.6588,0.6588,0.6588,0.6588,0.6588,0.6588,0.6588,0.6588,0.6588,0.6588,0.6588,0.6588,0.6588,0.6588,2.04,2.147,2.2178,2.0994,2.0674,2.0336,1.9208,1.8216,1.7366,1.6738,1.5897,1.5253,1.5251,1.5602,1.5936,1.5948,1.6397,1.6742,1.6754,1.6244,1.5804,1.5629,1.5522,1.5392,1.5241,1.557,1.5289,1.4014,1.2491,1.152,1.1305,1.0968,1.0517,0.9961,0.9909,0.9666,0.9061,0.8408,0.8084,0.8084,0.7379,0.695,0.6902,0.6902,0.6853,0.675,0.6858,0.6858,0.675,0.675,0.6696,0.6534,0.5873,0.5651,0.5597,0.5007,0.4736,0.4625,0.4625,0.457,0.4519,0.4519,0.407,0.3514,0.3456,0.301,0.2508,0.2508,0.2954,0.3342,0.2785,0.3174,0.3671,0.3707,0.42,0.4918,0.5612,0.6288,0.675,0.675,0.6642,0.6588,0.6588,0.6696,0.675,0.675,0.6804,0.6912,0.6912,0.6696,0.6642,0.675,0.675,0.6804,0.6858,0.6912,0.6912,0.6912,0.6912,0.6912,0.6912,0.6912,0.6912,0.6912,0.6912,0.6912,0.6912,0.6912,0.6912,0.6912,0.6912,0.6912,2.0173,2.1412,2.2269,2.2684,2.3374,2.3597,2.2194,2.1348,2.056,1.9483,1.863,1.8095,1.8099,1.8182,1.8234,1.8382,1.8417,1.8487,1.8561,1.8104,1.7384,1.6373,1.6221,1.5823,1.4912,1.4864,1.4804,1.4559,1.382,1.275,1.135,1.0968,1.0771,1.061,1.0618,1.0559,1.0466,1.0305,1.0254,1.0246,0.9489,0.8867,0.8317,0.8317,0.8013,0.7557,0.8156,0.0,0.7503,0.7503,0.7128,0.6588,0.648,0.6421,0.6367,0.6258,0.5878,0.5324,0.5324,0.4948,0.4519,0.4519,0.4405,0.4294,0.4294,0.4184,0.4125,0.4125,0.4184,0.4401,0.4827,0.5046,0.5265,0.5864,0.614,0.6416,0.7171,0.7444,0.7503,0.7503,0.702,0.6588,0.6588,0.7128,0.7503,0.7503,0.8049,0.8427,0.8427,0.7343,0.6858,0.745,0.7503,0.7777,0.8374,0.8427,0.8427,0.8427,0.8427,0.8427,0.8427,0.8427,0.8427,0.8427,0.8427,0.8427,0.8427,0.8427,0.8427,0.8427,0.8427,0.8427,2.0036,2.1279,2.235,2.2689,2.3879,2.4736,2.3881,2.2966,2.2037,2.0998,2.0047,1.9338,1.914,1.9169,1.9404,2.0105,2.003,2.0106,2.0705,1.9845,1.905,1.876,1.7639,1.6839,1.6576,1.6021,1.5511,1.5186,1.4903,1.4104,1.2679,1.1813,1.1316,1.1316,1.0965,1.0813,1.0813,1.0813,1.0813,1.0813,1.0434,1.012,0.9776,0.9422,0.9273,0.9325,0.9302,0.9295,0.9318,0.9318,0.911,0.8731,0.8351,0.7988,0.7635,0.7256,0.6676,0.6091,0.6091,0.5878,0.5609,0.5609,0.5332,0.5113,0.5496,0.5609,0.5609,0.5609,0.5609,0.566,0.5982,0.6091,0.6253,0.7015,0.745,0.783,0.8209,0.8262,0.8368,0.8718,0.8495,0.8383,0.8731,0.9058,0.9318,0.9318,0.9295,0.9309,0.9309,0.8712,0.829,0.8262,0.8262,0.8427,0.8752,0.9106,0.9309,0.9309,0.9666,0.9865,0.9865,0.9865,0.9865,0.9865,0.9865,0.9666,0.9309,0.9309,0.9159,0.8811,0.9159,0.9309,2.0033,2.1195,2.2404,2.2407,2.3769,2.5043,2.4775,2.3974,2.3069,2.2277,2.1281,2.0421,2.0059,2.0104,2.048,2.1347,2.1364,2.1652,2.2563,2.1463,2.0683,2.1079,1.9229,1.8091,1.8428,1.7486,1.6612,1.6015,1.5764,1.5129,1.405,1.2976,1.2444,1.2444,1.1796,1.1499,1.1639,1.1499,1.1499,1.1639,1.1499,1.1358,1.1208,1.0517,1.0415,1.0762,1.0269,1.0312,1.0813,1.0813,1.0813,1.0762,1.0163,0.96,0.9044,0.8351,0.7629,0.7063,0.7063,0.6956,0.6843,0.716,0.6568,0.5873,0.6421,0.6588,0.6588,0.6588,0.6691,0.6843,0.7009,0.7165,0.7427,0.8178,0.883,0.9211,0.9211,0.9211,0.9361,0.9909,1.0012,1.0167,1.072,1.0813,1.0813,1.0813,1.0364,1.0012,1.0012,1.0012,0.9814,0.9263,0.9211,0.9211,0.9211,0.971,1.0012,1.0012,1.0517,1.0813,1.0813,1.0813,1.0813,1.0813,1.0813,1.0517,1.0012,1.0012,0.9762,0.9263,0.9762,1.0012,2.0199,2.1313,2.2443,2.2702,2.3941,2.5062,2.4834,2.4655,2.4423,2.3952,2.3199,2.2471,2.1961,2.1993,2.213,2.205,2.2501,2.2998,2.3351,2.2732,2.2147,2.1843,2.0533,1.9525,1.9059,1.837,1.7733,1.7175,1.6188,1.532,1.4652,1.4514,1.4411,1.4411,1.3852,1.3805,1.4318,1.3805,1.3805,1.4318,1.3805,1.3226,1.257,1.1904,1.1316,1.0813,1.0712,1.0762,0.0,1.0813,1.0813,1.0813,1.0712,1.0661,1.0501,0.985,0.9117,0.8521,0.8521,0.8094,0.7712,0.9009,0.8088,0.6534,0.6588,0.6588,0.6588,0.6588,0.7047,0.7664,0.8311,0.8971,0.9585,1.034,1.0559,1.0618,1.0618,1.0618,1.061,1.0712,1.072,1.072,1.0762,1.0813,1.0813,1.0813,1.0771,1.072,1.072,1.072,1.0661,1.0618,1.0618,1.0618,1.0618,1.0661,1.072,1.072,1.0771,1.0813,1.0813,1.0813,1.0813,1.0813,1.0813,1.0771,1.072,1.072,1.0661,1.0618,1.0661,1.072,2.0676,2.137,2.2034,2.2447,2.3617,2.4728,2.4926,2.4959,2.4954,2.4987,2.4228,2.3548,2.3473,2.2784,2.2562,2.3666,2.3409,2.3547,2.4806,2.4579,2.4023,2.3463,2.2353,2.1269,2.0258,1.9291,1.8452,1.7814,1.7354,1.6844,1.6318,1.5264,1.4698,1.4698,1.4468,1.4468,1.4698,1.4468,1.4468,1.4698,1.4468,1.4179,1.3924,1.3243,1.2994,1.3148,1.2696,1.2561,0.0,1.3004,1.2735,1.2098,1.2453,1.2101,1.1366,1.1116,1.0551,0.9982,0.9982,0.9761,0.96,1.0171,0.9813,0.9148,0.9148,0.9148,0.9148,0.9148,0.9297,0.96,0.9872,1.0179,1.0434,1.0712,1.0813,1.0813,1.0813,1.1099,1.1332,1.1408,1.1747,1.2003,1.2039,1.2049,1.2049,1.2049,1.1683,1.1416,1.1416,1.1416,1.1416,1.1416,1.1065,1.0813,1.0813,1.1166,1.1416,1.1416,1.1841,1.2049,1.2049,1.2049,1.2049,1.2049,1.2049,1.1841,1.1416,1.1416,1.1216,1.0813,1.1216,1.1416,2.1288,2.1832,2.2334,2.2757,2.3694,2.462,2.5008,2.5132,2.5274,2.5672,2.4942,2.4302,2.4503,2.3387,2.2934,2.4527,2.4053,2.4192,2.6154,2.6112,2.5828,2.5607,2.4572,2.329,2.1847,2.0091,1.8843,1.8369,1.8185,1.7947,1.7544,1.6366,1.564,1.5487,1.5141,1.5141,1.5487,1.5141,1.5141,1.5443,1.5141,1.505,1.5174,1.4378,1.425,1.4652,1.4204,1.4018,0.0,1.4514,1.4201,1.3478,1.392,1.3511,1.2628,1.2434,1.2083,1.1688,1.1688,1.1539,1.1449,1.1837,1.1837,1.1697,1.1886,1.1399,1.0813,1.0813,1.1107,1.1449,1.1648,1.1846,1.1935,1.1935,1.1935,1.1935,1.1935,1.2308,1.259,1.2628,1.3062,1.3369,1.342,1.343,1.343,1.343,1.3006,1.2677,1.2677,1.2492,1.2395,1.2395,1.1823,1.1434,1.1434,1.1832,1.2129,1.2129,1.2608,1.2881,1.2881,1.2881,1.2968,1.3152,1.3152,1.2929,1.2395,1.2395,1.2061,1.1434,1.1931,1.2129,2.2102,2.2875,2.3738,2.3932,2.4397,2.4851,2.504,2.52,2.5452,2.5985,2.5399,2.4813,2.4874,2.395,2.343,2.4201,2.4419,2.5171,2.7091,2.7205,2.7421,2.8255,2.7178,2.5623,2.3756,2.0729,1.8893,1.8893,1.8419,1.8106,1.8106,1.8052,1.7814,1.7312,1.6188,1.6145,1.7271,1.6145,1.6145,1.7271,1.6145,1.5884,1.6336,1.5219,1.4698,1.4698,1.4698,1.4709,0.0,1.4698,1.4709,1.4698,1.4709,1.4698,1.4606,1.3903,1.3695,1.3648,1.3648,1.328,1.3014,1.4261,1.4283,1.3862,1.4468,1.285,1.0813,1.0813,1.1747,1.2918,1.3616,1.419,1.4652,1.4652,1.4652,1.4652,1.4652,1.4652,1.4652,1.4652,1.4698,1.4698,1.4698,1.4698,1.4698,1.4698,1.4652,1.4652,1.4652,1.4143,1.3768,1.3768,1.3238,1.2881,1.2881,1.2881,1.2881,1.2881,1.2881,1.2881,1.2881,1.2881,1.32,1.3779,1.3779,1.3779,1.3768,1.3768,1.3457,1.2881,1.2881,1.2881,2.2711,2.3213,2.3638,2.3934,2.4372,2.481,2.5046,2.5234,2.5514,2.5998,2.5834,2.5541,2.5291,2.4751,2.4782,2.6068,2.589,2.6364,2.8595,2.9047,2.8732,2.7633,2.5513,2.3919,2.3306,2.149,2.0333,2.0333,2.0165,1.9928,1.9531,1.9531,1.9001,1.7894,1.7518,1.7477,1.7827,1.7477,1.7477,1.7827,1.7477,1.7395,1.7558,1.7205,1.704,1.704,1.704,1.6777,1.6426,1.6464,1.599,1.5274,1.5309,1.505,1.4652,1.4457,1.44,1.44,1.44,1.4261,1.4168,1.456,1.4801,1.4993,1.5173,1.4402,1.349,1.349,1.3784,1.4168,1.4376,1.4571,1.4698,1.4698,1.4698,1.4698,1.4698,1.5017,1.5186,1.4789,1.5005,1.5186,1.4789,1.4698,1.4698,1.4698,1.4698,1.4698,1.4698,1.4514,1.4422,1.4422,1.4247,1.38,1.2978,1.3286,1.3505,1.3505,1.3873,1.4107,1.4107,1.4107,1.4201,1.4422,1.4422,1.4422,1.4422,1.4422,1.434,1.4107,1.4107,1.4107,2.3367,2.3692,2.3952,2.43,2.4607,2.4909,2.5157,2.5321,2.5644,2.6489,2.6314,2.6097,2.6357,2.5844,2.5705,2.6794,2.6872,2.7412,2.9106,2.9903,2.9797,2.8402,2.5606,2.3821,2.3821,2.2116,2.0991,2.0991,2.0991,2.0846,2.052,2.052,2.01,1.9214,1.8631,1.8454,1.8646,1.8454,1.8391,1.8419,1.8391,1.8391,1.838,1.8185,1.821,1.8377,1.8377,1.8257,0.0,1.8074,1.7638,1.6993,1.7032,1.6785,1.6481,1.6481,1.6481,1.6481,1.6481,1.63,1.6131,1.6236,1.646,1.677,1.6924,1.6168,1.5262,1.5061,1.5163,1.5398,1.5584,1.564,1.574,1.5935,1.5816,1.5664,1.5664,1.5808,1.582,1.5466,1.5852,1.6058,1.5466,1.5543,1.562,1.5421,1.5389,1.5389,1.5389,1.5197,1.5062,1.5062,1.4835,1.4387,1.3658,1.392,1.4143,1.4143,1.4468,1.4698,1.4698,1.4698,1.4789,1.5062,1.5062,1.5062,1.5062,1.4789,1.4698,1.4698,1.4698,1.4698,0.0,2.4302,2.4591,2.4935,2.5072,2.5178,2.5362,2.5464,0.0,2.7242,2.6795,2.6561,2.7867,2.7074,2.6363,2.679,2.7547,2.8326,2.8994,2.9929,3.0437,3.0051,2.7021,2.4995,2.4978,2.2639,2.1086,2.1086,2.1086,2.1086,2.1086,2.1086,2.1086,2.1086,1.9723,1.9236,1.9677,1.9214,1.9008,1.9066,1.9008,1.9008,1.9029,1.8521,1.8555,1.8979,1.8979,1.9192,1.9527,1.9456,1.9456,1.9456,1.9405,1.9405,1.9405,1.9405,1.9405,1.9405,1.9405,1.903,1.8592,1.8832,1.889,1.895,1.9328,1.8051,1.638,1.5862,1.6127,1.6634,1.7137,1.73,1.7463,1.7987,1.7706,1.7353,1.7353,1.6951,1.6595,1.6595,1.7034,1.7188,1.671,1.7034,1.7188,1.668,1.6595,1.6595,1.6595,1.6126,1.5752,1.572,1.5231,1.488,1.4835,1.4789,1.4744,1.4744,1.4789,1.4846,1.4846,1.4846,1.5107,1.5632,1.5676,1.5676,1.5676,1.5096,1.4846,1.4846,1.4846,1.4846,2.4744,0.0,2.4786,2.5013,2.5278,2.5473,0.0,2.5987,2.6508,2.665,2.7304,2.7894,2.8073,2.7717,2.783,2.9122,2.9297,2.9579,3.0606,2.9954,2.9227,2.8853,2.6315,2.4743,2.506,2.3224,2.1974,2.1974,2.1974,2.1974,2.1974,2.1974,2.1974,2.1974,2.1305,2.0863,2.0682,2.0552,2.0485,2.0501,2.0485,2.0485,2.0501,2.0385,2.0369,2.0485,2.0485,2.0552,2.0602,2.0156,2.0005,1.997,1.9562,1.9405,1.9405,1.9405,1.9405,1.9405,1.9405,1.9319,1.9269,1.9712,1.9882,1.9882,1.997,1.9163,1.8201,1.8046,1.7865,1.772,1.784,1.7894,1.7947,1.8066,1.7987,1.7907,1.7907,1.7827,1.7706,1.7706,1.7827,1.7867,1.7747,1.7827,1.7867,1.7747,1.7706,1.7706,1.7706,1.7612,1.7354,1.6925,1.6786,1.6502,1.6107,1.5644,1.541,1.541,1.5832,1.6064,1.6064,1.6064,1.6151,1.6281,1.6281,1.6281,1.6281,1.6151,1.6064,1.6064,1.6064,1.6064,2.5043,2.5348,2.5581,2.5828,2.6047,2.6171,2.6119,2.6452,2.6831,2.6919,2.7709,2.8459,2.8651,2.8812,2.9182,3.0063,3.0493,3.0848,3.1257,3.0276,2.9158,2.8016,2.6031,2.4712,2.4549,2.3181,2.2415,2.2686,2.2581,2.2554,2.2695,2.2712,2.2712,2.2712,2.2459,2.2068,2.1502,2.1502,2.1411,2.1227,2.1411,2.1411,2.1227,2.1227,2.1409,2.1732,2.1732,2.1836,2.1978,2.1695,2.1574,2.1529,2.1256,2.1133,2.1133,2.1133,2.1133,2.1133,2.1133,2.1012,2.0936,2.1424,2.144,2.1308,2.1341,2.0846,2.0195,1.9622,1.9126,1.8873,1.9339,1.9119,1.891,1.9339,1.9082,1.8797,1.8797,1.8608,1.8416,1.8416,1.8769,1.8941,1.8478,1.8646,1.8622,1.8171,1.8106,1.8106,1.8106,1.8106,1.7987,1.7706,1.7666,1.7544,1.7271,1.6941,1.6646,1.6403,1.6685,1.6993,1.7229,1.6993,1.6752,1.6522,1.6522,1.6522,1.6522,1.6522,1.6522,1.6522,1.6522,1.6522,2.5363,2.6047,2.6662,2.6633,2.6757,2.6885,2.6821,2.6903,2.7133,2.7698,2.8251,2.8832,2.9471,2.9987,3.0346,3.038,3.1183,3.1667,3.1298,3.0548,2.9334,2.75,2.6011,2.4861,2.4112,2.3072,2.2634,2.3165,2.2947,2.2898,2.3189,2.3189,2.3189,2.3189,2.3189,2.2912,2.2354,2.23,2.209,2.1745,2.2107,2.209,2.1761,2.1761,2.2112,2.2693,0.0,0.0,2.3189,2.3189,2.3236,2.3241,2.3241,2.3247,2.3293,2.3264,2.3287,2.3293,2.3264,2.2999,2.276,2.31,2.2968,2.271,2.2754,2.253,2.2046,2.0972,2.0239,2.0008,2.0781,2.04,2.0008,2.0813,2.04,1.9818,1.9818,1.9468,1.9163,1.9163,1.9793,2.007,1.9258,1.9504,1.9534,1.8684,1.8531,1.8531,1.8531,1.8531,1.8507,1.8352,1.8327,1.8288,1.8106,1.8106,1.7947,1.7585,1.7463,1.7626,1.8066,1.7666,1.7188,1.6752,1.6752,1.6752,1.6752,1.6752,1.6752,1.6752,1.6752,1.6752,2.6358,2.7276,2.7571,2.6133,2.6351,2.6898,2.6893,2.7375,2.7978,2.8582,2.9257,2.9886,3.0333,3.0675,3.0954,3.1188,3.1093,3.098,3.0962,2.9929,2.8681,2.7368,2.6161,2.525,2.4795,2.3715,2.3111,2.3189,2.3141,2.3141,2.3189,2.3189,2.3189,2.3189,2.3189,2.3282,2.3459,2.3171,2.3003,2.2937,2.3003,2.3003,2.2937,2.2937,2.2986,2.31,0.0,2.3124,2.3189,2.3189,2.3298,2.3448,2.3448,2.356,2.3686,2.3515,2.356,2.3686,2.3515,2.3307,2.3124,2.3189,2.3165,2.31,2.3117,2.3093,2.2986,2.2803,2.1802,2.0813,2.0959,2.0894,2.0813,2.0959,2.0894,2.0781,2.0781,2.0715,2.0667,2.0667,2.0765,2.0846,2.0699,2.0748,2.0748,2.0567,2.0552,2.0552,2.0552,2.0552,2.0234,1.9462,1.9353,1.9022,1.8171,1.8106,1.8263,1.8612,1.8224,1.8027,1.8106,1.8027,1.7947,1.7867,1.7867,1.7867,1.7867,1.7867,1.7867,1.7867,1.7867,1.7867,2.6094,2.6894,2.7344,2.6504,2.7319,2.8278,2.8167,2.8399,2.8693,2.8816,2.9464,3.0124,3.0519,3.1063,3.1648,3.2265,3.2038,3.1565,3.0938,2.9773,2.8384,2.6802,2.5757,2.492,2.4324,2.3606,2.3346,2.3714,2.3566,2.3544,2.3714,2.3735,2.3735,2.3735,2.3735,2.386,2.4136,2.3984,2.3764,2.3459,2.3599,2.3627,2.3627,2.3755,2.3894,2.4063,0.0,2.4063,2.4063,2.4063,2.4137,2.4189,2.4189,2.4258,2.4325,2.4242,2.4258,2.4325,2.4223,2.4136,2.4063,2.3928,2.3906,2.3846,2.357,2.3459,2.3414,2.3236,2.2574,2.1916,2.2146,2.2018,2.1876,2.1927,2.1753,2.1532,2.1368,2.1337,2.1337,2.1337,2.1524,2.1615,2.1385,2.1337,2.1244,2.1023,2.0991,2.0991,2.0991,2.0991,2.0813,2.04,2.0366,2.0078,1.9353,1.928,1.9185,1.893,1.893,1.8817,1.8535,1.8535,1.8419,1.8106,1.8106,1.8106,1.8106,1.8106,1.8106,1.8106,1.8106,1.8106,2.5937,2.6484,2.7012,2.7148,2.804,2.8981,2.941,2.9323,2.9274,2.9621,3.0218,3.0677,3.0676,3.1297,3.2048,3.282,3.259,3.1869,3.055,2.9411,2.8027,2.6164,2.5375,2.4704,2.3907,2.3588,2.3674,2.4228,2.4019,2.402,2.4321,2.4339,2.4339,2.4339,2.4339,2.4409,2.4578,2.4559,2.4372,2.3964,2.4118,2.4191,2.4191,2.4344,2.4561,2.4804,2.4804,2.4804,2.4804,2.4804,2.4832,2.4842,2.4842,2.4842,2.4855,2.4896,2.4874,2.4804,2.4828,2.4832,2.4775,2.4623,2.4559,2.4493,2.408,2.3923,2.3842,2.3574,2.3252,2.3023,2.3147,2.2968,2.2735,2.2805,2.2583,2.2289,2.2029,2.1903,2.1861,2.1861,2.2141,2.2276,2.1853,2.182,2.1715,2.1354,2.1291,2.1291,2.1291,2.1291,2.126,2.115,2.115,2.0959,2.0516,2.0348,2.0024,1.9419,1.9588,1.953,1.9095,1.9095,1.8893,1.8496,1.8458,1.8458,1.8458,1.8652,1.8722,1.8722,1.8722,1.8722,2.668,2.6914,2.709,2.7832,2.7501,2.7588,2.9879,2.9725,2.9713,3.1878,3.2513,3.2349,3.118,3.1424,3.1899,3.222,3.1838,3.0944,2.9355,2.8407,2.7273,2.5638,2.5399,2.5051,2.4244,2.4151,2.4228,2.4461,2.4461,2.4526,2.4746,2.476,2.476,2.476,2.476,2.476,2.4775,2.4775,2.476,2.4712,2.4727,2.4741,2.4741,2.4756,2.479,2.4804,2.4804,2.4804,2.4804,2.4804,2.4864,2.4986,2.4986,2.4986,2.501,2.5192,2.5068,2.4832,2.4937,2.4904,2.4804,2.479,2.4775,2.4775,2.4727,2.4588,2.4425,2.4408,2.4248,2.3937,2.3346,2.3189,2.3165,2.3165,2.3141,2.3117,2.3093,2.283,2.2617,2.2617,2.2704,2.2651,2.2321,2.2473,2.2546,2.2248,2.2209,2.2209,2.2209,2.2209,2.2032,2.1582,2.1552,2.1399,2.0991,2.055,2.0449,2.0829,2.0139,1.969,1.9639,1.9639,1.9603,1.9603,1.9566,1.9566,1.9603,2.0206,2.0519,2.0519,2.0519,2.0519,2.6094,2.6543,2.7086,2.7892,2.7821,2.7901,2.931,3.0186,3.0976,3.186,3.2366,3.2449,3.1804,3.1599,3.1654,3.1904,3.1209,3.0265,2.914,2.7879,2.6694,2.5708,2.5134,2.4726,2.443,2.4495,2.4543,2.4512,2.4607,2.4716,2.4804,2.4804,2.4804,2.4804,2.4804,2.4842,2.4911,2.4911,2.4981,2.5115,2.4981,2.4911,2.493,2.5049,2.5115,2.5115,2.5115,2.5115,2.5115,2.5115,2.5149,2.5192,2.5192,2.5192,2.5203,2.5274,2.5222,2.5115,2.5182,2.5141,2.5091,2.4968,2.4911,2.4917,2.4832,2.4746,2.4654,2.4545,2.4462,2.4284,2.3919,2.3816,2.3774,2.3566,2.3522,2.3437,2.3253,2.3093,2.3021,2.3021,2.3038,2.319,2.3554,2.3683,2.3716,2.3624,2.3448,2.3158,2.2632,2.2398,2.2237,2.2032,2.1764,2.1521,2.1399,2.0975,2.0829,2.0991,2.0431,2.0193,2.0514,2.0514,2.0364,2.0089,2.0802,2.0817,2.007,2.1553,2.2023,2.1565,2.1565,2.1455,2.6074,2.6484,2.7098,2.7862,2.8037,2.8191,2.8925,3.0244,3.1437,3.1968,3.2173,3.2168,3.19,3.1577,3.1327,3.1163,3.0502,2.9622,2.8574,2.7267,2.6162,2.5502,2.4916,2.4591,2.4591,2.472,2.4757,2.4666,2.4779,2.4888,2.4949,2.4981,2.4998,2.4998,2.5008,2.5075,2.5159,2.5128,2.5216,2.5363,2.5207,2.5124,2.5099,2.5243,2.5303,2.5303,2.5303,2.5303,2.5303,2.5303,2.5303,2.5303,2.5303,2.5303,2.5303,2.5303,2.5303,2.5303,2.5303,2.5303,2.5274,2.5141,2.5099,2.5077,2.4987,2.491,2.4823,2.4712,2.462,2.4561,2.4358,2.4247,2.4151,2.3917,2.3876,2.3795,2.3566,2.3437,2.3369,2.3369,2.3565,2.3809,2.3998,2.4533,2.4806,2.446,2.4241,2.3894,2.3309,2.2771,2.2371,2.231,2.2084,2.1919,2.1823,2.1535,2.1383,2.1415,2.0975,2.0813,2.0991,2.1231,2.1213,2.0863,2.1931,2.2043,2.1227,2.2761,2.3272,2.2756,2.2756,2.2487,2.6914,2.6894,2.7075,2.7827,2.8003,2.8195,2.8929,2.979,3.0886,3.2544,3.2252,3.1616,3.1355,3.1283,3.0925,2.9859,2.9632,2.9026,2.7424,2.6507,2.5702,2.4914,2.4791,2.4804,2.4804,2.4813,2.4873,2.4997,2.5004,2.5099,2.5303,2.5352,2.5394,2.5394,2.5477,2.5493,2.5493,2.5441,2.5441,2.5489,2.5428,2.5363,2.5293,2.5293,2.5293,2.5293,2.5293,2.5293,2.5293,2.5293,2.5293,2.5293,2.5293,2.5293,2.5313,2.5313,2.5313,2.5303,2.5303,2.5303,2.5303,2.5303,2.5303,2.5303,2.5303,2.5163,2.501,2.501,2.4904,2.476,2.4543,2.4375,2.419,2.419,2.419,2.419,2.419,2.3955,2.3732,2.3732,2.4382,2.4559,2.3437,2.4849,2.5715,2.4615,2.4424,2.4399,2.4382,2.3395,2.2599,2.2349,2.2537,2.2599,2.2321,2.2192,2.2175,2.231,2.1869,2.143,2.1039,2.1713,2.2115,2.2115,2.2806,2.3211,2.3192,2.3899,2.42,2.42,2.42,2.3811,2.6055,2.6478,2.7086,2.7881,2.8458,2.9056,2.9848,3.0679,3.1569,3.2442,3.1985,3.1393,3.1312,3.0179,2.9213,2.9082,2.8414,2.755,2.6491,2.6146,2.5736,2.5032,2.494,2.494,2.4943,2.5068,2.5108,2.5004,2.5166,2.5313,2.5372,2.5428,2.5463,2.5463,2.5484,2.5493,2.5493,2.5473,2.5473,2.5489,2.5488,2.5465,2.5441,2.5441,2.5441,2.5441,2.5441,2.5441,2.5441,2.5441,2.5441,2.5441,2.5441,2.5441,2.5434,2.5391,2.5379,2.5363,2.5322,2.5303,2.5303,2.5303,2.5303,2.5303,2.5303,2.5264,2.5173,2.5034,2.4974,2.4917,2.4741,2.467,2.4561,2.4284,2.4303,2.441,2.441,2.4783,2.5115,2.5115,2.564,2.6169,2.6395,2.6918,2.7196,2.685,2.6121,2.5094,2.3732,2.3259,2.3021,2.2958,2.2996,2.3021,2.2958,2.2898,2.278,2.2599,2.2432,2.2248,2.1915,2.2115,2.2096,2.174,2.2791,2.3172,2.2834,2.4431,2.5196,2.5196,2.5196,2.4646,2.6172,2.6555,2.7206,2.8295,2.8701,2.8998,2.9752,3.0583,3.1172,3.1153,3.0751,3.0304,2.9867,2.8916,2.8229,2.8272,2.7536,2.6788,2.6299,2.5953,2.5568,2.5178,2.5152,2.5168,2.5148,2.5284,2.532,2.521,2.5351,2.5441,2.5438,2.5496,2.5535,2.5543,2.5564,2.557,2.557,2.5554,2.5554,2.557,2.5554,2.5554,2.559,2.5511,2.5493,2.5493,2.5493,2.5493,2.5493,2.5493,2.5493,2.5493,2.5493,2.5493,2.5508,2.5446,2.5441,2.5428,2.5391,2.5376,2.5376,2.5376,2.5376,2.5376,2.5376,2.5376,2.5352,2.5197,2.5168,2.5116,2.4943,2.4877,2.4795,2.4512,2.4545,2.4623,2.4623,2.5244,2.5808,2.5808,2.6563,2.7239,2.7405,2.7911,2.8172,2.7842,2.694,2.5588,2.3651,2.3392,2.3471,2.3655,2.3501,2.3471,2.3655,2.3809,2.3596,2.294,2.311,2.298,2.248,2.2649,2.2736,2.2731,2.3745,2.4267,2.4279,2.5159,2.5761,2.6031,2.5744,2.5226,2.6816,2.6836,2.7246,2.8711,2.8621,2.8352,2.8972,2.9675,2.9956,2.9152,2.8979,2.8691,2.7716,2.7677,2.7692,2.745,2.6892,2.6477,2.6493,2.5812,2.5322,2.5322,2.537,2.5409,2.5407,2.5455,2.5495,2.5505,2.5505,2.5499,2.5507,2.557,2.5615,2.5605,2.5662,2.5703,2.5703,2.5636,2.5636,2.5703,2.5636,2.5636,2.5703,2.5567,2.5526,2.5526,2.5526,2.5526,2.5526,2.5526,2.5526,2.5526,2.5526,2.5526,2.5526,2.5503,2.5517,2.5517,2.5493,2.5493,2.5493,2.5493,2.5493,2.5493,2.5493,2.5493,2.5498,2.5428,2.5408,2.5345,2.5105,2.5027,2.4991,2.4883,2.4832,2.4851,2.4927,2.557,2.6155,2.625,2.7336,2.8017,2.7289,2.8186,2.8727,2.7824,2.7071,2.5923,2.3994,2.3807,2.4028,2.445,2.4177,2.4132,2.4575,2.4877,2.4599,2.3525,2.3909,2.3816,2.2963,2.3153,2.3613,2.4303,2.4966,2.5659,2.6387,2.5727,2.5812,2.6573,2.5913,2.5609,2.5957,2.5977,2.6211,2.7187,2.7767,2.8158,2.8298,2.8467,2.8499,2.8219,2.8168,2.8086,2.7864,2.7295,2.6862,2.6805,2.616,2.5659,2.5668,2.5534,2.5466,2.5466,2.5466,2.5472,2.5478,2.549,2.5492,2.5495,2.5542,2.5577,2.5586,2.5643,2.5682,2.5683,2.5683,2.5703,2.5703,2.5683,2.5683,2.5703,2.5683,2.5683,2.5703,2.5662,2.566,2.566,2.566,2.566,2.566,2.566,2.566,2.566,2.566,2.566,2.5658,2.5601,2.557,2.5567,2.5526,2.5493,2.5493,2.5493,2.5493,2.5493,2.5493,2.5493,2.5508,2.5473,2.5488,2.5446,2.5329,2.5297,2.5299,2.5214,2.5084,2.5139,2.5825,2.6624,2.7371,2.807,2.8834,2.9304,2.9135,2.9212,2.8765,2.7114,2.6722,2.5986,2.4313,2.4642,2.5061,2.5184,2.5643,2.603,2.6129,2.6191,2.6034,2.5505,2.5578,2.5326,2.4614,2.3266,2.2615,2.2784,2.2936,2.3376,2.4103,2.3951,2.456,2.5845,2.5676,2.5609,2.5703,2.5703,2.5898,2.6738,2.7559,2.8043,2.7615,2.7496,2.7332,2.685,2.7075,2.7248,2.6834,2.6381,2.6083,2.6083,2.5726,2.5453,2.5457,2.5479,2.5498,2.5498,2.5537,2.5547,2.5546,2.5586,2.5597,2.5605,2.5629,2.5644,2.5644,2.5684,2.5703,2.5703,2.5703,2.5703,2.5703,2.5662,2.5662,2.5703,2.5662,2.5659,2.5659,2.5683,2.5703,2.5703,2.5703,2.5703,2.5703,2.5703,2.5703,2.5703,2.5703,2.5703,2.5703,2.566,2.5658,2.5637,2.5605,2.5598,2.5598,2.5598,2.5598,2.5598,2.5598,2.5598,2.5595,2.5558,2.5551,2.5539,2.5471,2.5453,2.5434,2.5352,2.5553,2.588,2.6359,2.74,2.8281,2.8358,2.9165,2.9712,2.9333,2.9006,2.8442,2.7466,2.6898,2.6153,2.4924,2.5474,2.597,2.597,2.6355,2.6759,2.7145,2.7163,2.6933,2.6381,2.6535,2.6357,2.5612,2.4497,2.3719,2.3342,2.3342,2.3816,2.4726,2.4396,2.4979,2.6422,2.6062,2.597,2.5703,2.5801,2.6055,2.6621,2.7383,2.7754,2.6894,2.6641,2.6406,2.5684,2.6096,2.6362,2.563,2.5495,2.5495,2.5495,2.5514,2.5525,2.5525,2.5527,2.5527,2.5527,2.5586,2.5625,2.5625,2.5664,2.5703,2.5703,2.5684,2.5684,2.5703,2.5683,2.5662,2.5683,2.5662,2.5661,2.5661,2.5605,2.5605,2.5661,2.5605,2.5573,2.5573,2.5636,2.5662,2.5683,2.5683,2.5703,2.5703,2.5703,2.5703,2.5703,2.5703,2.5703,2.5703,2.5703,2.5703,2.5703,2.5703,2.5703,2.5703,2.5703,2.5703,2.5703,2.5703,2.5703,2.5683,2.5634,2.5629,2.5603,2.552,2.5526,2.5493,2.5434,2.6044,2.667,2.6804,2.7909,2.8775,2.839,2.927,2.9832,2.9136,2.8577,2.8203,2.8166,2.7301,2.6399,2.5738,2.6364,2.6841,2.6841,2.6988,2.7337,2.8021,2.8011,2.7714,2.7071,2.7383,2.7254,2.6513,2.624,2.5631,2.4684,2.4684,2.5072,2.5895,2.5418,2.5802,2.6978,2.6521,2.6532,2.5703,2.625,2.668,2.6035,2.6523,2.6934,2.6055,2.5859,2.5801,2.5703,2.5662,2.5637,2.552,2.55,2.55,2.55,2.5559,2.5582,2.5586,2.5644,2.5664,2.5664,2.5684,2.5684,2.5684,2.5684,2.5703,2.5703,2.5644,2.5644,2.5703,2.5595,2.5554,2.5607,2.5558,2.5535,2.5535,2.5526,2.5526,2.5535,2.5526,2.5503,2.5503,2.5511,2.5558,2.5629,2.5662,2.5703,2.5703,2.5703,2.5703,2.5703,2.5703,2.5703,2.5703,2.5703,2.5703,2.5703,2.5703,2.5703,2.5703,2.5703,2.5703,2.5703,2.5703,2.5703,2.5703,2.5683,2.5683,2.5662,2.5603,2.5595,2.5564,2.5493,2.6143,2.6941,2.7595,2.789,2.8467,2.9813,3.0213,3.0248,2.9894,2.9208,2.8643,2.8466,2.753,2.6804,2.6712,2.74,2.7902,2.7902,2.859,2.9072,2.9184,2.8968,2.8773,2.8682,2.8732,2.8573,2.8113,2.8044,2.7199,2.5394,2.5429,2.519,2.4643,2.5242,2.5588,2.5764,2.6409,2.7088,2.6309,2.668,2.6973,2.707,2.7383,2.7422,2.6523,2.6328,2.6172,2.5684,2.5547,2.5508,2.5547,2.5566,2.5547,2.5508,2.5527,2.5547,2.5547,2.5566,2.5586,2.5586,2.5586,2.5586,2.5586,2.5586,2.5586,2.5586,2.5566,2.5556,2.559,2.5542,2.5503,2.5547,2.5526,2.5493,2.5493,2.5451,2.5447,2.5447,2.5473,2.5473,2.5453,2.5473,2.5526,2.5551,2.5587,2.5595,2.5595,2.5595,2.5605,2.5637,2.5637,2.5662,2.5703,2.5703,2.5703,2.5703,2.5703,2.5703,2.5703,2.5703,2.5703,2.5703,2.5703,2.5703,2.5703,2.5703,2.5703,2.5683,2.5661,2.5659,2.5636,2.5567,2.6217,2.7069,2.7833,2.7987,2.83,2.944,2.9679,2.979,3.0158,2.9429,2.8912,2.93,2.8466,2.7805,2.7804,2.85,2.8819,2.8367,2.9064,2.957,2.957,2.9353,2.9225,2.9225,2.9089,2.8929,2.8749,2.8749,2.8112,2.6814,2.6433,2.5982,2.5351,2.6164,2.6731,2.7128,2.753,2.7781,2.6468,2.6927,2.7305,2.7734,2.8156,2.8249,2.7348,2.7139,2.6891,2.601,2.5835,2.5776,2.5581,2.5559,2.5559,2.55,2.55,2.55,2.55,2.55,2.55,2.55,2.55,2.55,2.55,2.55,2.55,2.55,2.5481,2.5479,2.5505,2.5476,2.5465,2.5463,2.5465,2.5453,2.5453,2.5406,2.5368,2.5379,2.5421,2.5421,2.5376,2.5428,2.5453,2.5453,2.5498,2.5493,2.5493,2.5493,2.5535,2.5567,2.5567,2.5627,2.5662,2.5662,2.5683,2.5703,2.5703,2.5703,2.5703,2.5703,2.5703,2.5703,2.5703,2.5703,2.5703,2.5703,2.5703,2.5703,2.5703,2.5703,2.5742,2.5929,2.6452,2.7181,2.8168,2.8512,2.879,2.9327,2.9429,2.964,3.0294,2.9557,2.9174,2.9989,2.922,2.8657,2.8866,2.9401,2.9553,2.8944,2.942,2.9763,2.9763,2.9589,2.9454,2.9412,2.9203,2.9067,2.9017,2.8994,2.8631,2.7824,2.7507,2.6986,2.6232,2.7035,2.7701,2.8257,2.8474,2.8412,2.5662,2.6826,2.7851,2.707,2.8065,2.9025,2.8214,2.8028,2.7798,2.6911,2.6728,2.6458,2.5562,2.5466,2.5505,2.5505,2.5505,2.5505,2.5505,2.5505,2.5505,2.5505,2.5505,2.5505,2.5505,2.5505,2.5505,2.5505,2.5447,2.5438,2.5505,2.538,2.5348,2.5394,2.5337,2.5303,2.5303,2.5303,2.5313,2.5313,2.5303,2.5303,2.5313,2.5303,2.5303,2.5322,2.5447,2.5493,2.5493,2.5493,2.5493,2.5517,2.5517,2.5551,2.5603,2.5603,2.5657,2.5703,2.5703,2.5703,2.5703,2.5703,2.5703,2.5703,2.5703,2.5703,2.5703,2.5703,2.5703,2.5703,2.5703,2.5703,2.5918,2.6738,2.6953,2.7393,2.8824,2.979,3.0366,3.0337,3.0321,3.034,3.0379,2.9667,2.9379,3.0263,2.9461,2.9065,2.9813,2.9946,2.9965,2.9927,2.9946,2.9984,2.9984,2.9796,2.9607,2.9394,2.9392,2.9267,2.9017,2.8994,2.8631,2.7824,2.8494,2.8127,2.6591,2.738,2.7783,2.7857,2.8627,2.8952,2.6265,2.6815,2.7259,2.7508,2.8406,2.9017,2.8157,2.8365,2.836,2.6971,2.6668,2.6352,2.5322,2.5303,2.5428,2.539,2.537,2.537,2.537,2.537,2.5322,2.5187,2.5284,2.5322,2.5187,2.5303,2.537,2.537,2.5341,2.5341,2.537,2.5322,2.5313,2.5339,2.5313,2.5303,2.5303,2.5303,2.5303,2.5303,2.5303,2.5303,2.5303,2.5303,2.5303,2.5293,2.5346,2.5379,2.5379,2.5379,2.5406,2.5441,2.5434,2.5482,2.5543,2.5543,2.5554,2.559,2.5629,2.5634,2.5637,2.5683,2.5703,2.5703,2.5703,2.5703,2.5703,2.5703,2.5703,2.5703,2.5703,2.6113,2.6894,2.832,2.8672,2.8943,2.994,3.0366,3.0377,2.9737,3.0086,3.0442,3.0402,3.014,3.0044,3.034,3.0074,2.9928,3.0216,3.0254,3.0254,3.0254,3.0254,3.0254,3.0254,3.0032,2.9861,2.978,2.9533,2.9351,2.9267,2.9089,2.8631,2.7824,2.8081,2.7952,2.7365,2.8191,2.8576,2.8594,2.8888,2.8994,2.6265,2.6554,2.6891,2.7753,2.8379,2.8764,2.8749,2.8929,2.8775,2.7666,2.7215,2.6708,2.562,2.5337,2.5234,2.5157,2.513,2.513,2.513,2.513,2.5091,2.4947,2.5053,2.5075,2.4956,2.5053,2.513,2.513,2.5168,2.5207,2.5207,2.5264,2.5303,2.5303,2.5303,2.5303,2.5303,2.5303,2.5303,2.5303,2.5303,2.5303,2.5303,2.5303,2.5303,2.5303,2.5303,2.5303,2.5303,2.5303,2.5321,2.5371,2.5371,2.5413,2.5471,2.5471,2.5488,2.5517,2.5554,2.5564,2.559,2.5637,2.5661,2.5662,2.5683,2.5703,2.5762,2.6055,2.6133,2.6191,2.6504,2.7226,2.8164,2.9316,2.9824,3.0175,3.0655,3.07,3.0447,2.9802,3.0149,3.0516,3.0451,3.0419,3.0428,3.039,3.0398,3.0398,3.0398,3.0398,3.0398,3.0398,3.0398,3.0398,3.0398,3.0241,3.0089,3.0013,2.9765,2.957,2.9494,2.9249,2.8876,2.8344,2.8235,2.8209,2.8209,2.8484,2.8741,2.8994,2.8994,2.8994,0.0,0.0,0.0,2.7624,2.7836,2.8289,2.991,2.9656,2.9056,2.9056,2.8439,2.7557,2.6497,2.5601,2.4979,2.4812,2.4782,2.4802,2.4802,2.4802,2.4802,2.4782,2.4801,2.4808,2.4798,2.4802,2.4802,2.4802,2.4927,2.4995,2.4985,2.5187,2.5284,2.5284,2.5303,2.5303,2.5303,2.5303,2.5303,2.5303,2.5303,2.5303,2.5303,2.5303,2.5303,2.5303,2.5303,2.5303,2.5303,2.5303,2.5303,2.5303,2.5303,2.5339,2.5391,2.5391,2.5434,2.5484,2.5508,2.5508,2.5517,2.5587,2.5601,2.5605,2.5682,2.5703,2.5879,2.6719,2.6973,2.7207,2.8105,2.8965,2.9609,2.9629,3.0273,3.0898,3.0898,3.0793,3.0684,3.0623,3.0606,3.0581,3.0505,3.0498,3.0472,3.0414,3.0398,3.0398,3.0398,3.0398,3.0398,3.0398,3.0398,3.0398,3.0398,3.0398,3.0299,3.0028,2.9999,2.9908,2.9731,2.9513,2.9412,2.9412,2.9156,2.9017,2.9017,2.8209,2.8246,2.8994,2.8994,2.8994,2.5527,0.0,0.0,0.0,0.0,0.0,2.7351,2.7857,2.8195,2.8042,2.795,2.7531,2.6304,2.588,2.5431,2.4513,2.462,2.4804,2.4804,2.4804,2.475,2.4584,2.4709,2.4746,2.4605,2.4713,2.4804,0.0,2.4841,2.485,2.4869,2.5005,2.509,2.5069,2.5224,2.5303,2.5303,2.5303,2.5303,2.5303,2.5303,2.5303,2.5303,2.5303,2.5303,2.5303,2.5303,2.5303,2.5303,2.5303,2.5303,2.5303,2.5303,2.5313,2.534,2.534,2.5339,2.5363,2.5408,2.5428,2.5434,2.5513,2.5535,2.5543,2.5605,2.5633,2.5694,2.5976,2.6504,2.7344,2.8848,2.9414,2.9766,3.0391,3.0723,3.0898,3.0898,3.0878,3.0814,3.0684,3.0677,3.0643,3.0513,3.0498,3.0472,3.0414,3.0398,3.0398,3.0398,3.0398,3.0398,3.0398,3.0398,3.0398,3.0398,3.0398,3.0367,3.0279,3.0122,2.9984,2.9924,2.9712,2.9626,2.9626,2.9414,2.9289,2.9289,2.8868,2.8796,2.8994,2.8994,2.8994,2.5547,2.5493,2.5505,2.5803,0.0,0.0,2.6843,2.716,2.7528,2.8103,2.795,2.7581,2.7127,2.6408,2.5614,2.4836,2.4633,2.454,2.454,2.454,2.4504,2.4393,2.4485,2.4504,2.4393,2.4485,2.454,2.454,2.4633,2.4706,2.4804,2.4873,2.4917,2.493,2.5077,2.5173,2.5173,2.5264,2.5303,2.5303,2.5303,2.5303,2.5303,2.5303,2.5303,2.5303,2.5303,2.5303,2.5303,2.5303,2.5303,2.5303,2.5303,2.5303,2.5303,2.5303,2.5303,2.5322,2.5337,2.5354,2.5371,2.5434,2.5465,2.5488,2.5567,2.5601,2.5685,2.6112,2.7129,2.8398,2.9785,3.0137,3.0273,3.0781,3.0898,3.0898,3.0898,3.0898,3.0879,3.0793,3.0772,3.0738,3.0611,3.0554,3.0513,3.0442,3.0425,3.0398,3.0398,3.0398,3.0398,3.0398,3.0398,3.0398,3.0398,3.0398,3.0398,3.0398,3.0254,3.0182,3.0182,2.9958,2.9829,2.9829,2.9644,2.9474,2.9412,2.9134,2.8994,2.8994,2.8994,2.8994,2.5605,2.5628,2.5792,2.6391,2.6083,0.0,2.7268,2.7044,2.6975,2.8448,2.7995,2.7515,2.8077,2.6827,2.5612,2.5299,2.4725,2.4301,2.4208,2.419,2.419,2.419,2.419,2.419,2.419,2.419,2.419,2.419,2.4374,2.454,2.4707,2.4776,2.4801,2.476,2.4911,2.4998,2.4986,2.5163,2.5264,2.5264,2.5303,2.5303,2.5303,2.5303,2.5303,2.5303,2.5303,2.5303,2.5303,2.5303,2.5303,2.5303,2.5303,2.5303,2.5303,2.5303,2.5303,2.5303,2.5303,2.5303,2.5303,2.5371,2.5391,2.5408,2.5543,2.559,2.5793,2.6834,2.832,2.9805,3.0664,3.0898,3.0898,3.0898,3.0898,3.0898,3.0898,3.0898,3.0898,3.0898,3.0898,3.0858,3.0721,3.0657,3.0587,3.0516,3.0462,3.0402,3.041,3.0398,3.0398,3.0398,3.0398,3.0398,3.0398,3.0398,3.0398,3.0398,3.0398,3.0398,3.0398,3.0163,3.0042,3.0042,2.9829,2.9625,2.9434,2.916,2.9044,2.9044,2.9044,2.9044,2.5605,2.6051,2.6406,2.5799,2.6535,0.0,2.5842,2.5981,2.6408,2.6573,2.6453,2.6279,2.626,2.5947,2.5408,2.4575,2.4855,2.4948,2.4301,2.419,2.419,2.419,2.419,2.419,2.419,2.419,2.419,2.419,2.4226,2.4282,2.4319,2.4617,2.4738,2.4559,2.4845,2.4949,2.4842,2.4974,2.5065,2.5057,2.5224,2.5303,2.5303,2.5303,2.5303,2.5303,2.5303,2.5303,2.5303,2.5303,2.5303,2.5303,2.5303,2.5303,2.5303,2.5303,2.5303,2.5303,2.5303,2.5303,2.5293,2.5313,2.5322,2.533,2.5401,2.5434,2.5782,2.7491,2.8747,2.9805,3.0664,3.0898,3.0898,3.0898,3.0898,3.0898,3.0898,3.0898,3.0898,3.0898,3.0898,3.0858,3.0721,3.0687,3.0648,3.0513,3.05,3.0462,3.0402,3.0398,3.0398,3.0398,3.0398,3.0398,3.0398,3.0398,3.0398,3.0398,3.0398,3.0398,3.0398,3.0355,3.0311,3.0311,3.0061,2.9845,2.9625,2.9434,2.933,2.933,2.933,2.9395,2.5586,2.5898,2.6179,2.612,2.6379,0.0,0.0,2.5725,2.5866,2.6602,2.6269,2.6047,2.6774,2.6015,2.5189,2.4834,2.5003,2.487,2.4073,2.4772,2.5392,2.5392,2.504,2.48,2.48,2.4448,2.419,2.419,2.419,2.419,2.419,2.4393,2.4495,2.4495,2.4752,2.4904,2.4904,2.4962,2.501,2.501,2.5099,2.5152,2.5152,2.5253,2.5303,2.5303,2.5303,2.5303,2.5303,2.5303,2.5303,2.5303,2.5303,2.5303,2.5303,2.5303,2.5303,2.5303,2.5303,2.5303,2.5303,2.5303,2.5303,2.5313,2.5387,2.5718,2.6384,2.7794,2.8854,2.9761,3.0664,3.0898,3.0898,3.0898,3.0898,3.0898,3.0898,3.0898,3.0898,3.0898,3.0898,3.0879,3.0814,3.0745,3.068,3.0617,3.0568,3.0521,3.0462,3.0462,3.043,3.039,3.0398,3.0398,3.0398,3.0398,3.0398,3.0398,3.0398,3.0398,3.0398,3.0398,3.0398,3.0398,3.0267,3.0075,2.9845,2.9765,2.9643,2.9533,2.9533,2.9607,2.5566,2.5703,2.5948,2.6447,2.6237,2.5974,0.0,0.0,0.0,2.6784,2.6206,2.5869,2.7176,2.5948,2.4833,2.504,2.4977,2.4642,2.3947,2.531,2.6284,2.5978,2.5775,2.5536,2.5317,2.4781,2.4504,2.4652,2.4374,2.4282,2.4411,2.4319,2.4303,2.4445,2.467,2.4842,2.4911,2.4974,2.4986,2.4962,2.5022,2.5034,2.501,2.5214,2.5303,2.5303,2.5303,2.5303,2.5303,2.5303,2.5303,2.5303,2.5303,2.5303,2.5303,2.5303,2.5303,2.5303,2.5303,2.5303,2.5303,2.5303,2.5303,2.5303,2.5363,2.6042,2.6976,2.7924,2.882,2.9728,3.0663,3.0898,3.0898,3.0898,3.0898,3.0898,3.0898,3.0898,3.0898,3.0898,3.0898,3.0898,3.0898,3.0814,3.0721,3.0696,3.0642,3.0594,3.0516,3.0498,3.0472,3.0402,3.0398,3.0398,3.0398,3.0398,3.0398,3.0398,3.0398,3.0398,3.0398,3.0398,3.0398,3.0398,3.0398,3.0299,3.0075,3.0075,2.9973,2.9765,2.9765,2.9799,2.5517,2.6113,2.6504,2.5893,2.6728,2.7324,2.5859,0.0,2.5979,2.541,0.0,2.4675,2.4888,0.0,0.0,2.3929,2.4469,2.4772,2.4392,2.5126,2.5182,2.3749,2.5285,2.6056,2.5038,2.5151,2.5558,2.6264,2.5003,2.4504,2.5225,2.4744,2.4393,2.4228,2.4591,2.4731,2.4559,2.4858,2.4937,2.4832,2.5126,2.5163,2.501,2.5214,2.5303,2.5303,2.5303,2.5303,2.5303,2.5303,2.5303,2.5303,2.5303,2.5303,2.5303,2.5303,2.5303,2.5303,2.5303,2.5303,2.5303,2.5303,2.5303,2.5313,2.5303,2.597,2.6916,2.7853,2.8782,2.9711,3.0663,3.0898,3.0898,3.0898,3.0898,3.0898,3.0898,3.0898,3.0898,3.0898,3.0898,3.0898,3.0898,3.0898,3.0837,3.0718,3.069,3.0633,3.0532,3.0498,3.0472,3.0402,3.0398,3.0398,3.0398,3.0398,3.0398,3.0398,3.0398,3.0398,3.0398,3.0398,3.0398,3.0398,3.0398,3.0398,3.0355,3.0355,3.0209,2.9969,2.9969,3.0075,2.5279,2.5707,2.6133,2.6269,2.6459,2.6526,2.6216,2.5861,2.5617,2.5684,0.0,0.0,0.0,0.0,0.0,0.0,2.4201,2.4339,2.3528,2.4669,2.5331,2.4658,2.5024,2.5216,2.4922,2.519,2.5724,2.6523,2.5544,2.5241,2.6041,2.541,2.504,2.5058,2.4888,2.4799,2.479,2.4937,2.4974,2.4917,2.5053,2.5088,2.501,2.5088,2.5192,2.5284,2.5192,2.5203,2.5303,2.5303,2.5303,2.5303,2.5303,2.5303,2.5303,2.5303,2.5303,2.5303,2.5303,2.5303,2.5303,2.5303,2.5303,2.5303,2.5303,2.5928,2.6857,2.7812,2.8753,2.9663,3.0643,3.0898,3.0898,3.0898,3.0898,3.0898,3.0898,3.0898,3.0898,3.0898,3.0898,3.0898,3.0898,3.0898,3.0879,3.0817,3.0816,3.0765,3.0638,3.0628,3.0575,3.0463,3.0452,3.0441,3.039,3.0398,3.0398,3.0398,3.0398,3.0398,3.0398,3.0398,3.0398,3.0398,3.0398,3.0398,3.0398,3.0398,3.0355,3.0222,3.0222,3.0299,2.5147,2.5363,2.5683,2.6288,2.5996,2.5716,2.6242,2.576,2.537,2.5861,2.539,0.0,0.0,0.0,2.4042,2.3747,0.0,2.3755,2.283,2.3852,2.4714,2.469,2.4471,2.4497,2.5033,2.5193,2.5677,2.6709,2.5932,2.5837,2.6868,2.618,2.5682,2.5614,2.525,2.4982,2.4872,2.4943,2.4986,2.4937,2.5041,2.5046,2.501,2.5065,2.5163,2.5284,2.5152,2.5163,2.5303,2.5303,2.5303,2.5303,2.5303,2.5303,2.5303,2.5303,2.5303,2.5303,2.5303,2.5303,2.5303,2.5303,2.5303,2.5303,2.5303,2.5726,2.6497,2.7731,2.8526,2.9294,3.0536,3.0857,3.0858,3.0898,3.0898,3.0898,3.0898,3.0898,3.0898,3.0898,3.0898,3.0898,3.0898,3.0898,3.0898,3.0898,3.0898,3.0857,3.0718,3.0696,3.0665,3.0545,3.0516,3.0482,3.0439,3.0414,3.0398,3.0398,3.0398,3.0398,3.0398,3.0398,3.0398,3.0398,3.0398,3.0398,3.0398,3.0398,3.0398,3.0398,3.0398,3.0398,2.5279,0.0,2.5426,2.5517,2.5527,2.5508,2.5527,2.5512,2.5486,2.5428,2.5245,2.5043,2.4869,2.464,2.4319,2.3803,2.3435,0.0,0.0,2.2536,2.2406,2.2417,2.3363,2.4417,2.5481,2.5175,2.5586,2.7156,2.6118,2.6072,2.7666,2.6991,2.6206,2.5429,2.5579,2.5296,2.4528,2.4845,2.4924,2.4818,2.5138,2.5192,2.501,2.5203,2.5284,2.5303,2.5284,2.5284,2.5303,2.5303,2.5303,2.5303,2.5303,2.5303,2.5303,2.5303,2.5303,2.5303,2.5303,2.5303,2.5303,2.5303,2.5303,2.5303,2.5303,2.5322,2.5707,2.75,2.8016,2.8456,3.0248,3.0716,3.0743,3.0878,3.0898,3.0898,3.0898,3.0898,3.0898,3.0898,3.0898,3.0898,3.0898,3.0898,3.0898,3.0898,3.0898,3.0857,3.0718,3.0696,3.0677,3.0611,3.0545,3.0498,3.0498,3.043,3.0398,3.0398,3.0398,3.0398,3.0398,3.0398,3.0398,3.0398,3.0398,3.0398,3.0398,3.0398,3.0398,3.0398,3.0398,3.0398,0.0,0.0,2.5408,2.542,0.0,0.0,2.5504,2.5496,2.5483,2.5464,2.5376,2.5245,2.5043,2.484,2.4522,2.3987,2.3687,2.3336,0.0,2.2474,2.231,2.231,2.33,2.4147,2.4515,2.4743,2.5571,2.7174,2.7105,0.0,2.8544,2.8338,2.7574,2.6232,2.5875,2.5316,2.4495,2.4831,2.4974,2.4943,2.5182,2.5264,2.5203,2.5141,2.5173,2.5284,2.5163,2.5173,2.5303,2.5303,2.5303,2.5303,2.5303,2.5303,2.5303,2.5303,2.5303,2.5303,2.5303,2.5303,2.5303,2.5303,2.5303,2.5303,2.5303,2.5303,2.5688,2.75,2.7989,2.8415,3.0175,3.0673,3.0718,3.0767,3.0837,3.0898,3.0898,3.0898,3.0898,3.0898,3.0898,3.0898,3.0898,3.0898,3.0898,3.0898,3.0898,3.0879,3.0837,3.0836,3.079,3.0677,3.0657,3.0606,3.0516,3.043,3.0398,3.0398,3.0398,3.0398,3.0398,3.0398,3.0398,3.0398,3.0398,3.0398,3.0398,3.0398,3.0398,3.0398,3.0398,3.0398,2.4839,2.5072,0.0,2.5341,2.5428,0.0,2.5464,0.0,2.5566,2.5508,2.548,2.5401,2.5139,2.4993,2.475,2.4247,2.3969,2.3548,0.0,2.2553,2.2423,2.231,2.2943,2.3545,2.3966,2.4167,2.5242,2.7546,2.7779,2.8401,0.0,2.958,2.8819,2.7512,2.6517,2.5634,2.4819,2.481,2.4858,2.4924,2.5118,2.5224,2.5303,2.5163,2.5173,2.5284,2.5163,2.5173,2.5303,2.5303,2.5303,2.5303,2.5303,2.5303,2.5303,2.5303,2.5303,2.5303,2.5303,2.5303,2.5303,2.5303,2.5303,2.5303,2.5303,2.5303,2.5621,2.7092,2.7737,2.8285,2.9725,3.0369,3.0673,3.069,3.0795,3.0898,3.0898,3.0898,3.0898,3.0898,3.0898,3.0898,3.0898,3.0898,3.0898,3.0898,3.0898,3.0898,3.0898,3.0898,3.0878,3.0771,3.0721,3.0665,3.0533,3.0472,3.0449,3.0449,3.0414,3.0398,3.0398,3.0398,3.0398,3.0398,3.0398,3.0398,3.0398,3.0398,3.0398,3.0398,3.0398,3.0398]}]]